<?xml version='1.0' encoding='UTF-8'?><gpx version="1.1" creator="JPX - https://github.com/jenetics/jpx" xmlns="http://www.topografix.com/GPX/1/1"><trk><trkseg><trkpt lat="45.97158394430934" lon="12.681360859199009"><ele>32.0</ele><time>2026-04-04T11:17:46.999Z</time></trkpt><trkpt lat="45.9715297579773" lon="12.681521591761427"><ele>32.0</ele><time>2026-04-04T11:17:50.999Z</time></trkpt><trkpt lat="45.97151612484741" lon="12.6816243394646"><ele>32.0</ele><time>2026-04-04T11:24:06.999Z</time></trkpt><trkpt lat="45.971578448211" lon="12.681659598010299"><ele>32.0</ele><time>2026-04-04T11:24:19.999Z</time></trkpt><trkpt lat="45.97164532319782" lon="12.68158029197539"><ele>32.0</ele><time>2026-04-04T11:24:21.999Z</time></trkpt><trkpt lat="45.97171992686" lon="12.6814853764025"><ele>31.999999999999996</ele><time>2026-04-04T11:24:23.999Z</time></trkpt><trkpt lat="45.971776836540116" lon="12.68139069181701"><ele>32.0</ele><time>2026-04-04T11:24:31.999Z</time></trkpt><trkpt lat="45.9717419744296" lon="12.68124270850146"><ele>32.0</ele><time>2026-04-04T11:24:33.999Z</time></trkpt><trkpt lat="45.971695575164865" lon="12.681154401781843"><ele>32.0</ele><time>2026-04-04T11:24:34.999Z</time></trkpt><trkpt lat="45.971653225390774" lon="12.681067902539857"><ele>31.999999999999996</ele><time>2026-04-04T11:24:35.999Z</time></trkpt><trkpt lat="45.97160804918205" lon="12.68099391312613"><ele>32.0</ele><time>2026-04-04T11:24:36.999Z</time></trkpt><trkpt lat="45.97155819944533" lon="12.680921175406446"><ele>32.0</ele><time>2026-04-04T11:24:37.999Z</time></trkpt><trkpt lat="45.97151992042199" lon="12.680847898052548"><ele>32.0</ele><time>2026-04-04T11:24:38.999Z</time></trkpt><trkpt lat="45.97151992042199" lon="12.680847898052548"><ele>32.0</ele><time>2026-04-04T11:24:38.999Z</time></trkpt><trkpt lat="45.975296143365874" lon="12.673598611914887"><ele>33.25</ele><time>2026-04-04T11:26:08.999Z</time></trkpt><trkpt lat="45.97538039631147" lon="12.673489213411514"><ele>34.5</ele><time>2026-04-04T11:26:09.999Z</time></trkpt><trkpt lat="45.97546928571668" lon="12.673382652567122"><ele>35.75</ele><time>2026-04-04T11:26:10.999Z</time></trkpt><trkpt lat="45.975555967921224" lon="12.673293855122385"><ele>37.0</ele><time>2026-04-04T11:26:11.999Z</time></trkpt><trkpt lat="45.97564632245361" lon="12.673186914765356"><ele>37.0</ele><time>2026-04-04T11:26:12.999Z</time></trkpt><trkpt lat="45.97573895309819" lon="12.673079376635174"><ele>37.0</ele><time>2026-04-04T11:26:13.999Z</time></trkpt><trkpt lat="45.97583495106688" lon="12.672977222314556"><ele>37.0</ele><time>2026-04-04T11:26:14.999Z</time></trkpt><trkpt lat="45.97592578650902" lon="12.672859251470573"><ele>37.0</ele><time>2026-04-04T11:26:15.999Z</time></trkpt><trkpt lat="45.976020874968334" lon="12.672745988019502"><ele>37.25</ele><time>2026-04-04T11:26:16.999Z</time></trkpt><trkpt lat="45.976121967964126" lon="12.672636172004024"><ele>37.5</ele><time>2026-04-04T11:26:17.999Z</time></trkpt><trkpt lat="45.976215524976425" lon="12.672511378635695"><ele>37.75</ele><time>2026-04-04T11:26:18.999Z</time></trkpt><trkpt lat="45.976314600612135" lon="12.672378735261606"><ele>38.0</ele><time>2026-04-04T11:26:19.999Z</time></trkpt><trkpt lat="45.976417485273096" lon="12.672240680788002"><ele>38.0</ele><time>2026-04-04T11:26:20.999Z</time></trkpt><trkpt lat="45.97652433975938" lon="12.672102919042755"><ele>38.0</ele><time>2026-04-04T11:26:21.999Z</time></trkpt><trkpt lat="45.97663955370158" lon="12.671962022482806"><ele>38.0</ele><time>2026-04-04T11:26:22.999Z</time></trkpt><trkpt lat="45.97675817159587" lon="12.67181907778776"><ele>38.0</ele><time>2026-04-04T11:26:23.999Z</time></trkpt><trkpt lat="45.97688278603584" lon="12.671668615987755"><ele>38.33333333333333</ele><time>2026-04-04T11:26:24.999Z</time></trkpt><trkpt lat="45.97701140200644" lon="12.671507559045033"><ele>38.666666666666664</ele><time>2026-04-04T11:26:25.999Z</time></trkpt><trkpt lat="45.977136477380846" lon="12.671355788837422"><ele>39.0</ele><time>2026-04-04T11:26:26.999Z</time></trkpt><trkpt lat="45.977267546734545" lon="12.671203815469458"><ele>40.333333333333336</ele><time>2026-04-04T11:26:27.999Z</time></trkpt><trkpt lat="45.97739105266331" lon="12.671058133551526"><ele>41.66666666666667</ele><time>2026-04-04T11:26:28.999Z</time></trkpt><trkpt lat="45.97751458592712" lon="12.67091292099471"><ele>43.0</ele><time>2026-04-04T11:26:29.999Z</time></trkpt><trkpt lat="45.97762887623461" lon="12.670765336135853"><ele>43.0</ele><time>2026-04-04T11:26:30.999Z</time></trkpt><trkpt lat="45.97773544522378" lon="12.670630454207444"><ele>43.0</ele><time>2026-04-04T11:26:31.999Z</time></trkpt><trkpt lat="45.97783799602903" lon="12.670505404930523"><ele>43.0</ele><time>2026-04-04T11:26:32.999Z</time></trkpt><trkpt lat="45.977934118595634" lon="12.6703915428888"><ele>43.0</ele><time>2026-04-04T11:26:33.999Z</time></trkpt><trkpt lat="45.978029185110934" lon="12.670287549353517"><ele>43.0</ele><time>2026-04-04T11:26:34.999Z</time></trkpt><trkpt lat="45.97811805316865" lon="12.670199554746473"><ele>43.0</ele><time>2026-04-04T11:26:35.999Z</time></trkpt><trkpt lat="45.97822079397277" lon="12.670109188451052"><ele>43.0</ele><time>2026-04-04T11:26:36.999Z</time></trkpt><trkpt lat="45.97832702320776" lon="12.670025140085603"><ele>43.0</ele><time>2026-04-04T11:26:37.999Z</time></trkpt><trkpt lat="45.978430358013775" lon="12.669952145706269"><ele>43.0</ele><time>2026-04-04T11:26:38.999Z</time></trkpt><trkpt lat="45.978519438100186" lon="12.669887053470713"><ele>43.0</ele><time>2026-04-04T11:26:39.999Z</time></trkpt><trkpt lat="45.978582085137525" lon="12.669843796723056"><ele>43.0</ele><time>2026-04-04T11:26:40.999Z</time></trkpt><trkpt lat="45.97866081599285" lon="12.66978647239343"><ele>43.0</ele><time>2026-04-04T11:26:42.999Z</time></trkpt><trkpt lat="45.97873865959477" lon="12.669740824140852"><ele>43.0</ele><time>2026-04-04T11:26:49.999Z</time></trkpt><trkpt lat="45.978803686983184" lon="12.669695720424707"><ele>43.0</ele><time>2026-04-04T11:26:51.999Z</time></trkpt><trkpt lat="45.97876300019747" lon="12.669520805502312"><ele>42.8</ele><time>2026-04-04T11:26:52.999Z</time></trkpt><trkpt lat="45.97873594681105" lon="12.669394203512507"><ele>42.599999999999994</ele><time>2026-04-04T11:26:53.999Z</time></trkpt><trkpt lat="45.97871143198562" lon="12.669275012416435"><ele>42.400000000000006</ele><time>2026-04-04T11:26:54.999Z</time></trkpt><trkpt lat="45.978678314146826" lon="12.669140608668588"><ele>42.2</ele><time>2026-04-04T11:26:55.999Z</time></trkpt><trkpt lat="45.978642299051856" lon="12.668970496655495"><ele>42.0</ele><time>2026-04-04T11:26:56.999Z</time></trkpt><trkpt lat="45.97861192113504" lon="12.668778051052616"><ele>42.25</ele><time>2026-04-04T11:26:57.999Z</time></trkpt><trkpt lat="45.9785865104627" lon="12.66858965953452"><ele>42.5</ele><time>2026-04-04T11:26:58.999Z</time></trkpt><trkpt lat="45.9785609631725" lon="12.668395094527567"><ele>42.75</ele><time>2026-04-04T11:26:59.999Z</time></trkpt><trkpt lat="45.97853444968586" lon="12.668191077398808"><ele>43.0</ele><time>2026-04-04T11:27:00.999Z</time></trkpt><trkpt lat="45.978505881707406" lon="12.66798215420355"><ele>42.75</ele><time>2026-04-04T11:27:01.999Z</time></trkpt><trkpt lat="45.97847715282293" lon="12.66777157890432"><ele>42.5</ele><time>2026-04-04T11:27:02.999Z</time></trkpt><trkpt lat="45.978450144340066" lon="12.667563598803254"><ele>42.25</ele><time>2026-04-04T11:27:03.999Z</time></trkpt><trkpt lat="45.978408430936504" lon="12.667356075005266"><ele>42.0</ele><time>2026-04-04T11:27:04.999Z</time></trkpt><trkpt lat="45.978359103580644" lon="12.667163478495947"><ele>42.0</ele><time>2026-04-04T11:27:05.999Z</time></trkpt><trkpt lat="45.97830368936451" lon="12.666981684231276"><ele>42.0</ele><time>2026-04-04T11:27:06.999Z</time></trkpt><trkpt lat="45.978248855643585" lon="12.666812183684064"><ele>42.0</ele><time>2026-04-04T11:27:07.999Z</time></trkpt><trkpt lat="45.978211672275926" lon="12.66663849019301"><ele>42.0</ele><time>2026-04-04T11:27:08.999Z</time></trkpt><trkpt lat="45.97814332003068" lon="12.666480004082766"><ele>42.5</ele><time>2026-04-04T11:27:09.999Z</time></trkpt><trkpt lat="45.9780796060429" lon="12.66631006592449"><ele>43.0</ele><time>2026-04-04T11:27:10.999Z</time></trkpt><trkpt lat="45.97801238460612" lon="12.66613879080257"><ele>43.5</ele><time>2026-04-04T11:27:11.999Z</time></trkpt><trkpt lat="45.977944297294094" lon="12.665964649423243"><ele>44.0</ele><time>2026-04-04T11:27:12.999Z</time></trkpt><trkpt lat="45.97787544400832" lon="12.66578770395066"><ele>44.0</ele><time>2026-04-04T11:27:13.999Z</time></trkpt><trkpt lat="45.97780859489921" lon="12.665608177793466"><ele>44.0</ele><time>2026-04-04T11:27:14.999Z</time></trkpt><trkpt lat="45.97774376933818" lon="12.665432777602277"><ele>44.0</ele><time>2026-04-04T11:27:15.999Z</time></trkpt><trkpt lat="45.97768332612793" lon="12.665256524735812"><ele>44.0</ele><time>2026-04-04T11:27:16.999Z</time></trkpt><trkpt lat="45.97762683356497" lon="12.665089669883155"><ele>44.0</ele><time>2026-04-04T11:27:17.999Z</time></trkpt><trkpt lat="45.97757795653603" lon="12.664928884340549"><ele>44.0</ele><time>2026-04-04T11:27:18.999Z</time></trkpt><trkpt lat="45.97753221223367" lon="12.66477148284669"><ele>44.0</ele><time>2026-04-04T11:27:19.999Z</time></trkpt><trkpt lat="45.97749134052392" lon="12.664622007565267"><ele>44.0</ele><time>2026-04-04T11:27:20.999Z</time></trkpt><trkpt lat="45.977453344086854" lon="12.664478274604958"><ele>43.6</ele><time>2026-04-04T11:27:21.999Z</time></trkpt><trkpt lat="45.97741737137226" lon="12.664338874994025"><ele>43.2</ele><time>2026-04-04T11:27:22.999Z</time></trkpt><trkpt lat="45.9773760047642" lon="12.664193948827979"><ele>42.800000000000004</ele><time>2026-04-04T11:27:23.999Z</time></trkpt><trkpt lat="45.97733494510836" lon="12.664042358891228"><ele>42.400000000000006</ele><time>2026-04-04T11:27:24.999Z</time></trkpt><trkpt lat="45.97729551704377" lon="12.663897479540964"><ele>42.0</ele><time>2026-04-04T11:27:25.999Z</time></trkpt><trkpt lat="45.97725583718093" lon="12.663757123018746"><ele>42.0</ele><time>2026-04-04T11:27:26.999Z</time></trkpt><trkpt lat="45.9772180495992" lon="12.663617490514593"><ele>42.0</ele><time>2026-04-04T11:27:27.999Z</time></trkpt><trkpt lat="45.97718250097474" lon="12.663480351535767"><ele>42.0</ele><time>2026-04-04T11:27:28.999Z</time></trkpt><trkpt lat="45.97715057696457" lon="12.663336042719429"><ele>42.0</ele><time>2026-04-04T11:27:29.999Z</time></trkpt><trkpt lat="45.97712769178055" lon="12.66317863533534"><ele>42.0</ele><time>2026-04-04T11:27:30.999Z</time></trkpt><trkpt lat="45.97710446154207" lon="12.663011359822425"><ele>42.0</ele><time>2026-04-04T11:27:31.999Z</time></trkpt><trkpt lat="45.97707897299391" lon="12.662834963044968"><ele>42.0</ele><time>2026-04-04T11:27:32.999Z</time></trkpt><trkpt lat="45.977050798220944" lon="12.662648470114705"><ele>42.0</ele><time>2026-04-04T11:27:33.999Z</time></trkpt><trkpt lat="45.977024196932504" lon="12.66245848569739"><ele>42.0</ele><time>2026-04-04T11:27:34.999Z</time></trkpt><trkpt lat="45.9769994943149" lon="12.66227060203172"><ele>42.0</ele><time>2026-04-04T11:27:35.999Z</time></trkpt><trkpt lat="45.97697869481012" lon="12.662085327944794"><ele>42.0</ele><time>2026-04-04T11:27:36.999Z</time></trkpt><trkpt lat="45.976960030194164" lon="12.661907342600736"><ele>42.0</ele><time>2026-04-04T11:27:37.999Z</time></trkpt><trkpt lat="45.97693733137821" lon="12.661727054130704"><ele>42.0</ele><time>2026-04-04T11:27:38.999Z</time></trkpt><trkpt lat="45.97690780530571" lon="12.661544595421342"><ele>42.0</ele><time>2026-04-04T11:27:39.999Z</time></trkpt><trkpt lat="45.97687505769592" lon="12.66135091748025"><ele>42.0</ele><time>2026-04-04T11:27:40.999Z</time></trkpt><trkpt lat="45.97685581695147" lon="12.661140699987898"><ele>42.0</ele><time>2026-04-04T11:27:41.999Z</time></trkpt><trkpt lat="45.9767948183005" lon="12.660931389805649"><ele>42.0</ele><time>2026-04-04T11:27:42.999Z</time></trkpt><trkpt lat="45.97674800959595" lon="12.660712008752421"><ele>42.0</ele><time>2026-04-04T11:27:43.999Z</time></trkpt><trkpt lat="45.976697071162384" lon="12.66049551692738"><ele>42.0</ele><time>2026-04-04T11:27:44.999Z</time></trkpt><trkpt lat="45.97664438060239" lon="12.660272897425957"><ele>42.0</ele><time>2026-04-04T11:27:45.999Z</time></trkpt><trkpt lat="45.97659380210023" lon="12.660048744659273"><ele>42.0</ele><time>2026-04-04T11:27:46.999Z</time></trkpt><trkpt lat="45.976546461400545" lon="12.659835149325831"><ele>42.0</ele><time>2026-04-04T11:27:47.999Z</time></trkpt><trkpt lat="45.97649804463541" lon="12.659627899452312"><ele>42.0</ele><time>2026-04-04T11:27:48.999Z</time></trkpt><trkpt lat="45.976452411786845" lon="12.659423762494926"><ele>41.75</ele><time>2026-04-04T11:27:49.999Z</time></trkpt><trkpt lat="45.976404853971786" lon="12.65921681175118"><ele>41.5</ele><time>2026-04-04T11:27:50.999Z</time></trkpt><trkpt lat="45.976359514955845" lon="12.659017113706357"><ele>41.25</ele><time>2026-04-04T11:27:51.999Z</time></trkpt><trkpt lat="45.97631598960064" lon="12.658821801498778"><ele>41.0</ele><time>2026-04-04T11:27:52.999Z</time></trkpt><trkpt lat="45.976275641759344" lon="12.658637846160959"><ele>40.599999999999994</ele><time>2026-04-04T11:27:53.999Z</time></trkpt><trkpt lat="45.97624072280133" lon="12.658463515720518"><ele>40.199999999999996</ele><time>2026-04-04T11:27:54.999Z</time></trkpt><trkpt lat="45.97621122411657" lon="12.658307462330336"><ele>39.8</ele><time>2026-04-04T11:27:55.999Z</time></trkpt><trkpt lat="45.97618827523148" lon="12.6581754257034"><ele>39.4</ele><time>2026-04-04T11:27:56.999Z</time></trkpt><trkpt lat="45.976173681962365" lon="12.658072850504299"><ele>39.0</ele><time>2026-04-04T11:27:57.999Z</time></trkpt><trkpt lat="45.97616724315472" lon="12.657981451245726"><ele>39.0</ele><time>2026-04-04T11:27:58.999Z</time></trkpt><trkpt lat="45.97616488136146" lon="12.657889544052521"><ele>39.0</ele><time>2026-04-04T11:27:59.999Z</time></trkpt><trkpt lat="45.976116317564504" lon="12.657712555920629"><ele>39.0</ele><time>2026-04-04T11:28:01.999Z</time></trkpt><trkpt lat="45.97606086754096" lon="12.657623126771451"><ele>39.0</ele><time>2026-04-04T11:28:02.999Z</time></trkpt><trkpt lat="45.97600119174028" lon="12.657517762934777"><ele>39.0</ele><time>2026-04-04T11:28:03.999Z</time></trkpt><trkpt lat="45.975951966055646" lon="12.657384328191204"><ele>39.25</ele><time>2026-04-04T11:28:04.999Z</time></trkpt><trkpt lat="45.975917580614016" lon="12.65724243152903"><ele>39.5</ele><time>2026-04-04T11:28:05.999Z</time></trkpt><trkpt lat="45.975872985518876" lon="12.657096238609176"><ele>39.75</ele><time>2026-04-04T11:28:06.999Z</time></trkpt><trkpt lat="45.975819695693396" lon="12.65694155365634"><ele>40.0</ele><time>2026-04-04T11:28:07.999Z</time></trkpt><trkpt lat="45.97576189578809" lon="12.656788761889915"><ele>40.4</ele><time>2026-04-04T11:28:08.999Z</time></trkpt><trkpt lat="45.97570300920211" lon="12.656643892702062"><ele>40.8</ele><time>2026-04-04T11:28:09.999Z</time></trkpt><trkpt lat="45.9756452224827" lon="12.656510137187116"><ele>41.2</ele><time>2026-04-04T11:28:10.999Z</time></trkpt><trkpt lat="45.9755877711849" lon="12.656378437705738"><ele>41.6</ele><time>2026-04-04T11:28:11.999Z</time></trkpt><trkpt lat="45.97554636396275" lon="12.65626472256319"><ele>42.0</ele><time>2026-04-04T11:28:12.999Z</time></trkpt><trkpt lat="45.97551613614165" lon="12.656160842072904"><ele>41.8</ele><time>2026-04-04T11:28:13.999Z</time></trkpt><trkpt lat="45.97549654212321" lon="12.656063930786047"><ele>41.6</ele><time>2026-04-04T11:28:14.999Z</time></trkpt><trkpt lat="45.975481623698755" lon="12.655970250461419"><ele>41.4</ele><time>2026-04-04T11:28:15.999Z</time></trkpt><trkpt lat="45.97545611528861" lon="12.655799939968327"><ele>41.199999999999996</ele><time>2026-04-04T11:28:17.999Z</time></trkpt><trkpt lat="45.97543757567075" lon="12.655618351250254"><ele>41.0</ele><time>2026-04-04T11:28:19.999Z</time></trkpt><trkpt lat="45.97539104674295" lon="12.655520357722246"><ele>41.0</ele><time>2026-04-04T11:28:20.999Z</time></trkpt><trkpt lat="45.975417588782754" lon="12.65534656031724"><ele>41.0</ele><time>2026-04-04T11:28:21.999Z</time></trkpt><trkpt lat="45.975407693517084" lon="12.65519192970956"><ele>41.0</ele><time>2026-04-04T11:28:22.999Z</time></trkpt><trkpt lat="45.975397698714694" lon="12.655031898218729"><ele>41.0</ele><time>2026-04-04T11:28:23.999Z</time></trkpt><trkpt lat="45.97538591258539" lon="12.65486514742158"><ele>40.25</ele><time>2026-04-04T11:28:24.999Z</time></trkpt><trkpt lat="45.975376090884716" lon="12.654690479636375"><ele>39.5</ele><time>2026-04-04T11:28:25.999Z</time></trkpt><trkpt lat="45.97536350655138" lon="12.654526834166225"><ele>38.75</ele><time>2026-04-04T11:28:26.999Z</time></trkpt><trkpt lat="45.97534884968868" lon="12.654371282059596"><ele>38.0</ele><time>2026-04-04T11:28:27.999Z</time></trkpt><trkpt lat="45.97533217979584" lon="12.654219977008006"><ele>38.0</ele><time>2026-04-04T11:28:28.999Z</time></trkpt><trkpt lat="45.975313420856814" lon="12.654062471771272"><ele>38.0</ele><time>2026-04-04T11:28:29.999Z</time></trkpt><trkpt lat="45.97529261084054" lon="12.653889117859618"><ele>38.0</ele><time>2026-04-04T11:28:30.999Z</time></trkpt><trkpt lat="45.97526600452624" lon="12.653707832320544"><ele>38.0</ele><time>2026-04-04T11:28:31.999Z</time></trkpt><trkpt lat="45.97524093840775" lon="12.653524113920378"><ele>39.0</ele><time>2026-04-04T11:28:32.999Z</time></trkpt><trkpt lat="45.97521283108099" lon="12.653340796264635"><ele>40.0</ele><time>2026-04-04T11:28:33.999Z</time></trkpt><trkpt lat="45.975185038608195" lon="12.653164491843814"><ele>41.0</ele><time>2026-04-04T11:28:34.999Z</time></trkpt><trkpt lat="45.97515592329362" lon="12.652993284617354"><ele>42.0</ele><time>2026-04-04T11:28:35.999Z</time></trkpt><trkpt lat="45.97511931349548" lon="12.652824732021262"><ele>42.25</ele><time>2026-04-04T11:28:36.999Z</time></trkpt><trkpt lat="45.975077053911335" lon="12.652646653215212"><ele>42.5</ele><time>2026-04-04T11:28:37.999Z</time></trkpt><trkpt lat="45.97503034187585" lon="12.65245686925187"><ele>42.75</ele><time>2026-04-04T11:28:38.999Z</time></trkpt><trkpt lat="45.97498405531346" lon="12.652273957764926"><ele>43.0</ele><time>2026-04-04T11:28:39.999Z</time></trkpt><trkpt lat="45.974935226009336" lon="12.652084949054366"><ele>42.75</ele><time>2026-04-04T11:28:40.999Z</time></trkpt><trkpt lat="45.97488615794179" lon="12.65189709165902"><ele>42.5</ele><time>2026-04-04T11:28:41.999Z</time></trkpt><trkpt lat="45.974837597122956" lon="12.651707926657119"><ele>42.25</ele><time>2026-04-04T11:28:42.999Z</time></trkpt><trkpt lat="45.974789129087334" lon="12.65152469800806"><ele>42.0</ele><time>2026-04-04T11:28:43.999Z</time></trkpt><trkpt lat="45.974740422205095" lon="12.651343199143925"><ele>42.0</ele><time>2026-04-04T11:28:44.999Z</time></trkpt><trkpt lat="45.97469449228228" lon="12.651164921982785"><ele>42.0</ele><time>2026-04-04T11:28:45.999Z</time></trkpt><trkpt lat="45.974649268717386" lon="12.65099637410578"><ele>42.0</ele><time>2026-04-04T11:28:46.999Z</time></trkpt><trkpt lat="45.974605960888894" lon="12.650836751466933"><ele>42.0</ele><time>2026-04-04T11:28:47.999Z</time></trkpt><trkpt lat="45.97456116987263" lon="12.65068403411001"><ele>42.2</ele><time>2026-04-04T11:28:48.999Z</time></trkpt><trkpt lat="45.97452154956367" lon="12.65053500772872"><ele>42.400000000000006</ele><time>2026-04-04T11:28:49.999Z</time></trkpt><trkpt lat="45.97448570877749" lon="12.650389400316326"><ele>42.599999999999994</ele><time>2026-04-04T11:28:50.999Z</time></trkpt><trkpt lat="45.9744489067939" lon="12.65024584107848"><ele>42.8</ele><time>2026-04-04T11:28:51.999Z</time></trkpt><trkpt lat="45.97441156056766" lon="12.650103558878484"><ele>43.0</ele><time>2026-04-04T11:28:52.999Z</time></trkpt><trkpt lat="45.974374713888466" lon="12.649960811890045"><ele>43.16666666666667</ele><time>2026-04-04T11:28:53.999Z</time></trkpt><trkpt lat="45.97434357273355" lon="12.649840463174383"><ele>43.333333333333336</ele><time>2026-04-04T11:28:54.999Z</time></trkpt><trkpt lat="45.974320650232826" lon="12.649747948461796"><ele>43.5</ele><time>2026-04-04T11:28:55.999Z</time></trkpt><trkpt lat="45.97429176917007" lon="12.649640218248898"><ele>43.666666666666664</ele><time>2026-04-04T11:28:57.999Z</time></trkpt><trkpt lat="45.9742666791433" lon="12.649543364084503"><ele>43.83333333333333</ele><time>2026-04-04T11:29:01.999Z</time></trkpt><trkpt lat="45.97424339261442" lon="12.649445708058469"><ele>44.0</ele><time>2026-04-04T11:29:03.999Z</time></trkpt><trkpt lat="45.97421314462494" lon="12.649308098995322"><ele>43.83333333333333</ele><time>2026-04-04T11:29:05.999Z</time></trkpt><trkpt lat="45.974182891500426" lon="12.649137207852213"><ele>43.666666666666664</ele><time>2026-04-04T11:29:07.999Z</time></trkpt><trkpt lat="45.974168168977975" lon="12.649041662635367"><ele>43.5</ele><time>2026-04-04T11:29:08.999Z</time></trkpt><trkpt lat="45.97413933466182" lon="12.64895020126789"><ele>43.333333333333336</ele><time>2026-04-04T11:29:09.999Z</time></trkpt><trkpt lat="45.974090906820905" lon="12.648849419484495"><ele>43.16666666666667</ele><time>2026-04-04T11:29:10.999Z</time></trkpt><trkpt lat="45.974032570155025" lon="12.648732248925043"><ele>43.0</ele><time>2026-04-04T11:29:11.999Z</time></trkpt><trkpt lat="45.97397719324274" lon="12.648592429752522"><ele>43.4</ele><time>2026-04-04T11:29:12.999Z</time></trkpt><trkpt lat="45.97393341938861" lon="12.648450808749606"><ele>43.8</ele><time>2026-04-04T11:29:13.999Z</time></trkpt><trkpt lat="45.9738955566177" lon="12.648303261906026"><ele>44.2</ele><time>2026-04-04T11:29:14.999Z</time></trkpt><trkpt lat="45.97385507009855" lon="12.648148689158768"><ele>44.6</ele><time>2026-04-04T11:29:15.999Z</time></trkpt><trkpt lat="45.97381532263812" lon="12.647998145133382"><ele>45.0</ele><time>2026-04-04T11:29:16.999Z</time></trkpt><trkpt lat="45.97377517172595" lon="12.647854113004223"><ele>45.0</ele><time>2026-04-04T11:29:17.999Z</time></trkpt><trkpt lat="45.97374034340132" lon="12.647720908256353"><ele>45.0</ele><time>2026-04-04T11:29:18.999Z</time></trkpt><trkpt lat="45.97370873249573" lon="12.647598373613425"><ele>45.0</ele><time>2026-04-04T11:29:19.999Z</time></trkpt><trkpt lat="45.97368348646235" lon="12.647506030149971"><ele>45.0</ele><time>2026-04-04T11:29:20.999Z</time></trkpt><trkpt lat="45.97366107805507" lon="12.647421336119203"><ele>45.0</ele><time>2026-04-04T11:29:21.999Z</time></trkpt><trkpt lat="45.97363699077565" lon="12.647333714308235"><ele>45.0</ele><time>2026-04-04T11:29:22.999Z</time></trkpt><trkpt lat="45.97361014564412" lon="12.647237773532417"><ele>45.0</ele><time>2026-04-04T11:29:23.999Z</time></trkpt><trkpt lat="45.9735835708649" lon="12.647149949591046"><ele>45.0</ele><time>2026-04-04T11:29:24.999Z</time></trkpt><trkpt lat="45.97355821975284" lon="12.647065299722255"><ele>45.0</ele><time>2026-04-04T11:29:25.999Z</time></trkpt><trkpt lat="45.97353180739423" lon="12.646980348254568"><ele>45.0</ele><time>2026-04-04T11:29:26.999Z</time></trkpt><trkpt lat="45.97350414393312" lon="12.646889647968326"><ele>45.0</ele><time>2026-04-04T11:29:27.999Z</time></trkpt><trkpt lat="45.97347255083396" lon="12.646787325327246"><ele>45.0</ele><time>2026-04-04T11:29:28.999Z</time></trkpt><trkpt lat="45.973440045931916" lon="12.64667983283462"><ele>45.0</ele><time>2026-04-04T11:29:29.999Z</time></trkpt><trkpt lat="45.97340771957163" lon="12.646563816066589"><ele>45.0</ele><time>2026-04-04T11:29:30.999Z</time></trkpt><trkpt lat="45.97337323588054" lon="12.646435811783189"><ele>45.0</ele><time>2026-04-04T11:29:31.999Z</time></trkpt><trkpt lat="45.97333697548446" lon="12.646299899173023"><ele>45.0</ele><time>2026-04-04T11:29:32.999Z</time></trkpt><trkpt lat="45.9732995896123" lon="12.646151654668392"><ele>45.0</ele><time>2026-04-04T11:29:33.999Z</time></trkpt><trkpt lat="45.97325869328094" lon="12.645994957327193"><ele>45.0</ele><time>2026-04-04T11:29:34.999Z</time></trkpt><trkpt lat="45.973214296343905" lon="12.64582973144219"><ele>45.0</ele><time>2026-04-04T11:29:35.999Z</time></trkpt><trkpt lat="45.973162887259846" lon="12.645636200245793"><ele>45.0</ele><time>2026-04-04T11:29:36.999Z</time></trkpt><trkpt lat="45.973113556575896" lon="12.645449125881784"><ele>45.0</ele><time>2026-04-04T11:29:37.999Z</time></trkpt><trkpt lat="45.973063042202156" lon="12.645255420375245"><ele>45.0</ele><time>2026-04-04T11:29:38.999Z</time></trkpt><trkpt lat="45.97301268238064" lon="12.645057803115684"><ele>45.0</ele><time>2026-04-04T11:29:39.999Z</time></trkpt><trkpt lat="45.97296198033065" lon="12.64486306226374"><ele>45.0</ele><time>2026-04-04T11:29:40.999Z</time></trkpt><trkpt lat="45.972910007548926" lon="12.64467346405802"><ele>45.0</ele><time>2026-04-04T11:29:41.999Z</time></trkpt><trkpt lat="45.972861874298374" lon="12.64448302627193"><ele>45.0</ele><time>2026-04-04T11:29:43Z</time></trkpt><trkpt lat="45.9728108114022" lon="12.6442945002245"><ele>45.0</ele><time>2026-04-04T11:29:44Z</time></trkpt><trkpt lat="45.972758761294344" lon="12.644109376525991"><ele>45.0</ele><time>2026-04-04T11:29:45Z</time></trkpt><trkpt lat="45.97270599170089" lon="12.643926742573214"><ele>45.0</ele><time>2026-04-04T11:29:46Z</time></trkpt><trkpt lat="45.972653184056604" lon="12.643743549936952"><ele>45.0</ele><time>2026-04-04T11:29:47Z</time></trkpt><trkpt lat="45.972599036772635" lon="12.643552121675041"><ele>44.666666666666664</ele><time>2026-04-04T11:29:48Z</time></trkpt><trkpt lat="45.97254490660579" lon="12.643356003078056"><ele>44.33333333333333</ele><time>2026-04-04T11:29:49Z</time></trkpt><trkpt lat="45.97249052228853" lon="12.643154501268553"><ele>44.0</ele><time>2026-04-04T11:29:50Z</time></trkpt><trkpt lat="45.97243400340638" lon="12.642949211193434"><ele>43.666666666666664</ele><time>2026-04-04T11:29:51Z</time></trkpt><trkpt lat="45.97237793482165" lon="12.642742316536138"><ele>43.333333333333336</ele><time>2026-04-04T11:29:52Z</time></trkpt><trkpt lat="45.97231974417119" lon="12.642533318056467"><ele>43.0</ele><time>2026-04-04T11:29:53Z</time></trkpt><trkpt lat="45.97226228240472" lon="12.642322529000428"><ele>43.0</ele><time>2026-04-04T11:29:54Z</time></trkpt><trkpt lat="45.97220697378282" lon="12.64211374708906"><ele>43.0</ele><time>2026-04-04T11:29:55Z</time></trkpt><trkpt lat="45.972151412601875" lon="12.641906555482452"><ele>43.0</ele><time>2026-04-04T11:29:56Z</time></trkpt><trkpt lat="45.97209491511672" lon="12.641698134656743"><ele>43.0</ele><time>2026-04-04T11:29:57Z</time></trkpt><trkpt lat="45.97204054279543" lon="12.641493323523761"><ele>43.0</ele><time>2026-04-04T11:29:58Z</time></trkpt><trkpt lat="45.97198862918731" lon="12.641298621124562"><ele>43.0</ele><time>2026-04-04T11:29:59Z</time></trkpt><trkpt lat="45.971939032683416" lon="12.641112241338206"><ele>43.0</ele><time>2026-04-04T11:30:00Z</time></trkpt><trkpt lat="45.97189336502259" lon="12.640940271174511"><ele>42.8</ele><time>2026-04-04T11:30:01Z</time></trkpt><trkpt lat="45.9718505575223" lon="12.640780131814873"><ele>42.599999999999994</ele><time>2026-04-04T11:30:02Z</time></trkpt><trkpt lat="45.9718138549017" lon="12.64063334258019"><ele>42.400000000000006</ele><time>2026-04-04T11:30:03Z</time></trkpt><trkpt lat="45.97178304241763" lon="12.640489885877333"><ele>42.2</ele><time>2026-04-04T11:30:04Z</time></trkpt><trkpt lat="45.97175780899199" lon="12.64033280898903"><ele>42.0</ele><time>2026-04-04T11:30:05Z</time></trkpt><trkpt lat="45.97172513820241" lon="12.640178160068036"><ele>42.0</ele><time>2026-04-04T11:30:06Z</time></trkpt><trkpt lat="45.97167004847644" lon="12.640025918604154"><ele>42.0</ele><time>2026-04-04T11:30:07Z</time></trkpt><trkpt lat="45.97160433931834" lon="12.639853212412865"><ele>42.0</ele><time>2026-04-04T11:30:08Z</time></trkpt><trkpt lat="45.97154479911655" lon="12.639662370906063"><ele>42.0</ele><time>2026-04-04T11:30:09Z</time></trkpt><trkpt lat="45.97148701659138" lon="12.639460550764543"><ele>41.75</ele><time>2026-04-04T11:30:10Z</time></trkpt><trkpt lat="45.97142783375033" lon="12.639262161843039"><ele>41.5</ele><time>2026-04-04T11:30:11Z</time></trkpt><trkpt lat="45.971372535113105" lon="12.63906698370668"><ele>41.25</ele><time>2026-04-04T11:30:12Z</time></trkpt><trkpt lat="45.97131834390962" lon="12.63886962138202"><ele>41.0</ele><time>2026-04-04T11:30:13Z</time></trkpt><trkpt lat="45.971264115887315" lon="12.638667529096708"><ele>41.0</ele><time>2026-04-04T11:30:14Z</time></trkpt><trkpt lat="45.9712104125077" lon="12.638466220874806"><ele>41.0</ele><time>2026-04-04T11:30:15Z</time></trkpt><trkpt lat="45.97115556528854" lon="12.63826839402325"><ele>41.0</ele><time>2026-04-04T11:30:16Z</time></trkpt><trkpt lat="45.971099518645204" lon="12.63806862870488"><ele>41.0</ele><time>2026-04-04T11:30:17Z</time></trkpt><trkpt lat="45.9710450861278" lon="12.63786769204708"><ele>41.666666666666664</ele><time>2026-04-04T11:30:18Z</time></trkpt><trkpt lat="45.97099173295524" lon="12.63766374484309"><ele>42.333333333333336</ele><time>2026-04-04T11:30:19Z</time></trkpt><trkpt lat="45.9709356828743" lon="12.637459540859043"><ele>43.0</ele><time>2026-04-04T11:30:20Z</time></trkpt><trkpt lat="45.97087832066779" lon="12.63724925344072"><ele>43.0</ele><time>2026-04-04T11:30:21Z</time></trkpt><trkpt lat="45.97081991354326" lon="12.637035842644512"><ele>43.0</ele><time>2026-04-04T11:30:22Z</time></trkpt><trkpt lat="45.97076140505447" lon="12.636820665086809"><ele>43.0</ele><time>2026-04-04T11:30:23Z</time></trkpt><trkpt lat="45.97070306598745" lon="12.636606026011213"><ele>43.0</ele><time>2026-04-04T11:30:24Z</time></trkpt><trkpt lat="45.97064437028246" lon="12.636396874792752"><ele>43.0</ele><time>2026-04-04T11:30:25Z</time></trkpt><trkpt lat="45.97058672284419" lon="12.636191567183214"><ele>43.0</ele><time>2026-04-04T11:30:26Z</time></trkpt><trkpt lat="45.9705297298286" lon="12.635988117924107"><ele>42.5</ele><time>2026-04-04T11:30:27Z</time></trkpt><trkpt lat="45.970477533102546" lon="12.635794733537683"><ele>42.0</ele><time>2026-04-04T11:30:28Z</time></trkpt><trkpt lat="45.97043183618126" lon="12.63562277612367"><ele>41.5</ele><time>2026-04-04T11:30:29Z</time></trkpt><trkpt lat="45.97039296634265" lon="12.635480160046109"><ele>41.0</ele><time>2026-04-04T11:30:30Z</time></trkpt><trkpt lat="45.97036397469752" lon="12.635365365723587"><ele>41.0</ele><time>2026-04-04T11:30:31Z</time></trkpt><trkpt lat="45.97033648742533" lon="12.63525963293208"><ele>41.0</ele><time>2026-04-04T11:30:32Z</time></trkpt><trkpt lat="45.97031593077655" lon="12.63517068396936"><ele>41.0</ele><time>2026-04-04T11:30:33Z</time></trkpt><trkpt lat="45.97028133627221" lon="12.63504591805807"><ele>41.0</ele><time>2026-04-04T11:30:35Z</time></trkpt><trkpt lat="45.970253398868074" lon="12.634958649700813"><ele>41.0</ele><time>2026-04-04T11:30:38Z</time></trkpt><trkpt lat="45.97023137779751" lon="12.634866343098103"><ele>41.0</ele><time>2026-04-04T11:31:12Z</time></trkpt><trkpt lat="45.97017487866097" lon="12.63469817142527"><ele>41.0</ele><time>2026-04-04T11:31:14Z</time></trkpt><trkpt lat="45.970147013986214" lon="12.634600204175289"><ele>41.0</ele><time>2026-04-04T11:31:15Z</time></trkpt><trkpt lat="45.970112486015246" lon="12.63448271010209"><ele>41.0</ele><time>2026-04-04T11:31:16Z</time></trkpt><trkpt lat="45.97008684091284" lon="12.634372725381645"><ele>41.0</ele><time>2026-04-04T11:31:17Z</time></trkpt><trkpt lat="45.97005729271553" lon="12.634266402351747"><ele>41.0</ele><time>2026-04-04T11:31:18Z</time></trkpt><trkpt lat="45.970023022965044" lon="12.634137382498553"><ele>41.0</ele><time>2026-04-04T11:31:19Z</time></trkpt><trkpt lat="45.96998210584471" lon="12.633988482979618"><ele>40.25</ele><time>2026-04-04T11:31:20Z</time></trkpt><trkpt lat="45.96994499589928" lon="12.633851255469015"><ele>39.5</ele><time>2026-04-04T11:31:21Z</time></trkpt><trkpt lat="45.96990877211279" lon="12.63370698233739"><ele>38.75</ele><time>2026-04-04T11:31:22Z</time></trkpt><trkpt lat="45.96986765601079" lon="12.633547501984795"><ele>38.0</ele><time>2026-04-04T11:31:23Z</time></trkpt><trkpt lat="45.96982125696379" lon="12.63338073820906"><ele>38.0</ele><time>2026-04-04T11:31:24Z</time></trkpt><trkpt lat="45.969777608220106" lon="12.63322364844159"><ele>38.0</ele><time>2026-04-04T11:31:25Z</time></trkpt><trkpt lat="45.96973777187753" lon="12.633069362299345"><ele>38.0</ele><time>2026-04-04T11:31:26Z</time></trkpt><trkpt lat="45.96969854444684" lon="12.632917735059749"><ele>38.0</ele><time>2026-04-04T11:31:27Z</time></trkpt><trkpt lat="45.96965813343519" lon="12.632767332176996"><ele>38.199999999999996</ele><time>2026-04-04T11:31:28Z</time></trkpt><trkpt lat="45.96961850031276" lon="12.632619221271083"><ele>38.4</ele><time>2026-04-04T11:31:29Z</time></trkpt><trkpt lat="45.96957898745566" lon="12.632472880426178"><ele>38.599999999999994</ele><time>2026-04-04T11:31:30Z</time></trkpt><trkpt lat="45.969538499969325" lon="12.63232521560507"><ele>38.8</ele><time>2026-04-04T11:31:31Z</time></trkpt><trkpt lat="45.96950054056939" lon="12.632183183949385"><ele>39.0</ele><time>2026-04-04T11:31:32Z</time></trkpt><trkpt lat="45.96946369072478" lon="12.632050177936954"><ele>39.0</ele><time>2026-04-04T11:31:33Z</time></trkpt><trkpt lat="45.9694287521163" lon="12.631922875716898"><ele>39.0</ele><time>2026-04-04T11:31:34Z</time></trkpt><trkpt lat="45.96939398522851" lon="12.631798547733082"><ele>39.0</ele><time>2026-04-04T11:31:35Z</time></trkpt><trkpt lat="45.96936045645327" lon="12.631681419918822"><ele>39.0</ele><time>2026-04-04T11:31:36Z</time></trkpt><trkpt lat="45.96932857830332" lon="12.631569089003555"><ele>39.0</ele><time>2026-04-04T11:31:37Z</time></trkpt><trkpt lat="45.96929831662109" lon="12.631461872921268"><ele>39.0</ele><time>2026-04-04T11:31:38Z</time></trkpt><trkpt lat="45.969269962921544" lon="12.631360898874746"><ele>39.0</ele><time>2026-04-04T11:31:39Z</time></trkpt><trkpt lat="45.969242415962405" lon="12.631261438163786"><ele>39.0</ele><time>2026-04-04T11:31:40Z</time></trkpt><trkpt lat="45.96921716235399" lon="12.63116599184531"><ele>39.0</ele><time>2026-04-04T11:31:41Z</time></trkpt><trkpt lat="45.969193128515144" lon="12.631074235948997"><ele>39.0</ele><time>2026-04-04T11:31:42Z</time></trkpt><trkpt lat="45.96915572446866" lon="12.63093104355035"><ele>39.0</ele><time>2026-04-04T11:31:44Z</time></trkpt><trkpt lat="45.96912061875711" lon="12.630824332362847"><ele>39.0</ele><time>2026-04-04T11:31:46Z</time></trkpt><trkpt lat="45.96908641206805" lon="12.630725489672315"><ele>39.0</ele><time>2026-04-04T11:31:48Z</time></trkpt><trkpt lat="45.96906312804324" lon="12.630603173894462"><ele>39.0</ele><time>2026-04-04T11:31:55Z</time></trkpt><trkpt lat="45.96901904216834" lon="12.630414730858629"><ele>39.0</ele><time>2026-04-04T11:31:57Z</time></trkpt><trkpt lat="45.96898771818772" lon="12.63028268659961"><ele>39.0</ele><time>2026-04-04T11:31:58Z</time></trkpt><trkpt lat="45.96894926729835" lon="12.630144834394338"><ele>39.0</ele><time>2026-04-04T11:31:59Z</time></trkpt><trkpt lat="45.96890075429506" lon="12.62998537557118"><ele>38.666666666666664</ele><time>2026-04-04T11:32:00Z</time></trkpt><trkpt lat="45.9688416083022" lon="12.629793940605147"><ele>38.33333333333333</ele><time>2026-04-04T11:32:01Z</time></trkpt><trkpt lat="45.96877527398249" lon="12.629564248126181"><ele>38.0</ele><time>2026-04-04T11:32:02Z</time></trkpt><trkpt lat="45.96870374683187" lon="12.629303447536685"><ele>38.666666666666664</ele><time>2026-04-04T11:32:03Z</time></trkpt><trkpt lat="45.96863882568077" lon="12.629064075476762"><ele>39.333333333333336</ele><time>2026-04-04T11:32:04Z</time></trkpt><trkpt lat="45.968580989197065" lon="12.628826442211041"><ele>40.0</ele><time>2026-04-04T11:32:05Z</time></trkpt><trkpt lat="45.96852100245583" lon="12.628598431275632"><ele>40.0</ele><time>2026-04-04T11:32:06Z</time></trkpt><trkpt lat="45.96846165987314" lon="12.628376629557994"><ele>40.0</ele><time>2026-04-04T11:32:07Z</time></trkpt><trkpt lat="45.96840129947906" lon="12.628159279659375"><ele>40.0</ele><time>2026-04-04T11:32:08Z</time></trkpt><trkpt lat="45.968342728745796" lon="12.62794564027292"><ele>39.66666666666667</ele><time>2026-04-04T11:32:09Z</time></trkpt><trkpt lat="45.96828932281067" lon="12.627733497019992"><ele>39.333333333333336</ele><time>2026-04-04T11:32:10Z</time></trkpt><trkpt lat="45.96825753561514" lon="12.627514065838781"><ele>39.0</ele><time>2026-04-04T11:32:11Z</time></trkpt><trkpt lat="45.96825222296569" lon="12.627296132110123"><ele>39.0</ele><time>2026-04-04T11:32:12Z</time></trkpt><trkpt lat="45.96820841521579" lon="12.627108024779423"><ele>39.0</ele><time>2026-04-04T11:32:13Z</time></trkpt><trkpt lat="45.96816863654418" lon="12.626940205893238"><ele>39.0</ele><time>2026-04-04T11:32:14Z</time></trkpt><trkpt lat="45.96803051404331" lon="12.62650477169214"><ele>38.666666666666664</ele><time>2026-04-04T11:32:15Z</time></trkpt><trkpt lat="45.968086361793645" lon="12.626290691566401"><ele>38.33333333333333</ele><time>2026-04-04T11:32:16Z</time></trkpt><trkpt lat="45.968007281458746" lon="12.626639062036801"><ele>38.0</ele><time>2026-04-04T11:32:17Z</time></trkpt><trkpt lat="45.96798567412962" lon="12.626548591635329"><ele>38.0</ele><time>2026-04-04T11:32:18Z</time></trkpt><trkpt lat="45.9679662319445" lon="12.626430864214766"><ele>38.0</ele><time>2026-04-04T11:32:19Z</time></trkpt><trkpt lat="45.96793840048868" lon="12.626299763850477"><ele>38.0</ele><time>2026-04-04T11:32:20Z</time></trkpt><trkpt lat="45.96789319719222" lon="12.62614524912872"><ele>38.0</ele><time>2026-04-04T11:32:21Z</time></trkpt><trkpt lat="45.96783379328779" lon="12.626012678077018"><ele>38.0</ele><time>2026-04-04T11:32:22Z</time></trkpt><trkpt lat="45.967838968989234" lon="12.625829591810156"><ele>38.25</ele><time>2026-04-04T11:32:23Z</time></trkpt><trkpt lat="45.96784367958988" lon="12.625654052119602"><ele>38.5</ele><time>2026-04-04T11:32:24Z</time></trkpt><trkpt lat="45.967852179669556" lon="12.625471134189606"><ele>38.75</ele><time>2026-04-04T11:32:25Z</time></trkpt><trkpt lat="45.96786120478934" lon="12.625274900166545"><ele>39.0</ele><time>2026-04-04T11:32:26Z</time></trkpt><trkpt lat="45.96786694138474" lon="12.625074133906976"><ele>39.0</ele><time>2026-04-04T11:32:27Z</time></trkpt><trkpt lat="45.96788237403881" lon="12.624875560471084"><ele>39.0</ele><time>2026-04-04T11:32:28Z</time></trkpt><trkpt lat="45.967905530437825" lon="12.62466937561538"><ele>39.0</ele><time>2026-04-04T11:32:29Z</time></trkpt><trkpt lat="45.967918783655335" lon="12.624464415922137"><ele>39.0</ele><time>2026-04-04T11:32:30Z</time></trkpt><trkpt lat="45.967934941294196" lon="12.624258670706215"><ele>38.666666666666664</ele><time>2026-04-04T11:32:31Z</time></trkpt><trkpt lat="45.96794636384619" lon="12.624037105317765"><ele>38.33333333333333</ele><time>2026-04-04T11:32:32Z</time></trkpt><trkpt lat="45.967964695667604" lon="12.623813829627224"><ele>38.0</ele><time>2026-04-04T11:32:33Z</time></trkpt><trkpt lat="45.96799056629082" lon="12.623564996533668"><ele>38.666666666666664</ele><time>2026-04-04T11:32:34Z</time></trkpt><trkpt lat="45.968014698364115" lon="12.623283398424533"><ele>39.333333333333336</ele><time>2026-04-04T11:32:35Z</time></trkpt><trkpt lat="45.96803263985158" lon="12.622989530625345"><ele>40.0</ele><time>2026-04-04T11:32:36Z</time></trkpt><trkpt lat="45.968055382028304" lon="12.62266930813641"><ele>40.0</ele><time>2026-04-04T11:32:37Z</time></trkpt><trkpt lat="45.9680891739829" lon="12.622317805438884"><ele>40.0</ele><time>2026-04-04T11:32:38Z</time></trkpt><trkpt lat="45.96811278798216" lon="12.62193972187065"><ele>40.0</ele><time>2026-04-04T11:32:39Z</time></trkpt><trkpt lat="45.96813532119565" lon="12.621621633896545"><ele>40.0</ele><time>2026-04-04T11:32:40Z</time></trkpt><trkpt lat="45.96815455888718" lon="12.62132416684269"><ele>40.0</ele><time>2026-04-04T11:32:41Z</time></trkpt><trkpt lat="45.968180952664596" lon="12.621034408223634"><ele>40.333333333333336</ele><time>2026-04-04T11:32:42Z</time></trkpt><trkpt lat="45.968199088808475" lon="12.62075286974258"><ele>40.666666666666664</ele><time>2026-04-04T11:32:43Z</time></trkpt><trkpt lat="45.96821956309619" lon="12.620469941851502"><ele>41.0</ele><time>2026-04-04T11:32:44Z</time></trkpt><trkpt lat="45.96824207509088" lon="12.620191296960739"><ele>41.0</ele><time>2026-04-04T11:32:45Z</time></trkpt><trkpt lat="45.96826255610599" lon="12.61990778137872"><ele>41.0</ele><time>2026-04-04T11:32:46Z</time></trkpt><trkpt lat="45.96828245759683" lon="12.619626313799236"><ele>41.0</ele><time>2026-04-04T11:32:47Z</time></trkpt><trkpt lat="45.96830566279667" lon="12.619340485116894"><ele>40.33333333333333</ele><time>2026-04-04T11:32:48Z</time></trkpt><trkpt lat="45.96832884667894" lon="12.619052175061613"><ele>39.666666666666664</ele><time>2026-04-04T11:32:49Z</time></trkpt><trkpt lat="45.96835000663101" lon="12.618765133612907"><ele>39.0</ele><time>2026-04-04T11:32:50Z</time></trkpt><trkpt lat="45.968371965619" lon="12.618477916556962"><ele>39.0</ele><time>2026-04-04T11:32:51Z</time></trkpt><trkpt lat="45.968392813361056" lon="12.61819125865032"><ele>39.0</ele><time>2026-04-04T11:32:52Z</time></trkpt><trkpt lat="45.96841256421264" lon="12.617909893460428"><ele>39.0</ele><time>2026-04-04T11:32:53Z</time></trkpt><trkpt lat="45.968432677391256" lon="12.617630184574677"><ele>39.333333333333336</ele><time>2026-04-04T11:32:54Z</time></trkpt><trkpt lat="45.9684534705843" lon="12.617352682562773"><ele>39.66666666666667</ele><time>2026-04-04T11:32:55Z</time></trkpt><trkpt lat="45.96848067683054" lon="12.61707294095597"><ele>40.0</ele><time>2026-04-04T11:32:56Z</time></trkpt><trkpt lat="45.96849957987294" lon="12.616788390885793"><ele>40.0</ele><time>2026-04-04T11:32:57Z</time></trkpt><trkpt lat="45.968519436635006" lon="12.616502853576756"><ele>40.0</ele><time>2026-04-04T11:32:58Z</time></trkpt><trkpt lat="45.96853373221116" lon="12.616214977732119"><ele>40.0</ele><time>2026-04-04T11:32:59Z</time></trkpt><trkpt lat="45.96855111745435" lon="12.615944770113327"><ele>40.333333333333336</ele><time>2026-04-04T11:33:00Z</time></trkpt><trkpt lat="45.96857643194271" lon="12.615681698256415"><ele>40.666666666666664</ele><time>2026-04-04T11:33:01Z</time></trkpt><trkpt lat="45.96859976375839" lon="12.615419957087903"><ele>41.0</ele><time>2026-04-04T11:33:02Z</time></trkpt><trkpt lat="45.968618509022285" lon="12.615174718244011"><ele>41.0</ele><time>2026-04-04T11:33:03Z</time></trkpt><trkpt lat="45.96863355783456" lon="12.614939924322309"><ele>41.0</ele><time>2026-04-04T11:33:04Z</time></trkpt><trkpt lat="45.96865420696095" lon="12.614719379235705"><ele>41.0</ele><time>2026-04-04T11:33:05Z</time></trkpt><trkpt lat="45.968675592458595" lon="12.614512401391812"><ele>41.199999999999996</ele><time>2026-04-04T11:33:06Z</time></trkpt><trkpt lat="45.96869184160949" lon="12.614329721240322"><ele>41.4</ele><time>2026-04-04T11:33:07Z</time></trkpt><trkpt lat="45.96870650733891" lon="12.614175167340344"><ele>41.6</ele><time>2026-04-04T11:33:08Z</time></trkpt><trkpt lat="45.968716599075854" lon="12.614041662474406"><ele>41.8</ele><time>2026-04-04T11:33:09Z</time></trkpt><trkpt lat="45.96873666406921" lon="12.613928272872265"><ele>42.0</ele><time>2026-04-04T11:33:10Z</time></trkpt><trkpt lat="45.96877949918522" lon="12.613834642328436"><ele>42.0</ele><time>2026-04-04T11:33:11Z</time></trkpt><trkpt lat="45.968831013841914" lon="12.613748090835355"><ele>42.0</ele><time>2026-04-04T11:33:12Z</time></trkpt><trkpt lat="45.96887662066483" lon="12.613661987548264"><ele>42.0</ele><time>2026-04-04T11:33:13Z</time></trkpt><trkpt lat="45.968898882142305" lon="12.61356898083207"><ele>42.0</ele><time>2026-04-04T11:33:14Z</time></trkpt><trkpt lat="45.96888165040949" lon="12.613460704380678"><ele>42.0</ele><time>2026-04-04T11:33:15Z</time></trkpt><trkpt lat="45.968840418410046" lon="12.613348540825271"><ele>42.0</ele><time>2026-04-04T11:33:16Z</time></trkpt><trkpt lat="45.96879985005583" lon="12.613216115794911"><ele>42.0</ele><time>2026-04-04T11:33:17Z</time></trkpt><trkpt lat="45.968780149187765" lon="12.613060580007533"><ele>42.0</ele><time>2026-04-04T11:33:18Z</time></trkpt><trkpt lat="45.96878448190927" lon="12.612887109724712"><ele>42.0</ele><time>2026-04-04T11:33:19Z</time></trkpt><trkpt lat="45.968807845440075" lon="12.612701202715757"><ele>42.0</ele><time>2026-04-04T11:33:20Z</time></trkpt><trkpt lat="45.96883229730662" lon="12.612518405832228"><ele>42.0</ele><time>2026-04-04T11:33:21Z</time></trkpt><trkpt lat="45.96885193576949" lon="12.612353015472053"><ele>42.0</ele><time>2026-04-04T11:33:22Z</time></trkpt><trkpt lat="45.968865332097714" lon="12.61220438077525"><ele>42.0</ele><time>2026-04-04T11:33:23Z</time></trkpt><trkpt lat="45.968875865492855" lon="12.612089427022815"><ele>42.0</ele><time>2026-04-04T11:33:24Z</time></trkpt><trkpt lat="45.968886909703265" lon="12.611990105499347"><ele>42.0</ele><time>2026-04-04T11:33:25Z</time></trkpt><trkpt lat="45.96890066438559" lon="12.611897891074554"><ele>42.0</ele><time>2026-04-04T11:33:26Z</time></trkpt><trkpt lat="45.968920119724295" lon="12.61180812846396"><ele>42.2</ele><time>2026-04-04T11:33:27Z</time></trkpt><trkpt lat="45.968950120461244" lon="12.611710408366983"><ele>42.400000000000006</ele><time>2026-04-04T11:33:28Z</time></trkpt><trkpt lat="45.96898737016335" lon="12.611617376604311"><ele>42.599999999999994</ele><time>2026-04-04T11:33:29Z</time></trkpt><trkpt lat="45.96897696835771" lon="12.611429045955811"><ele>42.8</ele><time>2026-04-04T11:33:31Z</time></trkpt><trkpt lat="45.96893537902627" lon="12.611325515325916"><ele>43.0</ele><time>2026-04-04T11:33:32Z</time></trkpt><trkpt lat="45.96887077976786" lon="12.61122748585731"><ele>42.75</ele><time>2026-04-04T11:33:33Z</time></trkpt><trkpt lat="45.968893842311346" lon="12.6110495332336"><ele>42.5</ele><time>2026-04-04T11:33:34Z</time></trkpt><trkpt lat="45.968914012934974" lon="12.610878480871065"><ele>42.25</ele><time>2026-04-04T11:33:35Z</time></trkpt><trkpt lat="45.96893229454875" lon="12.610676720971453"><ele>42.0</ele><time>2026-04-04T11:33:36Z</time></trkpt><trkpt lat="45.96895013270389" lon="12.610443661513"><ele>41.666666666666664</ele><time>2026-04-04T11:33:37Z</time></trkpt><trkpt lat="45.968968747211996" lon="12.610186283693892"><ele>41.33333333333333</ele><time>2026-04-04T11:33:38Z</time></trkpt><trkpt lat="45.9689846430194" lon="12.609942051062347"><ele>41.0</ele><time>2026-04-04T11:33:39Z</time></trkpt><trkpt lat="45.9690014118089" lon="12.609689594753409"><ele>41.0</ele><time>2026-04-04T11:33:40Z</time></trkpt><trkpt lat="45.96902215831201" lon="12.609435515150743"><ele>41.0</ele><time>2026-04-04T11:33:41Z</time></trkpt><trkpt lat="45.969040864627786" lon="12.609188520789237"><ele>41.0</ele><time>2026-04-04T11:33:42Z</time></trkpt><trkpt lat="45.969060765241586" lon="12.608944290747385"><ele>41.0</ele><time>2026-04-04T11:33:43Z</time></trkpt><trkpt lat="45.96907914064651" lon="12.608705591591027"><ele>41.0</ele><time>2026-04-04T11:33:44.001Z</time></trkpt><trkpt lat="45.969097126605604" lon="12.608467793643582"><ele>41.0</ele><time>2026-04-04T11:33:45.001Z</time></trkpt><trkpt lat="45.96911254574048" lon="12.608231350053558"><ele>41.0</ele><time>2026-04-04T11:33:46.001Z</time></trkpt><trkpt lat="45.96913080939206" lon="12.607996948791733"><ele>41.0</ele><time>2026-04-04T11:33:47.001Z</time></trkpt><trkpt lat="45.96914910679182" lon="12.607759536538204"><ele>41.0</ele><time>2026-04-04T11:33:48.001Z</time></trkpt><trkpt lat="45.9691640800939" lon="12.607517404581449"><ele>41.0</ele><time>2026-04-04T11:33:49.001Z</time></trkpt><trkpt lat="45.969181885878335" lon="12.607269691756008"><ele>41.0</ele><time>2026-04-04T11:33:50.001Z</time></trkpt><trkpt lat="45.969201550046485" lon="12.6070202155613"><ele>41.0</ele><time>2026-04-04T11:33:51.001Z</time></trkpt><trkpt lat="45.96922082448944" lon="12.606778310095375"><ele>41.0</ele><time>2026-04-04T11:33:52.001Z</time></trkpt><trkpt lat="45.96924168748705" lon="12.606542279045932"><ele>41.0</ele><time>2026-04-04T11:33:53.001Z</time></trkpt><trkpt lat="45.96926039873772" lon="12.606314557282222"><ele>41.0</ele><time>2026-04-04T11:33:54.001Z</time></trkpt><trkpt lat="45.969278373961686" lon="12.606091047757388"><ele>41.0</ele><time>2026-04-04T11:33:55.001Z</time></trkpt><trkpt lat="45.969291618885414" lon="12.605871417949073"><ele>41.0</ele><time>2026-04-04T11:33:56.001Z</time></trkpt><trkpt lat="45.96930826745263" lon="12.605664699335664"><ele>41.0</ele><time>2026-04-04T11:33:57.001Z</time></trkpt><trkpt lat="45.96931936821061" lon="12.605461686501648"><ele>41.0</ele><time>2026-04-04T11:33:58.001Z</time></trkpt><trkpt lat="45.969333664161084" lon="12.605263249123398"><ele>41.5</ele><time>2026-04-04T11:33:59.001Z</time></trkpt><trkpt lat="45.96934949098634" lon="12.605070069792037"><ele>42.0</ele><time>2026-04-04T11:34:00.001Z</time></trkpt><trkpt lat="45.96936773138205" lon="12.604887955457174"><ele>42.5</ele><time>2026-04-04T11:34:01.001Z</time></trkpt><trkpt lat="45.96938548600951" lon="12.604721049988568"><ele>43.0</ele><time>2026-04-04T11:34:02.001Z</time></trkpt><trkpt lat="45.96939953513363" lon="12.604563429148284"><ele>43.0</ele><time>2026-04-04T11:34:03Z</time></trkpt><trkpt lat="45.969413134729315" lon="12.604411516161626"><ele>43.0</ele><time>2026-04-04T11:34:04Z</time></trkpt><trkpt lat="45.96942253278104" lon="12.604271051609505"><ele>43.0</ele><time>2026-04-04T11:34:05Z</time></trkpt><trkpt lat="45.96943161872765" lon="12.604143868508553"><ele>43.0</ele><time>2026-04-04T11:34:06Z</time></trkpt><trkpt lat="45.96943864167059" lon="12.604039579837238"><ele>43.0</ele><time>2026-04-04T11:34:07Z</time></trkpt><trkpt lat="45.96944669797249" lon="12.603879084892789"><ele>43.0</ele><time>2026-04-04T11:34:09Z</time></trkpt><trkpt lat="45.9694541803678" lon="12.603783596448368"><ele>43.0</ele><time>2026-04-04T11:34:11Z</time></trkpt><trkpt lat="45.969464089262225" lon="12.603682023062253"><ele>43.0</ele><time>2026-04-04T11:34:15Z</time></trkpt><trkpt lat="45.96946378108046" lon="12.60352661538173"><ele>43.0</ele><time>2026-04-04T11:34:34Z</time></trkpt><trkpt lat="45.96946968368864" lon="12.603417426648893"><ele>43.0</ele><time>2026-04-04T11:34:35Z</time></trkpt><trkpt lat="45.9694797112876" lon="12.603300987020821"><ele>43.0</ele><time>2026-04-04T11:34:36Z</time></trkpt><trkpt lat="45.969487082410275" lon="12.603164711263343"><ele>42.5</ele><time>2026-04-04T11:34:37Z</time></trkpt><trkpt lat="45.96949677795919" lon="12.602995904786953"><ele>42.0</ele><time>2026-04-04T11:34:38Z</time></trkpt><trkpt lat="45.96950753134749" lon="12.602815349447033"><ele>41.5</ele><time>2026-04-04T11:34:39Z</time></trkpt><trkpt lat="45.969535809475914" lon="12.602621294807335"><ele>41.0</ele><time>2026-04-04T11:34:40Z</time></trkpt><trkpt lat="45.96955323014087" lon="12.602390432806285"><ele>41.0</ele><time>2026-04-04T11:34:41Z</time></trkpt><trkpt lat="45.969571774356844" lon="12.602130441001144"><ele>41.0</ele><time>2026-04-04T11:34:42Z</time></trkpt><trkpt lat="45.969582732695045" lon="12.601837980519768"><ele>41.0</ele><time>2026-04-04T11:34:43Z</time></trkpt><trkpt lat="45.96960797184224" lon="12.601526142810552"><ele>41.33333333333333</ele><time>2026-04-04T11:34:44Z</time></trkpt><trkpt lat="45.96962926841478" lon="12.601230675157575"><ele>41.666666666666664</ele><time>2026-04-04T11:34:45Z</time></trkpt><trkpt lat="45.9696529250775" lon="12.600932361618442"><ele>42.0</ele><time>2026-04-04T11:34:46Z</time></trkpt><trkpt lat="45.96967900677554" lon="12.600626033439402"><ele>42.0</ele><time>2026-04-04T11:34:47Z</time></trkpt><trkpt lat="45.96970293756662" lon="12.60032163765425"><ele>42.0</ele><time>2026-04-04T11:34:48Z</time></trkpt><trkpt lat="45.969726758656506" lon="12.600012553842236"><ele>42.0</ele><time>2026-04-04T11:34:49Z</time></trkpt><trkpt lat="45.96975453643963" lon="12.599703229992125"><ele>42.0</ele><time>2026-04-04T11:34:50Z</time></trkpt><trkpt lat="45.969780582362496" lon="12.599376757211475"><ele>42.0</ele><time>2026-04-04T11:34:51Z</time></trkpt><trkpt lat="45.96980465638968" lon="12.599027061261365"><ele>42.0</ele><time>2026-04-04T11:34:52Z</time></trkpt><trkpt lat="45.96982921233339" lon="12.598684840391863"><ele>42.0</ele><time>2026-04-04T11:34:53Z</time></trkpt><trkpt lat="45.9698540980339" lon="12.598351771194768"><ele>42.0</ele><time>2026-04-04T11:34:54Z</time></trkpt><trkpt lat="45.96988083158655" lon="12.598016263110676"><ele>42.0</ele><time>2026-04-04T11:34:55Z</time></trkpt><trkpt lat="45.96990591990485" lon="12.597677777230972"><ele>42.0</ele><time>2026-04-04T11:34:56Z</time></trkpt><trkpt lat="45.96992815406357" lon="12.597341899245396"><ele>42.0</ele><time>2026-04-04T11:34:57Z</time></trkpt><trkpt lat="45.9699513463546" lon="12.597003717806114"><ele>41.5</ele><time>2026-04-04T11:34:58Z</time></trkpt><trkpt lat="45.96997337559603" lon="12.596670215648622"><ele>41.0</ele><time>2026-04-04T11:34:59Z</time></trkpt><trkpt lat="45.96999897086189" lon="12.596354564718027"><ele>41.0</ele><time>2026-04-04T11:35:00Z</time></trkpt><trkpt lat="45.970024372885106" lon="12.596054718354443"><ele>41.0</ele><time>2026-04-04T11:35:01Z</time></trkpt><trkpt lat="45.97005084621185" lon="12.595773562459776"><ele>41.0</ele><time>2026-04-04T11:35:02Z</time></trkpt><trkpt lat="45.97007977231166" lon="12.595502061088418"><ele>41.0</ele><time>2026-04-04T11:35:03Z</time></trkpt><trkpt lat="45.97010972419262" lon="12.595227229105916"><ele>41.0</ele><time>2026-04-04T11:35:04Z</time></trkpt><trkpt lat="45.97013858409496" lon="12.594956014224618"><ele>41.0</ele><time>2026-04-04T11:35:05Z</time></trkpt><trkpt lat="45.97016339850714" lon="12.594687079433589"><ele>41.0</ele><time>2026-04-04T11:35:06Z</time></trkpt><trkpt lat="45.97016393380457" lon="12.594423710070759"><ele>41.0</ele><time>2026-04-04T11:35:07Z</time></trkpt><trkpt lat="45.97017043765107" lon="12.594167822996493"><ele>41.0</ele><time>2026-04-04T11:35:08Z</time></trkpt><trkpt lat="45.97018608003966" lon="12.593905089367015"><ele>41.0</ele><time>2026-04-04T11:35:09Z</time></trkpt><trkpt lat="45.97020180030926" lon="12.593643709384144"><ele>41.0</ele><time>2026-04-04T11:35:10Z</time></trkpt><trkpt lat="45.970220692415566" lon="12.59337049773931"><ele>41.0</ele><time>2026-04-04T11:35:11Z</time></trkpt><trkpt lat="45.97023741688344" lon="12.59308801499249"><ele>41.666666666666664</ele><time>2026-04-04T11:35:12Z</time></trkpt><trkpt lat="45.970259894799" lon="12.592781113780475"><ele>42.333333333333336</ele><time>2026-04-04T11:35:13Z</time></trkpt><trkpt lat="45.97027949360976" lon="12.592464236595255"><ele>43.0</ele><time>2026-04-04T11:35:14Z</time></trkpt><trkpt lat="45.970306301635446" lon="12.592137809947316"><ele>43.0</ele><time>2026-04-04T11:35:15Z</time></trkpt><trkpt lat="45.970330194341585" lon="12.591803238562724"><ele>43.0</ele><time>2026-04-04T11:35:16Z</time></trkpt><trkpt lat="45.97036862978405" lon="12.591466746647654"><ele>43.5</ele><time>2026-04-04T11:35:17Z</time></trkpt><trkpt lat="45.97036984028217" lon="12.591119752103085"><ele>44.0</ele><time>2026-04-04T11:35:18Z</time></trkpt><trkpt lat="45.97038994508402" lon="12.59077757626943"><ele>44.0</ele><time>2026-04-04T11:35:19Z</time></trkpt><trkpt lat="45.970428453247806" lon="12.59044885685995"><ele>44.0</ele><time>2026-04-04T11:35:20Z</time></trkpt><trkpt lat="45.970462031050246" lon="12.59011750127603"><ele>45.0</ele><time>2026-04-04T11:35:21Z</time></trkpt><trkpt lat="45.970490962760714" lon="12.58978160409485"><ele>46.0</ele><time>2026-04-04T11:35:22Z</time></trkpt><trkpt lat="45.970517349980895" lon="12.589446436388378"><ele>46.0</ele><time>2026-04-04T11:35:23Z</time></trkpt><trkpt lat="45.97054309675998" lon="12.589112625075275"><ele>46.0</ele><time>2026-04-04T11:35:24Z</time></trkpt><trkpt lat="45.970568910803664" lon="12.588779946676096"><ele>45.5</ele><time>2026-04-04T11:35:25Z</time></trkpt><trkpt lat="45.97059587852101" lon="12.588446442970632"><ele>45.0</ele><time>2026-04-04T11:35:26Z</time></trkpt><trkpt lat="45.970623879506356" lon="12.588115514687356"><ele>44.5</ele><time>2026-04-04T11:35:27Z</time></trkpt><trkpt lat="45.97064816817191" lon="12.587783784915807"><ele>44.0</ele><time>2026-04-04T11:35:28Z</time></trkpt><trkpt lat="45.97067410016851" lon="12.587453436062068"><ele>44.0</ele><time>2026-04-04T11:35:29Z</time></trkpt><trkpt lat="45.97070063150892" lon="12.587127674385645"><ele>44.0</ele><time>2026-04-04T11:35:30Z</time></trkpt><trkpt lat="45.97072384482362" lon="12.586807465281916"><ele>42.666666666666664</ele><time>2026-04-04T11:35:31Z</time></trkpt><trkpt lat="45.97074841227123" lon="12.586491498212329"><ele>41.333333333333336</ele><time>2026-04-04T11:35:32Z</time></trkpt><trkpt lat="45.97077066710398" lon="12.58617700608017"><ele>40.0</ele><time>2026-04-04T11:35:33Z</time></trkpt><trkpt lat="45.97079235895591" lon="12.585863393509525"><ele>40.333333333333336</ele><time>2026-04-04T11:35:34Z</time></trkpt><trkpt lat="45.97081714360742" lon="12.58555016784983"><ele>40.666666666666664</ele><time>2026-04-04T11:35:35Z</time></trkpt><trkpt lat="45.97084262935999" lon="12.585236357027155"><ele>41.0</ele><time>2026-04-04T11:35:36Z</time></trkpt><trkpt lat="45.97086631151164" lon="12.584921349617254"><ele>41.0</ele><time>2026-04-04T11:35:37Z</time></trkpt><trkpt lat="45.97088730006753" lon="12.584602710004745"><ele>41.0</ele><time>2026-04-04T11:35:38Z</time></trkpt><trkpt lat="45.97090894482978" lon="12.584285509814437"><ele>41.0</ele><time>2026-04-04T11:35:39Z</time></trkpt><trkpt lat="45.97093064737508" lon="12.583971920715898"><ele>40.666666666666664</ele><time>2026-04-04T11:35:40Z</time></trkpt><trkpt lat="45.97095021926137" lon="12.58366722175169"><ele>40.333333333333336</ele><time>2026-04-04T11:35:41Z</time></trkpt><trkpt lat="45.970971763469414" lon="12.583372484182203"><ele>40.0</ele><time>2026-04-04T11:35:42Z</time></trkpt><trkpt lat="45.970993841718226" lon="12.583081776599721"><ele>40.333333333333336</ele><time>2026-04-04T11:35:43Z</time></trkpt><trkpt lat="45.971015932137014" lon="12.582795306629507"><ele>40.666666666666664</ele><time>2026-04-04T11:35:44Z</time></trkpt><trkpt lat="45.97103663611299" lon="12.582515841116633"><ele>41.0</ele><time>2026-04-04T11:35:45Z</time></trkpt><trkpt lat="45.97105910642863" lon="12.582236600616369"><ele>41.0</ele><time>2026-04-04T11:35:46Z</time></trkpt><trkpt lat="45.971081057274" lon="12.581958812511914"><ele>41.0</ele><time>2026-04-04T11:35:47Z</time></trkpt><trkpt lat="45.97110353996592" lon="12.581677941326847"><ele>41.0</ele><time>2026-04-04T11:35:48Z</time></trkpt><trkpt lat="45.97112461766672" lon="12.581394352622848"><ele>41.0</ele><time>2026-04-04T11:35:49Z</time></trkpt><trkpt lat="45.97114133078023" lon="12.581114452668006"><ele>41.0</ele><time>2026-04-04T11:35:50.001Z</time></trkpt><trkpt lat="45.97116005137648" lon="12.58083710153354"><ele>41.0</ele><time>2026-04-04T11:35:51.001Z</time></trkpt><trkpt lat="45.97117628701755" lon="12.580565772776758"><ele>40.666666666666664</ele><time>2026-04-04T11:35:52.001Z</time></trkpt><trkpt lat="45.97119204001739" lon="12.580307959152266"><ele>40.333333333333336</ele><time>2026-04-04T11:35:53.001Z</time></trkpt><trkpt lat="45.97121040522236" lon="12.580062973583015"><ele>40.0</ele><time>2026-04-04T11:35:54.001Z</time></trkpt><trkpt lat="45.971233466761916" lon="12.579816091132399"><ele>40.0</ele><time>2026-04-04T11:35:55.001Z</time></trkpt><trkpt lat="45.971254090913135" lon="12.579570487535118"><ele>40.0</ele><time>2026-04-04T11:35:56.001Z</time></trkpt><trkpt lat="45.97127362904585" lon="12.579330226362167"><ele>40.0</ele><time>2026-04-04T11:35:57.001Z</time></trkpt><trkpt lat="45.97129087633663" lon="12.579094402239717"><ele>39.66666666666667</ele><time>2026-04-04T11:35:58Z</time></trkpt><trkpt lat="45.971307465037484" lon="12.578866535856502"><ele>39.333333333333336</ele><time>2026-04-04T11:35:59Z</time></trkpt><trkpt lat="45.971321937043086" lon="12.578651819946687"><ele>39.0</ele><time>2026-04-04T11:36:00Z</time></trkpt><trkpt lat="45.971341317610275" lon="12.578451119684857"><ele>39.333333333333336</ele><time>2026-04-04T11:36:01Z</time></trkpt><trkpt lat="45.971365962031385" lon="12.578244480507083"><ele>39.66666666666667</ele><time>2026-04-04T11:36:02Z</time></trkpt><trkpt lat="45.97138918662602" lon="12.578024075082885"><ele>40.0</ele><time>2026-04-04T11:36:03Z</time></trkpt><trkpt lat="45.971412099241064" lon="12.577791547892586"><ele>40.0</ele><time>2026-04-04T11:36:04Z</time></trkpt><trkpt lat="45.971428718463514" lon="12.577548124295017"><ele>40.0</ele><time>2026-04-04T11:36:05Z</time></trkpt><trkpt lat="45.97144755157996" lon="12.57730088476331"><ele>40.0</ele><time>2026-04-04T11:36:06Z</time></trkpt><trkpt lat="45.97146427227099" lon="12.577057339870473"><ele>39.66666666666667</ele><time>2026-04-04T11:36:07Z</time></trkpt><trkpt lat="45.97148009265482" lon="12.576813497025482"><ele>39.333333333333336</ele><time>2026-04-04T11:36:08Z</time></trkpt><trkpt lat="45.97149586451531" lon="12.576566494093957"><ele>39.0</ele><time>2026-04-04T11:36:09Z</time></trkpt><trkpt lat="45.97151218476866" lon="12.57631563345031"><ele>39.666666666666664</ele><time>2026-04-04T11:36:10Z</time></trkpt><trkpt lat="45.97153026185652" lon="12.57606121898938"><ele>40.33333333333333</ele><time>2026-04-04T11:36:11Z</time></trkpt><trkpt lat="45.971548320356206" lon="12.575806375075624"><ele>41.0</ele><time>2026-04-04T11:36:12Z</time></trkpt><trkpt lat="45.97156820399872" lon="12.575547224324408"><ele>40.666666666666664</ele><time>2026-04-04T11:36:13Z</time></trkpt><trkpt lat="45.97158762051692" lon="12.57528188586447"><ele>40.333333333333336</ele><time>2026-04-04T11:36:14Z</time></trkpt><trkpt lat="45.97160808213475" lon="12.575014071178517"><ele>40.0</ele><time>2026-04-04T11:36:15Z</time></trkpt><trkpt lat="45.97162648329546" lon="12.574747369708042"><ele>40.0</ele><time>2026-04-04T11:36:16Z</time></trkpt><trkpt lat="45.97164217233814" lon="12.574488781585327"><ele>40.0</ele><time>2026-04-04T11:36:17Z</time></trkpt><trkpt lat="45.971660833167384" lon="12.574238505670332"><ele>40.0</ele><time>2026-04-04T11:36:18Z</time></trkpt><trkpt lat="45.9716767536445" lon="12.573994736457253"><ele>39.333333333333336</ele><time>2026-04-04T11:36:19Z</time></trkpt><trkpt lat="45.97169443525659" lon="12.573759018018315"><ele>38.666666666666664</ele><time>2026-04-04T11:36:20Z</time></trkpt><trkpt lat="45.97171295221174" lon="12.57352767024262"><ele>38.0</ele><time>2026-04-04T11:36:21Z</time></trkpt><trkpt lat="45.97172951193077" lon="12.573306008752937"><ele>38.0</ele><time>2026-04-04T11:36:22Z</time></trkpt><trkpt lat="45.971745125106466" lon="12.573094952828441"><ele>38.0</ele><time>2026-04-04T11:36:23Z</time></trkpt><trkpt lat="45.971758659505504" lon="12.572893767546534"><ele>38.0</ele><time>2026-04-04T11:36:24Z</time></trkpt><trkpt lat="45.97177180346983" lon="12.572708330607755"><ele>38.0</ele><time>2026-04-04T11:36:25Z</time></trkpt><trkpt lat="45.97178606275091" lon="12.57254005827961"><ele>38.5</ele><time>2026-04-04T11:36:26Z</time></trkpt><trkpt lat="45.97179674559776" lon="12.572390186968732"><ele>39.0</ele><time>2026-04-04T11:36:27Z</time></trkpt><trkpt lat="45.97180448806982" lon="12.572264974704611"><ele>39.5</ele><time>2026-04-04T11:36:28Z</time></trkpt><trkpt lat="45.97181292885693" lon="12.57216714897415"><ele>40.0</ele><time>2026-04-04T11:36:29Z</time></trkpt><trkpt lat="45.9718255694356" lon="12.57203819793752"><ele>40.5</ele><time>2026-04-04T11:36:31Z</time></trkpt><trkpt lat="45.971829145428735" lon="12.571929798784948"><ele>41.0</ele><time>2026-04-04T11:36:33Z</time></trkpt><trkpt lat="45.971833254676326" lon="12.571817940796489"><ele>41.0</ele><time>2026-04-04T11:36:35Z</time></trkpt><trkpt lat="45.97184702211228" lon="12.57170053923077"><ele>41.0</ele><time>2026-04-04T11:36:37Z</time></trkpt><trkpt lat="45.97186192426285" lon="12.571479796002835"><ele>41.0</ele><time>2026-04-04T11:36:39Z</time></trkpt><trkpt lat="45.971876110494584" lon="12.57131312995287"><ele>41.0</ele><time>2026-04-04T11:36:40Z</time></trkpt><trkpt lat="45.97189475876202" lon="12.571112451166504"><ele>41.0</ele><time>2026-04-04T11:36:41Z</time></trkpt><trkpt lat="45.97190654790032" lon="12.570918074964542"><ele>41.0</ele><time>2026-04-04T11:36:42Z</time></trkpt><trkpt lat="45.97191670570048" lon="12.570702564541714"><ele>41.0</ele><time>2026-04-04T11:36:43Z</time></trkpt><trkpt lat="45.97192402845569" lon="12.570458027956969"><ele>40.666666666666664</ele><time>2026-04-04T11:36:44Z</time></trkpt><trkpt lat="45.971922148379065" lon="12.570186707907828"><ele>40.333333333333336</ele><time>2026-04-04T11:36:45Z</time></trkpt><trkpt lat="45.97191657544851" lon="12.569905134834476"><ele>40.0</ele><time>2026-04-04T11:36:46Z</time></trkpt><trkpt lat="45.97191420601784" lon="12.569632176275876"><ele>39.333333333333336</ele><time>2026-04-04T11:36:47Z</time></trkpt><trkpt lat="45.97190171149609" lon="12.569358049129844"><ele>38.666666666666664</ele><time>2026-04-04T11:36:48Z</time></trkpt><trkpt lat="45.971890547371785" lon="12.56907990400755"><ele>38.0</ele><time>2026-04-04T11:36:49Z</time></trkpt><trkpt lat="45.97188137931421" lon="12.568801245837728"><ele>38.0</ele><time>2026-04-04T11:36:50Z</time></trkpt><trkpt lat="45.97187141108986" lon="12.568521729245962"><ele>38.0</ele><time>2026-04-04T11:36:51Z</time></trkpt><trkpt lat="45.97185982013975" lon="12.568245076749163"><ele>38.0</ele><time>2026-04-04T11:36:52Z</time></trkpt><trkpt lat="45.97184672672523" lon="12.567966820067282"><ele>38.666666666666664</ele><time>2026-04-04T11:36:53Z</time></trkpt><trkpt lat="45.971835217650074" lon="12.56769453401981"><ele>39.333333333333336</ele><time>2026-04-04T11:36:54Z</time></trkpt><trkpt lat="45.97182492045479" lon="12.567431541328194"><ele>40.0</ele><time>2026-04-04T11:36:55Z</time></trkpt><trkpt lat="45.97181491323039" lon="12.567162609941432"><ele>40.333333333333336</ele><time>2026-04-04T11:36:56Z</time></trkpt><trkpt lat="45.97180758420645" lon="12.566870569226563"><ele>40.666666666666664</ele><time>2026-04-04T11:36:57Z</time></trkpt><trkpt lat="45.97180884484506" lon="12.566563554221402"><ele>41.0</ele><time>2026-04-04T11:36:58Z</time></trkpt><trkpt lat="45.971818385714755" lon="12.566264690898501"><ele>41.33333333333333</ele><time>2026-04-04T11:36:59Z</time></trkpt><trkpt lat="45.97183660787122" lon="12.56596583598158"><ele>41.666666666666664</ele><time>2026-04-04T11:37:00Z</time></trkpt><trkpt lat="45.971853725956045" lon="12.565665048570661"><ele>42.0</ele><time>2026-04-04T11:37:01Z</time></trkpt><trkpt lat="45.97187269163452" lon="12.565368219622934"><ele>41.333333333333336</ele><time>2026-04-04T11:37:02Z</time></trkpt><trkpt lat="45.97188642430881" lon="12.565065726733721"><ele>40.66666666666667</ele><time>2026-04-04T11:37:03Z</time></trkpt><trkpt lat="45.971904231538716" lon="12.564763763643324"><ele>40.0</ele><time>2026-04-04T11:37:04Z</time></trkpt><trkpt lat="45.971921962867725" lon="12.564463132371447"><ele>39.66666666666667</ele><time>2026-04-04T11:37:05Z</time></trkpt><trkpt lat="45.97193897130498" lon="12.564163350613372"><ele>39.333333333333336</ele><time>2026-04-04T11:37:06Z</time></trkpt><trkpt lat="45.97195705925065" lon="12.563866127689277"><ele>39.0</ele><time>2026-04-04T11:37:07Z</time></trkpt><trkpt lat="45.971978414430716" lon="12.563571499446015"><ele>39.0</ele><time>2026-04-04T11:37:08Z</time></trkpt><trkpt lat="45.97200021570601" lon="12.56327850730145"><ele>39.0</ele><time>2026-04-04T11:37:09Z</time></trkpt><trkpt lat="45.97202011737166" lon="12.56298774661913"><ele>39.0</ele><time>2026-04-04T11:37:10Z</time></trkpt><trkpt lat="45.972041110490295" lon="12.562696782278787"><ele>39.0</ele><time>2026-04-04T11:37:11Z</time></trkpt><trkpt lat="45.97206195435816" lon="12.562406019821445"><ele>39.0</ele><time>2026-04-04T11:37:12Z</time></trkpt><trkpt lat="45.9720842186175" lon="12.56211736912291"><ele>39.0</ele><time>2026-04-04T11:37:13Z</time></trkpt><trkpt lat="45.97210891422385" lon="12.561840241109014"><ele>39.0</ele><time>2026-04-04T11:37:14Z</time></trkpt><trkpt lat="45.97213098023314" lon="12.561563924839406"><ele>39.0</ele><time>2026-04-04T11:37:15Z</time></trkpt><trkpt lat="45.97214784224194" lon="12.561288733993841"><ele>39.0</ele><time>2026-04-04T11:37:16Z</time></trkpt><trkpt lat="45.97216206305471" lon="12.561013835818661"><ele>39.0</ele><time>2026-04-04T11:37:17Z</time></trkpt><trkpt lat="45.97216959985641" lon="12.560740063139908"><ele>39.0</ele><time>2026-04-04T11:37:18Z</time></trkpt><trkpt lat="45.97216621019431" lon="12.560462199148674"><ele>39.0</ele><time>2026-04-04T11:37:19Z</time></trkpt><trkpt lat="45.9721531702107" lon="12.56018331522881"><ele>39.0</ele><time>2026-04-04T11:37:20Z</time></trkpt><trkpt lat="45.97212748490932" lon="12.559907004000408"><ele>39.0</ele><time>2026-04-04T11:37:21Z</time></trkpt><trkpt lat="45.972089091331625" lon="12.559633663702362"><ele>39.0</ele><time>2026-04-04T11:37:22Z</time></trkpt><trkpt lat="45.97204080953591" lon="12.55936488542297"><ele>39.333333333333336</ele><time>2026-04-04T11:37:23Z</time></trkpt><trkpt lat="45.97197987846181" lon="12.559099858680431"><ele>39.66666666666667</ele><time>2026-04-04T11:37:24Z</time></trkpt><trkpt lat="45.97190991505117" lon="12.558827064183175"><ele>40.0</ele><time>2026-04-04T11:37:25Z</time></trkpt><trkpt lat="45.97183928306013" lon="12.558545468325931"><ele>39.0</ele><time>2026-04-04T11:37:26Z</time></trkpt><trkpt lat="45.971768235207335" lon="12.558254815710203"><ele>38.0</ele><time>2026-04-04T11:37:27Z</time></trkpt><trkpt lat="45.971696933080885" lon="12.557961105454881"><ele>37.0</ele><time>2026-04-04T11:37:28Z</time></trkpt><trkpt lat="45.971625605312795" lon="12.557660061180936"><ele>37.0</ele><time>2026-04-04T11:37:29Z</time></trkpt><trkpt lat="45.97155178027195" lon="12.557356447923562"><ele>37.0</ele><time>2026-04-04T11:37:30Z</time></trkpt><trkpt lat="45.97148073515554" lon="12.557049689133818"><ele>37.0</ele><time>2026-04-04T11:37:31Z</time></trkpt><trkpt lat="45.97141635402286" lon="12.556731992428926"><ele>37.0</ele><time>2026-04-04T11:37:32Z</time></trkpt><trkpt lat="45.9713550536205" lon="12.556398693501386"><ele>37.0</ele><time>2026-04-04T11:37:33Z</time></trkpt><trkpt lat="45.97129723253913" lon="12.556060382923985"><ele>36.5</ele><time>2026-04-04T11:37:34Z</time></trkpt><trkpt lat="45.97123893534628" lon="12.555721313005405"><ele>36.0</ele><time>2026-04-04T11:37:35Z</time></trkpt><trkpt lat="45.971170544517115" lon="12.555392842591257"><ele>35.333333333333336</ele><time>2026-04-04T11:37:36Z</time></trkpt><trkpt lat="45.97109108998476" lon="12.555100381199935"><ele>34.66666666666667</ele><time>2026-04-04T11:37:37Z</time></trkpt><trkpt lat="45.97099036522256" lon="12.554850486472967"><ele>34.0</ele><time>2026-04-04T11:37:38Z</time></trkpt><trkpt lat="45.97089893580112" lon="12.55458843151598"><ele>33.66666666666667</ele><time>2026-04-04T11:37:39Z</time></trkpt><trkpt lat="45.97082535198501" lon="12.554314599806244"><ele>33.333333333333336</ele><time>2026-04-04T11:37:40Z</time></trkpt><trkpt lat="45.97074538007722" lon="12.554053284914227"><ele>33.0</ele><time>2026-04-04T11:37:41Z</time></trkpt><trkpt lat="45.970683645986824" lon="12.553790862805378"><ele>32.666666666666664</ele><time>2026-04-04T11:37:42Z</time></trkpt><trkpt lat="45.97062068631387" lon="12.553535265753405"><ele>32.33333333333333</ele><time>2026-04-04T11:37:43Z</time></trkpt><trkpt lat="45.970558259597404" lon="12.553281832504393"><ele>32.0</ele><time>2026-04-04T11:37:44Z</time></trkpt><trkpt lat="45.9704966084213" lon="12.553030155673673"><ele>32.33333333333333</ele><time>2026-04-04T11:37:45Z</time></trkpt><trkpt lat="45.97043576460637" lon="12.55278124915582"><ele>32.666666666666664</ele><time>2026-04-04T11:37:46Z</time></trkpt><trkpt lat="45.97037611978678" lon="12.552537247590738"><ele>33.0</ele><time>2026-04-04T11:37:47Z</time></trkpt><trkpt lat="45.97031619359034" lon="12.552292775233513"><ele>33.0</ele><time>2026-04-04T11:37:48Z</time></trkpt><trkpt lat="45.97025807707933" lon="12.552060572147633"><ele>33.0</ele><time>2026-04-04T11:37:49Z</time></trkpt><trkpt lat="45.97019476636703" lon="12.551804358291465"><ele>33.0</ele><time>2026-04-04T11:37:50Z</time></trkpt><trkpt lat="45.9701316018181" lon="12.551546816447045"><ele>33.333333333333336</ele><time>2026-04-04T11:37:51Z</time></trkpt><trkpt lat="45.970076905035654" lon="12.551318202909394"><ele>33.66666666666667</ele><time>2026-04-04T11:37:52Z</time></trkpt><trkpt lat="45.97002524451018" lon="12.551103508411252"><ele>34.0</ele><time>2026-04-04T11:37:53Z</time></trkpt><trkpt lat="45.96997314089273" lon="12.55089008516168"><ele>34.0</ele><time>2026-04-04T11:37:54Z</time></trkpt><trkpt lat="45.96991889568447" lon="12.550667889706366"><ele>34.0</ele><time>2026-04-04T11:37:55Z</time></trkpt><trkpt lat="45.96986126920756" lon="12.550432435878296"><ele>34.0</ele><time>2026-04-04T11:37:56.001Z</time></trkpt><trkpt lat="45.96979971615139" lon="12.550183466694284"><ele>34.333333333333336</ele><time>2026-04-04T11:37:57.001Z</time></trkpt><trkpt lat="45.96973559341034" lon="12.54992410348935"><ele>34.666666666666664</ele><time>2026-04-04T11:37:58.001Z</time></trkpt><trkpt lat="45.96966796386432" lon="12.549649211983642"><ele>35.0</ele><time>2026-04-04T11:37:59.001Z</time></trkpt><trkpt lat="45.96959925501132" lon="12.54936410981322"><ele>35.0</ele><time>2026-04-04T11:38:00.001Z</time></trkpt><trkpt lat="45.96952820196193" lon="12.549066439336467"><ele>35.0</ele><time>2026-04-04T11:38:01.001Z</time></trkpt><trkpt lat="45.96945522683284" lon="12.548767042737905"><ele>35.0</ele><time>2026-04-04T11:38:02.001Z</time></trkpt><trkpt lat="45.96937002649432" lon="12.548465897688715"><ele>34.33333333333333</ele><time>2026-04-04T11:38:03.001Z</time></trkpt><trkpt lat="45.96930730987118" lon="12.548155708859792"><ele>33.666666666666664</ele><time>2026-04-04T11:38:04.001Z</time></trkpt><trkpt lat="45.969237172018744" lon="12.547865816286835"><ele>33.0</ele><time>2026-04-04T11:38:05.001Z</time></trkpt><trkpt lat="45.96916602229627" lon="12.5475790650235"><ele>32.333333333333336</ele><time>2026-04-04T11:38:06.001Z</time></trkpt><trkpt lat="45.96909417262583" lon="12.547292522662538"><ele>31.666666666666668</ele><time>2026-04-04T11:38:07Z</time></trkpt><trkpt lat="45.96902378527489" lon="12.547007841388396"><ele>31.0</ele><time>2026-04-04T11:38:08Z</time></trkpt><trkpt lat="45.968957779472305" lon="12.546736734927213"><ele>31.0</ele><time>2026-04-04T11:38:09Z</time></trkpt><trkpt lat="45.96888548812846" lon="12.5464184773611"><ele>31.0</ele><time>2026-04-04T11:38:10Z</time></trkpt><trkpt lat="45.9688173576935" lon="12.546158062972527"><ele>31.0</ele><time>2026-04-04T11:38:11Z</time></trkpt><trkpt lat="45.96874468960047" lon="12.545877272280036"><ele>31.0</ele><time>2026-04-04T11:38:12Z</time></trkpt><trkpt lat="45.96867542762647" lon="12.545591621936644"><ele>31.0</ele><time>2026-04-04T11:38:13Z</time></trkpt><trkpt lat="45.96860613184471" lon="12.545305140254818"><ele>31.0</ele><time>2026-04-04T11:38:14Z</time></trkpt><trkpt lat="45.968536208862936" lon="12.54501352565148"><ele>31.0</ele><time>2026-04-04T11:38:15Z</time></trkpt><trkpt lat="45.968465728569306" lon="12.544719733482442"><ele>31.0</ele><time>2026-04-04T11:38:16Z</time></trkpt><trkpt lat="45.968392090980196" lon="12.544427245908263"><ele>31.0</ele><time>2026-04-04T11:38:17Z</time></trkpt><trkpt lat="45.968316581755346" lon="12.54412638959203"><ele>30.333333333333336</ele><time>2026-04-04T11:38:18Z</time></trkpt><trkpt lat="45.96824106500382" lon="12.543837732598154"><ele>29.666666666666664</ele><time>2026-04-04T11:38:19Z</time></trkpt><trkpt lat="45.96817511931447" lon="12.543545484977331"><ele>29.0</ele><time>2026-04-04T11:38:20Z</time></trkpt><trkpt lat="45.96810077873615" lon="12.543245494172002"><ele>29.0</ele><time>2026-04-04T11:38:21Z</time></trkpt><trkpt lat="45.96802889793091" lon="12.542944708047104"><ele>29.0</ele><time>2026-04-04T11:38:22Z</time></trkpt><trkpt lat="45.96795460272501" lon="12.542643755316154"><ele>29.0</ele><time>2026-04-04T11:38:23Z</time></trkpt><trkpt lat="45.96787939658269" lon="12.542340957744923"><ele>29.333333333333332</ele><time>2026-04-04T11:38:24Z</time></trkpt><trkpt lat="45.9678032824944" lon="12.542046793073757"><ele>29.666666666666664</ele><time>2026-04-04T11:38:25Z</time></trkpt><trkpt lat="45.96770387341138" lon="12.541760176880146"><ele>30.0</ele><time>2026-04-04T11:38:26Z</time></trkpt><trkpt lat="45.96763186265962" lon="12.54143583602699"><ele>30.0</ele><time>2026-04-04T11:38:27Z</time></trkpt><trkpt lat="45.96755265017652" lon="12.541117955207055"><ele>30.0</ele><time>2026-04-04T11:38:28Z</time></trkpt><trkpt lat="45.967473337472775" lon="12.540793302222763"><ele>30.0</ele><time>2026-04-04T11:38:29Z</time></trkpt><trkpt lat="45.96742577219702" lon="12.54045297235291"><ele>30.0</ele><time>2026-04-04T11:38:30Z</time></trkpt><trkpt lat="45.967344595067246" lon="12.54012114187002"><ele>30.0</ele><time>2026-04-04T11:38:31Z</time></trkpt><trkpt lat="45.96724769109457" lon="12.539773013736756"><ele>30.0</ele><time>2026-04-04T11:38:32Z</time></trkpt><trkpt lat="45.96716381033589" lon="12.539426135179097"><ele>30.0</ele><time>2026-04-04T11:38:33Z</time></trkpt><trkpt lat="45.96708726902286" lon="12.539091197050219"><ele>30.0</ele><time>2026-04-04T11:38:34Z</time></trkpt><trkpt lat="45.96700626548484" lon="12.538753333483447"><ele>29.0</ele><time>2026-04-04T11:38:35Z</time></trkpt><trkpt lat="45.966924329770265" lon="12.53841562613268"><ele>28.0</ele><time>2026-04-04T11:38:36Z</time></trkpt><trkpt lat="45.96683796752281" lon="12.538076000663716"><ele>28.5</ele><time>2026-04-04T11:38:37Z</time></trkpt><trkpt lat="45.96675145083498" lon="12.537732767999778"><ele>29.0</ele><time>2026-04-04T11:38:38Z</time></trkpt><trkpt lat="45.966668262272236" lon="12.537387190239357"><ele>29.5</ele><time>2026-04-04T11:38:39Z</time></trkpt><trkpt lat="45.96658266693518" lon="12.537044548941134"><ele>30.0</ele><time>2026-04-04T11:38:40Z</time></trkpt><trkpt lat="45.966498179028704" lon="12.536703439041563"><ele>30.0</ele><time>2026-04-04T11:38:41Z</time></trkpt><trkpt lat="45.966415950476204" lon="12.53636535668656"><ele>30.0</ele><time>2026-04-04T11:38:42Z</time></trkpt><trkpt lat="45.9663334606483" lon="12.536032290694454"><ele>29.5</ele><time>2026-04-04T11:38:43Z</time></trkpt><trkpt lat="45.96625035663021" lon="12.535703685118657"><ele>29.0</ele><time>2026-04-04T11:38:44Z</time></trkpt><trkpt lat="45.96616860482095" lon="12.535369555524223"><ele>27.5</ele><time>2026-04-04T11:38:45Z</time></trkpt><trkpt lat="45.966089253428585" lon="12.535039312873476"><ele>26.0</ele><time>2026-04-04T11:38:46Z</time></trkpt><trkpt lat="45.96600954691938" lon="12.53470869967538"><ele>26.0</ele><time>2026-04-04T11:38:47Z</time></trkpt><trkpt lat="45.96592937872684" lon="12.53438150483543"><ele>26.0</ele><time>2026-04-04T11:38:48Z</time></trkpt><trkpt lat="45.96585136129711" lon="12.534067241188405"><ele>26.0</ele><time>2026-04-04T11:38:49Z</time></trkpt><trkpt lat="45.96577841258439" lon="12.533766697796924"><ele>26.0</ele><time>2026-04-04T11:38:50Z</time></trkpt><trkpt lat="45.965709830648684" lon="12.533468320285374"><ele>26.0</ele><time>2026-04-04T11:38:51Z</time></trkpt><trkpt lat="45.96563633300451" lon="12.533177229400032"><ele>26.666666666666664</ele><time>2026-04-04T11:38:52Z</time></trkpt><trkpt lat="45.965566435871786" lon="12.532890061667041"><ele>27.333333333333336</ele><time>2026-04-04T11:38:53Z</time></trkpt><trkpt lat="45.96549812454862" lon="12.532604761139687"><ele>28.0</ele><time>2026-04-04T11:38:54Z</time></trkpt><trkpt lat="45.96542934395849" lon="12.532319381260512"><ele>27.666666666666668</ele><time>2026-04-04T11:38:55Z</time></trkpt><trkpt lat="45.96535902152177" lon="12.532031755059295"><ele>27.333333333333336</ele><time>2026-04-04T11:38:56Z</time></trkpt><trkpt lat="45.965286378326226" lon="12.531742343099786"><ele>27.0</ele><time>2026-04-04T11:38:57Z</time></trkpt><trkpt lat="45.96521482615612" lon="12.531453903227122"><ele>27.0</ele><time>2026-04-04T11:38:58Z</time></trkpt><trkpt lat="45.965144119652" lon="12.53116333006222"><ele>27.0</ele><time>2026-04-04T11:38:59Z</time></trkpt><trkpt lat="45.96507517488569" lon="12.530873072583535"><ele>27.0</ele><time>2026-04-04T11:39:00Z</time></trkpt><trkpt lat="45.96500645930997" lon="12.530582860767122"><ele>27.333333333333336</ele><time>2026-04-04T11:39:01Z</time></trkpt><trkpt lat="45.96493891144685" lon="12.530299697065189"><ele>27.666666666666668</ele><time>2026-04-04T11:39:02Z</time></trkpt><trkpt lat="45.964872271431695" lon="12.53002776009666"><ele>28.0</ele><time>2026-04-04T11:39:03Z</time></trkpt><trkpt lat="45.96480132216638" lon="12.52975682734095"><ele>27.666666666666668</ele><time>2026-04-04T11:39:04Z</time></trkpt><trkpt lat="45.96473129745973" lon="12.529485523939481"><ele>27.333333333333336</ele><time>2026-04-04T11:39:05Z</time></trkpt><trkpt lat="45.96466121744238" lon="12.529203847525478"><ele>27.0</ele><time>2026-04-04T11:39:06Z</time></trkpt><trkpt lat="45.96459525224649" lon="12.52892025633095"><ele>27.0</ele><time>2026-04-04T11:39:07Z</time></trkpt><trkpt lat="45.96452906832575" lon="12.52863438650732"><ele>27.0</ele><time>2026-04-04T11:39:08Z</time></trkpt><trkpt lat="45.964460119133435" lon="12.528359409218343"><ele>27.0</ele><time>2026-04-04T11:39:09Z</time></trkpt><trkpt lat="45.964394912299085" lon="12.528088664383045"><ele>27.0</ele><time>2026-04-04T11:39:10Z</time></trkpt><trkpt lat="45.96433078986254" lon="12.527825572913656"><ele>27.0</ele><time>2026-04-04T11:39:11Z</time></trkpt><trkpt lat="45.96426816274452" lon="12.52756331016684"><ele>27.0</ele><time>2026-04-04T11:39:12Z</time></trkpt><trkpt lat="45.964207656655475" lon="12.5273029946903"><ele>27.0</ele><time>2026-04-04T11:39:13Z</time></trkpt><trkpt lat="45.96414332860592" lon="12.527045098016256"><ele>27.0</ele><time>2026-04-04T11:39:14Z</time></trkpt><trkpt lat="45.96407803333651" lon="12.526791433861598"><ele>27.0</ele><time>2026-04-04T11:39:15Z</time></trkpt><trkpt lat="45.96401558696518" lon="12.526537273062003"><ele>27.0</ele><time>2026-04-04T11:39:16Z</time></trkpt><trkpt lat="45.9639539891535" lon="12.52627547986154"><ele>27.0</ele><time>2026-04-04T11:39:17Z</time></trkpt><trkpt lat="45.96389183990784" lon="12.526011133197276"><ele>27.0</ele><time>2026-04-04T11:39:18Z</time></trkpt><trkpt lat="45.9638259205774" lon="12.525741230123414"><ele>26.333333333333336</ele><time>2026-04-04T11:39:19Z</time></trkpt><trkpt lat="45.96375847842996" lon="12.52546967701214"><ele>25.666666666666668</ele><time>2026-04-04T11:39:20Z</time></trkpt><trkpt lat="45.96369248342321" lon="12.52519437660548"><ele>25.0</ele><time>2026-04-04T11:39:21Z</time></trkpt><trkpt lat="45.96362833535705" lon="12.524916555088229"><ele>25.0</ele><time>2026-04-04T11:39:22Z</time></trkpt><trkpt lat="45.96356198177861" lon="12.524647535551333"><ele>25.0</ele><time>2026-04-04T11:39:23Z</time></trkpt><trkpt lat="45.96349309849935" lon="12.524374439870114"><ele>25.0</ele><time>2026-04-04T11:39:24Z</time></trkpt><trkpt lat="45.96342601927645" lon="12.524100530621329"><ele>24.666666666666668</ele><time>2026-04-04T11:39:25Z</time></trkpt><trkpt lat="45.96335811983572" lon="12.52382284628691"><ele>24.333333333333336</ele><time>2026-04-04T11:39:26Z</time></trkpt><trkpt lat="45.96329130923614" lon="12.523551931859442"><ele>24.0</ele><time>2026-04-04T11:39:27Z</time></trkpt><trkpt lat="45.96322135501978" lon="12.52327880587429"><ele>23.666666666666668</ele><time>2026-04-04T11:39:28Z</time></trkpt><trkpt lat="45.96315276280243" lon="12.523011806219426"><ele>23.333333333333336</ele><time>2026-04-04T11:39:29Z</time></trkpt><trkpt lat="45.96308618812656" lon="12.522741118438033"><ele>23.0</ele><time>2026-04-04T11:39:30Z</time></trkpt><trkpt lat="45.96301937147945" lon="12.52247643545434"><ele>23.333333333333336</ele><time>2026-04-04T11:39:31Z</time></trkpt><trkpt lat="45.962953780823575" lon="12.522213111168261"><ele>23.666666666666668</ele><time>2026-04-04T11:39:32Z</time></trkpt><trkpt lat="45.962891249921874" lon="12.521950942191054"><ele>24.0</ele><time>2026-04-04T11:39:33Z</time></trkpt><trkpt lat="45.962830267859985" lon="12.521692549878312"><ele>24.0</ele><time>2026-04-04T11:39:34Z</time></trkpt><trkpt lat="45.9627697625556" lon="12.521433083831798"><ele>24.0</ele><time>2026-04-04T11:39:35Z</time></trkpt><trkpt lat="45.962707445921126" lon="12.521180863675319"><ele>24.0</ele><time>2026-04-04T11:39:36Z</time></trkpt><trkpt lat="45.96264250307169" lon="12.520929563058308"><ele>24.333333333333336</ele><time>2026-04-04T11:39:37Z</time></trkpt><trkpt lat="45.962577670661815" lon="12.520670698556206"><ele>24.666666666666668</ele><time>2026-04-04T11:39:38Z</time></trkpt><trkpt lat="45.96251307537451" lon="12.520410142532409"><ele>25.0</ele><time>2026-04-04T11:39:39Z</time></trkpt><trkpt lat="45.96244935254398" lon="12.520151011821408"><ele>25.0</ele><time>2026-04-04T11:39:40Z</time></trkpt><trkpt lat="45.96238704817942" lon="12.519888542925198"><ele>25.0</ele><time>2026-04-04T11:39:41Z</time></trkpt><trkpt lat="45.96232401374881" lon="12.519631802873283"><ele>25.0</ele><time>2026-04-04T11:39:42Z</time></trkpt><trkpt lat="45.96226281521389" lon="12.519372264999749"><ele>25.666666666666668</ele><time>2026-04-04T11:39:43Z</time></trkpt><trkpt lat="45.962202701110066" lon="12.51911363149542"><ele>26.333333333333336</ele><time>2026-04-04T11:39:44Z</time></trkpt><trkpt lat="45.962142919645004" lon="12.518856927735795"><ele>27.0</ele><time>2026-04-04T11:39:45Z</time></trkpt><trkpt lat="45.96208252393356" lon="12.518602466744973"><ele>27.0</ele><time>2026-04-04T11:39:46Z</time></trkpt><trkpt lat="45.96201869048533" lon="12.518342219485566"><ele>27.0</ele><time>2026-04-04T11:39:47Z</time></trkpt><trkpt lat="45.96195608752026" lon="12.518083572653198"><ele>27.0</ele><time>2026-04-04T11:39:48Z</time></trkpt><trkpt lat="45.96189253002471" lon="12.517821602453786"><ele>26.333333333333336</ele><time>2026-04-04T11:39:49Z</time></trkpt><trkpt lat="45.96183009225441" lon="12.517560968205606"><ele>25.666666666666668</ele><time>2026-04-04T11:39:50Z</time></trkpt><trkpt lat="45.96176516514869" lon="12.51729640737816"><ele>25.0</ele><time>2026-04-04T11:39:51Z</time></trkpt><trkpt lat="45.961696274766105" lon="12.517030630942905"><ele>24.666666666666668</ele><time>2026-04-04T11:39:52Z</time></trkpt><trkpt lat="45.96162636713326" lon="12.516760337591618"><ele>24.333333333333336</ele><time>2026-04-04T11:39:53Z</time></trkpt><trkpt lat="45.96155780566322" lon="12.51648986976921"><ele>24.0</ele><time>2026-04-04T11:39:54Z</time></trkpt><trkpt lat="45.96149211756269" lon="12.516219750206904"><ele>24.0</ele><time>2026-04-04T11:39:55Z</time></trkpt><trkpt lat="45.96142613018892" lon="12.515947463959673"><ele>24.0</ele><time>2026-04-04T11:39:56Z</time></trkpt><trkpt lat="45.96136207063551" lon="12.515687800566445"><ele>24.0</ele><time>2026-04-04T11:39:57Z</time></trkpt><trkpt lat="45.96130079184569" lon="12.515438886923"><ele>24.666666666666664</ele><time>2026-04-04T11:39:58Z</time></trkpt><trkpt lat="45.96123888614455" lon="12.51519364988868"><ele>25.333333333333332</ele><time>2026-04-04T11:39:59Z</time></trkpt><trkpt lat="45.961179434776845" lon="12.514953189895373"><ele>26.0</ele><time>2026-04-04T11:40:00Z</time></trkpt><trkpt lat="45.96111963008819" lon="12.514704280546814"><ele>25.666666666666664</ele><time>2026-04-04T11:40:01Z</time></trkpt><trkpt lat="45.96105781728189" lon="12.51444973221701"><ele>25.333333333333336</ele><time>2026-04-04T11:40:02.001Z</time></trkpt><trkpt lat="45.96099377668092" lon="12.514191527575235"><ele>25.0</ele><time>2026-04-04T11:40:03.001Z</time></trkpt><trkpt lat="45.960926425208065" lon="12.513923184926467"><ele>25.0</ele><time>2026-04-04T11:40:04.001Z</time></trkpt><trkpt lat="45.960860675494" lon="12.513646089318005"><ele>25.0</ele><time>2026-04-04T11:40:05.001Z</time></trkpt><trkpt lat="45.96079393695454" lon="12.513367417187979"><ele>25.0</ele><time>2026-04-04T11:40:06.001Z</time></trkpt><trkpt lat="45.96072884619992" lon="12.513082244705792"><ele>25.333333333333336</ele><time>2026-04-04T11:40:07.001Z</time></trkpt><trkpt lat="45.96066035048089" lon="12.512791884144889"><ele>25.666666666666664</ele><time>2026-04-04T11:40:08.001Z</time></trkpt><trkpt lat="45.960591588519165" lon="12.512509325933534"><ele>26.0</ele><time>2026-04-04T11:40:09.001Z</time></trkpt><trkpt lat="45.96051976388788" lon="12.512236561468894"><ele>26.0</ele><time>2026-04-04T11:40:10.001Z</time></trkpt><trkpt lat="45.960454104000455" lon="12.511966017874855"><ele>26.0</ele><time>2026-04-04T11:40:11.001Z</time></trkpt><trkpt lat="45.96039466904359" lon="12.511699823353558"><ele>26.0</ele><time>2026-04-04T11:40:12Z</time></trkpt><trkpt lat="45.960336519132206" lon="12.511450784720942"><ele>26.0</ele><time>2026-04-04T11:40:13Z</time></trkpt><trkpt lat="45.960280376381284" lon="12.511210482690894"><ele>26.0</ele><time>2026-04-04T11:40:14Z</time></trkpt><trkpt lat="45.960226437659436" lon="12.510977823387199"><ele>26.0</ele><time>2026-04-04T11:40:15Z</time></trkpt><trkpt lat="45.96017883710958" lon="12.510746533717642"><ele>26.0</ele><time>2026-04-04T11:40:16Z</time></trkpt><trkpt lat="45.960140149847156" lon="12.51052134694933"><ele>26.0</ele><time>2026-04-04T11:40:17Z</time></trkpt><trkpt lat="45.960110406326166" lon="12.510301981649105"><ele>26.0</ele><time>2026-04-04T11:40:18Z</time></trkpt><trkpt lat="45.96009084844315" lon="12.510087736310355"><ele>26.0</ele><time>2026-04-04T11:40:19Z</time></trkpt><trkpt lat="45.96007212771309" lon="12.509894686972729"><ele>26.0</ele><time>2026-04-04T11:40:20Z</time></trkpt><trkpt lat="45.960064852970454" lon="12.509726000673167"><ele>26.0</ele><time>2026-04-04T11:40:21Z</time></trkpt><trkpt lat="45.96005973753145" lon="12.509575493019234"><ele>26.0</ele><time>2026-04-04T11:40:22Z</time></trkpt><trkpt lat="45.96005379173231" lon="12.509449846029243"><ele>26.0</ele><time>2026-04-04T11:40:23Z</time></trkpt><trkpt lat="45.960053338514456" lon="12.50934325891061"><ele>25.8</ele><time>2026-04-04T11:40:24Z</time></trkpt><trkpt lat="45.9600801555407" lon="12.509191145169574"><ele>25.6</ele><time>2026-04-04T11:40:26Z</time></trkpt><trkpt lat="45.96016651747081" lon="12.509058085345071"><ele>25.4</ele><time>2026-04-04T11:40:28Z</time></trkpt><trkpt lat="45.96018836558629" lon="12.508884086000988"><ele>25.2</ele><time>2026-04-04T11:40:30Z</time></trkpt><trkpt lat="45.960160163162946" lon="12.50877942508506"><ele>25.0</ele><time>2026-04-04T11:40:31Z</time></trkpt><trkpt lat="45.96012849362857" lon="12.508674576815036"><ele>25.0</ele><time>2026-04-04T11:40:32Z</time></trkpt><trkpt lat="45.96007924516385" lon="12.508521206796225"><ele>25.0</ele><time>2026-04-04T11:40:33Z</time></trkpt><trkpt lat="45.96005054852649" lon="12.508336451083022"><ele>25.0</ele><time>2026-04-04T11:40:34Z</time></trkpt><trkpt lat="45.96002668887883" lon="12.508137864339908"><ele>25.0</ele><time>2026-04-04T11:40:35Z</time></trkpt><trkpt lat="45.960003964533705" lon="12.507929747629671"><ele>25.0</ele><time>2026-04-04T11:40:36Z</time></trkpt><trkpt lat="45.959986254970254" lon="12.50769623658268"><ele>25.0</ele><time>2026-04-04T11:40:37Z</time></trkpt><trkpt lat="45.95997149054813" lon="12.507441154339014"><ele>25.0</ele><time>2026-04-04T11:40:38Z</time></trkpt><trkpt lat="45.95996249994703" lon="12.507159821021906"><ele>24.666666666666668</ele><time>2026-04-04T11:40:39Z</time></trkpt><trkpt lat="45.95995535407049" lon="12.506893477930948"><ele>24.333333333333336</ele><time>2026-04-04T11:40:40Z</time></trkpt><trkpt lat="45.95994294649824" lon="12.506635185583706"><ele>24.0</ele><time>2026-04-04T11:40:41Z</time></trkpt><trkpt lat="45.95992519132967" lon="12.506366912648518"><ele>24.333333333333336</ele><time>2026-04-04T11:40:42Z</time></trkpt><trkpt lat="45.95990596312351" lon="12.506103392345098"><ele>24.666666666666668</ele><time>2026-04-04T11:40:43Z</time></trkpt><trkpt lat="45.959883467575594" lon="12.505840401369738"><ele>25.0</ele><time>2026-04-04T11:40:44Z</time></trkpt><trkpt lat="45.959854724737575" lon="12.50557986888862"><ele>25.0</ele><time>2026-04-04T11:40:45Z</time></trkpt><trkpt lat="45.959816226454755" lon="12.505319761045445"><ele>25.0</ele><time>2026-04-04T11:40:46Z</time></trkpt><trkpt lat="45.95976954737515" lon="12.505061835527401"><ele>25.0</ele><time>2026-04-04T11:40:47Z</time></trkpt><trkpt lat="45.95972404145851" lon="12.504809942755884"><ele>25.0</ele><time>2026-04-04T11:40:48Z</time></trkpt><trkpt lat="45.95967933892134" lon="12.504560678985683"><ele>25.0</ele><time>2026-04-04T11:40:49Z</time></trkpt><trkpt lat="45.95963247630049" lon="12.504321701971161"><ele>25.0</ele><time>2026-04-04T11:40:50Z</time></trkpt><trkpt lat="45.95958609444971" lon="12.504085438932357"><ele>25.0</ele><time>2026-04-04T11:40:51Z</time></trkpt><trkpt lat="45.95954130730208" lon="12.50385301375158"><ele>25.0</ele><time>2026-04-04T11:40:52Z</time></trkpt><trkpt lat="45.95949875615239" lon="12.503622208200944"><ele>25.0</ele><time>2026-04-04T11:40:53Z</time></trkpt><trkpt lat="45.95945512537056" lon="12.503393132653168"><ele>25.333333333333336</ele><time>2026-04-04T11:40:54Z</time></trkpt><trkpt lat="45.95941173701464" lon="12.50316467691709"><ele>25.666666666666664</ele><time>2026-04-04T11:40:55Z</time></trkpt><trkpt lat="45.95937089061031" lon="12.502937974600506"><ele>26.0</ele><time>2026-04-04T11:40:56Z</time></trkpt><trkpt lat="45.95933069077285" lon="12.502708270902986"><ele>26.0</ele><time>2026-04-04T11:40:57Z</time></trkpt><trkpt lat="45.9592886183635" lon="12.502473621637094"><ele>26.0</ele><time>2026-04-04T11:40:58Z</time></trkpt><trkpt lat="45.95924444843227" lon="12.502233929617306"><ele>26.0</ele><time>2026-04-04T11:40:59Z</time></trkpt><trkpt lat="45.95920076172294" lon="12.501990941569424"><ele>26.25</ele><time>2026-04-04T11:41:00Z</time></trkpt><trkpt lat="45.959161893076775" lon="12.501762276348723"><ele>26.5</ele><time>2026-04-04T11:41:01Z</time></trkpt><trkpt lat="45.95912556297038" lon="12.501562042828004"><ele>26.75</ele><time>2026-04-04T11:41:02Z</time></trkpt><trkpt lat="45.95909173955493" lon="12.501369186204816"><ele>27.0</ele><time>2026-04-04T11:41:03Z</time></trkpt><trkpt lat="45.95906037943633" lon="12.501183436134902"><ele>26.6</ele><time>2026-04-04T11:41:04Z</time></trkpt><trkpt lat="45.95902840871555" lon="12.501003221590445"><ele>26.200000000000003</ele><time>2026-04-04T11:41:05Z</time></trkpt><trkpt lat="45.95899808823972" lon="12.50083619600221"><ele>25.8</ele><time>2026-04-04T11:41:06Z</time></trkpt><trkpt lat="45.95896993794669" lon="12.500688733736794"><ele>25.4</ele><time>2026-04-04T11:41:07Z</time></trkpt><trkpt lat="45.95894806761491" lon="12.500567028347689"><ele>25.0</ele><time>2026-04-04T11:41:08Z</time></trkpt><trkpt lat="45.95892570100303" lon="12.500457479323055"><ele>24.8</ele><time>2026-04-04T11:41:09Z</time></trkpt><trkpt lat="45.95890192955438" lon="12.500353680258552"><ele>24.6</ele><time>2026-04-04T11:41:10Z</time></trkpt><trkpt lat="45.958879073222256" lon="12.50024023287971"><ele>24.4</ele><time>2026-04-04T11:41:11Z</time></trkpt><trkpt lat="45.95886803802334" lon="12.500105599178921"><ele>24.2</ele><time>2026-04-04T11:41:12Z</time></trkpt><trkpt lat="45.95885232759814" lon="12.49996213832554"><ele>24.0</ele><time>2026-04-04T11:41:13Z</time></trkpt><trkpt lat="45.95880923425896" lon="12.499819466867756"><ele>24.0</ele><time>2026-04-04T11:41:14Z</time></trkpt><trkpt lat="45.95875388140431" lon="12.499674698257065"><ele>24.0</ele><time>2026-04-04T11:41:15Z</time></trkpt><trkpt lat="45.95870440405523" lon="12.499527004809257"><ele>24.0</ele><time>2026-04-04T11:41:16Z</time></trkpt><trkpt lat="45.95866366242329" lon="12.499372734482234"><ele>24.0</ele><time>2026-04-04T11:41:17Z</time></trkpt><trkpt lat="45.9586156319093" lon="12.499216266100955"><ele>24.25</ele><time>2026-04-04T11:41:18Z</time></trkpt><trkpt lat="45.9585534166538" lon="12.499057548035811"><ele>24.5</ele><time>2026-04-04T11:41:19Z</time></trkpt><trkpt lat="45.95847899320263" lon="12.498890405301347"><ele>24.75</ele><time>2026-04-04T11:41:20Z</time></trkpt><trkpt lat="45.958397945273845" lon="12.498727717339452"><ele>25.0</ele><time>2026-04-04T11:41:21Z</time></trkpt><trkpt lat="45.95831430428663" lon="12.498579337477093"><ele>25.0</ele><time>2026-04-04T11:41:22Z</time></trkpt><trkpt lat="45.95822459703591" lon="12.498430249232543"><ele>25.0</ele><time>2026-04-04T11:41:23Z</time></trkpt><trkpt lat="45.958132859417695" lon="12.49827906552863"><ele>25.0</ele><time>2026-04-04T11:41:24Z</time></trkpt><trkpt lat="45.95803943396658" lon="12.49812254054826"><ele>25.0</ele><time>2026-04-04T11:41:25Z</time></trkpt><trkpt lat="45.957944010327274" lon="12.497963098153603"><ele>24.666666666666668</ele><time>2026-04-04T11:41:26Z</time></trkpt><trkpt lat="45.95784161734141" lon="12.497799659031568"><ele>24.333333333333336</ele><time>2026-04-04T11:41:27Z</time></trkpt><trkpt lat="45.95773733849949" lon="12.497637296670113"><ele>24.0</ele><time>2026-04-04T11:41:28Z</time></trkpt><trkpt lat="45.95763314901501" lon="12.497477215943569"><ele>24.0</ele><time>2026-04-04T11:41:29Z</time></trkpt><trkpt lat="45.957530863165225" lon="12.497319005669207"><ele>24.0</ele><time>2026-04-04T11:41:30Z</time></trkpt><trkpt lat="45.957436602848894" lon="12.497167300259575"><ele>24.0</ele><time>2026-04-04T11:41:31Z</time></trkpt><trkpt lat="45.957345663275525" lon="12.497018196444705"><ele>24.0</ele><time>2026-04-04T11:41:32Z</time></trkpt><trkpt lat="45.95725510962832" lon="12.496869636681168"><ele>23.75</ele><time>2026-04-04T11:41:33Z</time></trkpt><trkpt lat="45.95716927905685" lon="12.496730173959918"><ele>23.5</ele><time>2026-04-04T11:41:34Z</time></trkpt><trkpt lat="45.95708370544172" lon="12.496593023388929"><ele>23.25</ele><time>2026-04-04T11:41:35Z</time></trkpt><trkpt lat="45.957001143435875" lon="12.496459029200603"><ele>23.0</ele><time>2026-04-04T11:41:36Z</time></trkpt><trkpt lat="45.9569194519802" lon="12.496326252343797"><ele>23.0</ele><time>2026-04-04T11:41:37Z</time></trkpt><trkpt lat="45.95684197733389" lon="12.496197279990822"><ele>23.0</ele><time>2026-04-04T11:41:38Z</time></trkpt><trkpt lat="45.956767932459144" lon="12.496075538929292"><ele>23.0</ele><time>2026-04-04T11:41:39Z</time></trkpt><trkpt lat="45.95669515274462" lon="12.495959981921601"><ele>23.0</ele><time>2026-04-04T11:41:40Z</time></trkpt><trkpt lat="45.956629383386755" lon="12.495845867118565"><ele>23.0</ele><time>2026-04-04T11:41:41Z</time></trkpt><trkpt lat="45.956568712597104" lon="12.495740227603994"><ele>23.0</ele><time>2026-04-04T11:41:42Z</time></trkpt><trkpt lat="45.95653045858502" lon="12.495657825182235"><ele>23.0</ele><time>2026-04-04T11:41:43Z</time></trkpt><trkpt lat="45.956467027189866" lon="12.495497865650997"><ele>23.0</ele><time>2026-04-04T11:41:45Z</time></trkpt><trkpt lat="45.95643733393333" lon="12.495405308300903"><ele>23.0</ele><time>2026-04-04T11:41:46Z</time></trkpt><trkpt lat="45.95640004430164" lon="12.495314080933673"><ele>23.0</ele><time>2026-04-04T11:41:47Z</time></trkpt><trkpt lat="45.95634607337876" lon="12.49523671716533"><ele>23.0</ele><time>2026-04-04T11:41:48Z</time></trkpt><trkpt lat="45.956275476372504" lon="12.495172863228651"><ele>23.0</ele><time>2026-04-04T11:41:49Z</time></trkpt><trkpt lat="45.956204378215446" lon="12.49511143988042"><ele>23.0</ele><time>2026-04-04T11:41:50Z</time></trkpt><trkpt lat="45.95612704034082" lon="12.495036480613697"><ele>23.0</ele><time>2026-04-04T11:41:51Z</time></trkpt><trkpt lat="45.95605258858682" lon="12.494932398543382"><ele>23.0</ele><time>2026-04-04T11:41:52Z</time></trkpt><trkpt lat="45.95597685911094" lon="12.494816402657152"><ele>23.0</ele><time>2026-04-04T11:41:53Z</time></trkpt><trkpt lat="45.955897373647375" lon="12.494689012706806"><ele>23.25</ele><time>2026-04-04T11:41:54Z</time></trkpt><trkpt lat="45.95581812287367" lon="12.494565733753241"><ele>23.5</ele><time>2026-04-04T11:41:55Z</time></trkpt><trkpt lat="45.95573942371061" lon="12.494446787133164"><ele>23.75</ele><time>2026-04-04T11:41:56Z</time></trkpt><trkpt lat="45.95566125716666" lon="12.494327316737197"><ele>24.0</ele><time>2026-04-04T11:41:57Z</time></trkpt><trkpt lat="45.95558443657169" lon="12.494204832630304"><ele>24.0</ele><time>2026-04-04T11:41:58Z</time></trkpt><trkpt lat="45.955505280475066" lon="12.49407819854928"><ele>24.0</ele><time>2026-04-04T11:41:59Z</time></trkpt><trkpt lat="45.95542320531193" lon="12.493941651656762"><ele>24.0</ele><time>2026-04-04T11:42:00Z</time></trkpt><trkpt lat="45.95533809563815" lon="12.493808997446433"><ele>24.0</ele><time>2026-04-04T11:42:01Z</time></trkpt><trkpt lat="45.955253443378865" lon="12.493681271583032"><ele>24.0</ele><time>2026-04-04T11:42:02Z</time></trkpt><trkpt lat="45.95517220712542" lon="12.493556481142061"><ele>24.0</ele><time>2026-04-04T11:42:03Z</time></trkpt><trkpt lat="45.955091694694694" lon="12.493432674317582"><ele>24.0</ele><time>2026-04-04T11:42:04Z</time></trkpt><trkpt lat="45.955013870370166" lon="12.493310680868166"><ele>24.0</ele><time>2026-04-04T11:42:05Z</time></trkpt><trkpt lat="45.954942277675435" lon="12.493195602294344"><ele>24.0</ele><time>2026-04-04T11:42:06Z</time></trkpt><trkpt lat="45.95487714860979" lon="12.49309754857026"><ele>24.0</ele><time>2026-04-04T11:42:07Z</time></trkpt><trkpt lat="45.9548181389884" lon="12.493009641097988"><ele>24.0</ele><time>2026-04-04T11:42:08Z</time></trkpt><trkpt lat="45.954742817036326" lon="12.492900228567738"><ele>24.0</ele><time>2026-04-04T11:42:10Z</time></trkpt><trkpt lat="45.954659558323385" lon="12.49278686896912"><ele>24.0</ele><time>2026-04-04T11:42:12Z</time></trkpt><trkpt lat="45.95459160682454" lon="12.492712012623029"><ele>24.0</ele><time>2026-04-04T11:42:13Z</time></trkpt><trkpt lat="45.95451938521234" lon="12.492627934941194"><ele>24.0</ele><time>2026-04-04T11:42:14Z</time></trkpt><trkpt lat="45.954445701562115" lon="12.492542260132964"><ele>24.0</ele><time>2026-04-04T11:42:15Z</time></trkpt><trkpt lat="45.95437572554705" lon="12.49246468582165"><ele>24.0</ele><time>2026-04-04T11:42:16Z</time></trkpt><trkpt lat="45.954302466829866" lon="12.49238136334329"><ele>24.0</ele><time>2026-04-04T11:42:17Z</time></trkpt><trkpt lat="45.95421971432967" lon="12.492293331417716"><ele>24.0</ele><time>2026-04-04T11:42:18Z</time></trkpt><trkpt lat="45.95413240895751" lon="12.492198203971125"><ele>24.0</ele><time>2026-04-04T11:42:19Z</time></trkpt><trkpt lat="45.95404515892726" lon="12.492104166094428"><ele>24.0</ele><time>2026-04-04T11:42:20Z</time></trkpt><trkpt lat="45.95395263399619" lon="12.492002618348765"><ele>24.0</ele><time>2026-04-04T11:42:21Z</time></trkpt><trkpt lat="45.953852594854496" lon="12.491897069309"><ele>23.75</ele><time>2026-04-04T11:42:22Z</time></trkpt><trkpt lat="45.95375357013681" lon="12.491793792867517"><ele>23.5</ele><time>2026-04-04T11:42:23Z</time></trkpt><trkpt lat="45.953656372430096" lon="12.491691822158547"><ele>23.25</ele><time>2026-04-04T11:42:24Z</time></trkpt><trkpt lat="45.953561001877745" lon="12.491590707213659"><ele>23.0</ele><time>2026-04-04T11:42:25Z</time></trkpt><trkpt lat="45.953464130386834" lon="12.491487774318935"><ele>24.0</ele><time>2026-04-04T11:42:26Z</time></trkpt><trkpt lat="45.95336677713064" lon="12.491385451948725"><ele>25.0</ele><time>2026-04-04T11:42:27Z</time></trkpt><trkpt lat="45.95326928930925" lon="12.49128259313709"><ele>26.0</ele><time>2026-04-04T11:42:28Z</time></trkpt><trkpt lat="45.9531743695538" lon="12.491180261918634"><ele>27.0</ele><time>2026-04-04T11:42:29Z</time></trkpt><trkpt lat="45.95308166613391" lon="12.49107869497085"><ele>27.25</ele><time>2026-04-04T11:42:30Z</time></trkpt><trkpt lat="45.95298974476427" lon="12.490978486045357"><ele>27.5</ele><time>2026-04-04T11:42:31Z</time></trkpt><trkpt lat="45.95289931720588" lon="12.490877559601847"><ele>27.75</ele><time>2026-04-04T11:42:32Z</time></trkpt><trkpt lat="45.95280877314898" lon="12.490771825814724"><ele>28.0</ele><time>2026-04-04T11:42:33Z</time></trkpt><trkpt lat="45.952717860634614" lon="12.490659264078552"><ele>28.0</ele><time>2026-04-04T11:42:34Z</time></trkpt><trkpt lat="45.95262800262228" lon="12.490543312422966"><ele>28.0</ele><time>2026-04-04T11:42:35Z</time></trkpt><trkpt lat="45.95254308318051" lon="12.490421492590643"><ele>28.0</ele><time>2026-04-04T11:42:36Z</time></trkpt><trkpt lat="45.95246257707806" lon="12.490292475679988"><ele>28.0</ele><time>2026-04-04T11:42:37Z</time></trkpt><trkpt lat="45.952386478910434" lon="12.49015713469619"><ele>27.25</ele><time>2026-04-04T11:42:38Z</time></trkpt><trkpt lat="45.9523161731635" lon="12.490013723961724"><ele>26.5</ele><time>2026-04-04T11:42:39Z</time></trkpt><trkpt lat="45.95224855136683" lon="12.489864366409348"><ele>25.75</ele><time>2026-04-04T11:42:40Z</time></trkpt><trkpt lat="45.95218527795305" lon="12.489708429781828"><ele>25.0</ele><time>2026-04-04T11:42:41Z</time></trkpt><trkpt lat="45.95212372793901" lon="12.48954236252189"><ele>25.0</ele><time>2026-04-04T11:42:42Z</time></trkpt><trkpt lat="45.95206099797163" lon="12.489361675839051"><ele>25.0</ele><time>2026-04-04T11:42:43Z</time></trkpt><trkpt lat="45.951995282791565" lon="12.48915950786724"><ele>25.0</ele><time>2026-04-04T11:42:44Z</time></trkpt><trkpt lat="45.951932480902066" lon="12.488952885640364"><ele>25.333333333333336</ele><time>2026-04-04T11:42:45Z</time></trkpt><trkpt lat="45.95187383055822" lon="12.488754022243164"><ele>25.666666666666664</ele><time>2026-04-04T11:42:46Z</time></trkpt><trkpt lat="45.951815991868735" lon="12.48855128779562"><ele>26.0</ele><time>2026-04-04T11:42:47Z</time></trkpt><trkpt lat="45.951757898220926" lon="12.488344352786433"><ele>26.666666666666664</ele><time>2026-04-04T11:42:48Z</time></trkpt><trkpt lat="45.951699910478254" lon="12.488136366102149"><ele>27.333333333333336</ele><time>2026-04-04T11:42:49Z</time></trkpt><trkpt lat="45.951641869224055" lon="12.487928463978593"><ele>28.0</ele><time>2026-04-04T11:42:50Z</time></trkpt><trkpt lat="45.95158173865901" lon="12.487720683118575"><ele>28.0</ele><time>2026-04-04T11:42:51Z</time></trkpt><trkpt lat="45.951523527138065" lon="12.487511192916761"><ele>28.0</ele><time>2026-04-04T11:42:52Z</time></trkpt><trkpt lat="45.951464617505984" lon="12.48730083859639"><ele>28.0</ele><time>2026-04-04T11:42:53Z</time></trkpt><trkpt lat="45.95140788554184" lon="12.487090394247613"><ele>27.666666666666668</ele><time>2026-04-04T11:42:54Z</time></trkpt><trkpt lat="45.9513526395409" lon="12.486878389107934"><ele>27.333333333333336</ele><time>2026-04-04T11:42:55Z</time></trkpt><trkpt lat="45.95129515555191" lon="12.486664622278111"><ele>27.0</ele><time>2026-04-04T11:42:56Z</time></trkpt><trkpt lat="45.95123795020567" lon="12.486453817651888"><ele>27.0</ele><time>2026-04-04T11:42:57Z</time></trkpt><trkpt lat="45.9511798509277" lon="12.486242048979411"><ele>27.0</ele><time>2026-04-04T11:42:58Z</time></trkpt><trkpt lat="45.95111905219346" lon="12.486037437903564"><ele>27.0</ele><time>2026-04-04T11:42:59Z</time></trkpt><trkpt lat="45.951060734064136" lon="12.485841694525655"><ele>27.0</ele><time>2026-04-04T11:43:00Z</time></trkpt><trkpt lat="45.95100526116415" lon="12.485650418830105"><ele>27.0</ele><time>2026-04-04T11:43:01Z</time></trkpt><trkpt lat="45.95095145844125" lon="12.48546040031089"><ele>27.0</ele><time>2026-04-04T11:43:02Z</time></trkpt><trkpt lat="45.95089564426533" lon="12.485260801995613"><ele>27.0</ele><time>2026-04-04T11:43:03Z</time></trkpt><trkpt lat="45.95084174321877" lon="12.485059324158476"><ele>27.333333333333336</ele><time>2026-04-04T11:43:04Z</time></trkpt><trkpt lat="45.95078730318495" lon="12.484856223018612"><ele>27.666666666666668</ele><time>2026-04-04T11:43:05Z</time></trkpt><trkpt lat="45.950730767470745" lon="12.484652675166714"><ele>28.0</ele><time>2026-04-04T11:43:06Z</time></trkpt><trkpt lat="45.95067304285157" lon="12.484450243171436"><ele>28.25</ele><time>2026-04-04T11:43:07Z</time></trkpt><trkpt lat="45.95061780763094" lon="12.484251111259882"><ele>28.5</ele><time>2026-04-04T11:43:08Z</time></trkpt><trkpt lat="45.95056574309407" lon="12.484063079251717"><ele>28.75</ele><time>2026-04-04T11:43:09Z</time></trkpt><trkpt lat="45.95051399255508" lon="12.483882781230102"><ele>29.0</ele><time>2026-04-04T11:43:10Z</time></trkpt><trkpt lat="45.950469987998204" lon="12.483711728733487"><ele>29.25</ele><time>2026-04-04T11:43:11Z</time></trkpt><trkpt lat="45.95042596667496" lon="12.48354989692376"><ele>29.5</ele><time>2026-04-04T11:43:12Z</time></trkpt><trkpt lat="45.9503848146322" lon="12.483395107581902"><ele>29.75</ele><time>2026-04-04T11:43:13Z</time></trkpt><trkpt lat="45.95034629578582" lon="12.483243617177928"><ele>30.0</ele><time>2026-04-04T11:43:14Z</time></trkpt><trkpt lat="45.95031163898515" lon="12.483099992641733"><ele>30.0</ele><time>2026-04-04T11:43:15Z</time></trkpt><trkpt lat="45.95027849894347" lon="12.482960703549137"><ele>30.0</ele><time>2026-04-04T11:43:16Z</time></trkpt><trkpt lat="45.95024831728217" lon="12.482822247902526"><ele>30.0</ele><time>2026-04-04T11:43:17Z</time></trkpt><trkpt lat="45.950220425412674" lon="12.482683039451084"><ele>30.0</ele><time>2026-04-04T11:43:18Z</time></trkpt><trkpt lat="45.9501975494991" lon="12.48254062407644"><ele>30.0</ele><time>2026-04-04T11:43:19Z</time></trkpt><trkpt lat="45.950170039001065" lon="12.48238970972979"><ele>30.0</ele><time>2026-04-04T11:43:20Z</time></trkpt><trkpt lat="45.95012592609567" lon="12.482228283328283"><ele>30.0</ele><time>2026-04-04T11:43:21Z</time></trkpt><trkpt lat="45.95006660689621" lon="12.48205946786247"><ele>30.0</ele><time>2026-04-04T11:43:22Z</time></trkpt><trkpt lat="45.94999368357294" lon="12.48187477112285"><ele>30.0</ele><time>2026-04-04T11:43:23Z</time></trkpt><trkpt lat="45.94991993930014" lon="12.481678327645799"><ele>29.666666666666664</ele><time>2026-04-04T11:43:24Z</time></trkpt><trkpt lat="45.949852794372205" lon="12.48147333690809"><ele>29.333333333333332</ele><time>2026-04-04T11:43:25Z</time></trkpt><trkpt lat="45.94978850595696" lon="12.481259879547524"><ele>29.0</ele><time>2026-04-04T11:43:26Z</time></trkpt><trkpt lat="45.94972368489504" lon="12.481035200286847"><ele>29.666666666666664</ele><time>2026-04-04T11:43:27Z</time></trkpt><trkpt lat="45.94965992233257" lon="12.48080689425212"><ele>30.333333333333336</ele><time>2026-04-04T11:43:28Z</time></trkpt><trkpt lat="45.949597500980566" lon="12.48058242145791"><ele>31.0</ele><time>2026-04-04T11:43:29Z</time></trkpt><trkpt lat="45.94953580146609" lon="12.4803565023254"><ele>31.0</ele><time>2026-04-04T11:43:30Z</time></trkpt><trkpt lat="45.94947423225979" lon="12.480135563328036"><ele>31.0</ele><time>2026-04-04T11:43:31Z</time></trkpt><trkpt lat="45.94941128930573" lon="12.479912935087226"><ele>31.0</ele><time>2026-04-04T11:43:32Z</time></trkpt><trkpt lat="45.94935071241501" lon="12.47969412415375"><ele>31.0</ele><time>2026-04-04T11:43:33Z</time></trkpt><trkpt lat="45.94928977581428" lon="12.479483777450248"><ele>31.0</ele><time>2026-04-04T11:43:34Z</time></trkpt><trkpt lat="45.94922908599971" lon="12.47927478166414"><ele>31.0</ele><time>2026-04-04T11:43:35Z</time></trkpt><trkpt lat="45.94916912506582" lon="12.479065480388314"><ele>31.0</ele><time>2026-04-04T11:43:36Z</time></trkpt><trkpt lat="45.94911160240704" lon="12.478849366992126"><ele>31.0</ele><time>2026-04-04T11:43:37Z</time></trkpt><trkpt lat="45.94905536715259" lon="12.478634360625367"><ele>31.0</ele><time>2026-04-04T11:43:38Z</time></trkpt><trkpt lat="45.94900014465285" lon="12.478425532141554"><ele>31.0</ele><time>2026-04-04T11:43:39Z</time></trkpt><trkpt lat="45.948945895531416" lon="12.478222834744518"><ele>31.0</ele><time>2026-04-04T11:43:40Z</time></trkpt><trkpt lat="45.948888890861554" lon="12.478015707645776"><ele>31.0</ele><time>2026-04-04T11:43:41Z</time></trkpt><trkpt lat="45.94882974542826" lon="12.477805871168764"><ele>31.333333333333336</ele><time>2026-04-04T11:43:42Z</time></trkpt><trkpt lat="45.94877294428697" lon="12.477604270015696"><ele>31.666666666666664</ele><time>2026-04-04T11:43:43Z</time></trkpt><trkpt lat="45.94871756445564" lon="12.477405990334988"><ele>32.0</ele><time>2026-04-04T11:43:44Z</time></trkpt><trkpt lat="45.94866187503989" lon="12.477205477055733"><ele>31.75</ele><time>2026-04-04T11:43:45Z</time></trkpt><trkpt lat="45.94860530116061" lon="12.477004438242568"><ele>31.5</ele><time>2026-04-04T11:43:46Z</time></trkpt><trkpt lat="45.948548544044364" lon="12.476805389869213"><ele>31.25</ele><time>2026-04-04T11:43:47Z</time></trkpt><trkpt lat="45.94849307698191" lon="12.47660867430674"><ele>31.0</ele><time>2026-04-04T11:43:48Z</time></trkpt><trkpt lat="45.94843969704064" lon="12.47641359719162"><ele>31.25</ele><time>2026-04-04T11:43:49Z</time></trkpt><trkpt lat="45.94838846818478" lon="12.476222965389892"><ele>31.5</ele><time>2026-04-04T11:43:50Z</time></trkpt><trkpt lat="45.94833604344695" lon="12.476040898622669"><ele>31.75</ele><time>2026-04-04T11:43:51Z</time></trkpt><trkpt lat="45.94828871384656" lon="12.475866959581525"><ele>32.0</ele><time>2026-04-04T11:43:52Z</time></trkpt><trkpt lat="45.94824362517628" lon="12.475699433677514"><ele>32.0</ele><time>2026-04-04T11:43:53Z</time></trkpt><trkpt lat="45.94819839527998" lon="12.475535167844395"><ele>32.0</ele><time>2026-04-04T11:43:54Z</time></trkpt><trkpt lat="45.94815708670123" lon="12.475382398409598"><ele>32.0</ele><time>2026-04-04T11:43:55Z</time></trkpt><trkpt lat="45.94812289649513" lon="12.475257670889409"><ele>32.0</ele><time>2026-04-04T11:43:56Z</time></trkpt><trkpt lat="45.948093995491746" lon="12.475154179731636"><ele>32.0</ele><time>2026-04-04T11:43:57Z</time></trkpt><trkpt lat="45.94807028628553" lon="12.475067979429076"><ele>31.999999999999996</ele><time>2026-04-04T11:43:58Z</time></trkpt><trkpt lat="45.94803500447575" lon="12.474935797183353"><ele>32.0</ele><time>2026-04-04T11:44:00Z</time></trkpt><trkpt lat="45.94800158684441" lon="12.47482515089476"><ele>32.0</ele><time>2026-04-04T11:44:02Z</time></trkpt><trkpt lat="45.947967055358866" lon="12.474711724143294"><ele>32.0</ele><time>2026-04-04T11:44:04Z</time></trkpt><trkpt lat="45.94794158744851" lon="12.474627559264771"><ele>31.999999999999996</ele><time>2026-04-04T11:44:05Z</time></trkpt><trkpt lat="45.94791276608079" lon="12.474519952909338"><ele>32.0</ele><time>2026-04-04T11:44:06Z</time></trkpt><trkpt lat="45.947878470452736" lon="12.474387770138879"><ele>31.75</ele><time>2026-04-04T11:44:07Z</time></trkpt><trkpt lat="45.94783858002813" lon="12.47423159874156"><ele>31.5</ele><time>2026-04-04T11:44:08Z</time></trkpt><trkpt lat="45.94779663044039" lon="12.474082470475214"><ele>31.25</ele><time>2026-04-04T11:44:09Z</time></trkpt><trkpt lat="45.947749609677615" lon="12.473927342699813"><ele>31.0</ele><time>2026-04-04T11:44:10Z</time></trkpt><trkpt lat="45.947701932444495" lon="12.47376600568831"><ele>30.75</ele><time>2026-04-04T11:44:11Z</time></trkpt><trkpt lat="45.94765725091792" lon="12.473604113344848"><ele>30.5</ele><time>2026-04-04T11:44:12Z</time></trkpt><trkpt lat="45.94761584158228" lon="12.473437833403743"><ele>30.25</ele><time>2026-04-04T11:44:13Z</time></trkpt><trkpt lat="45.94756970112114" lon="12.473273307435"><ele>30.0</ele><time>2026-04-04T11:44:14Z</time></trkpt><trkpt lat="45.94752010972281" lon="12.473104134406652"><ele>30.5</ele><time>2026-04-04T11:44:15Z</time></trkpt><trkpt lat="45.947467944097255" lon="12.472932750861446"><ele>31.0</ele><time>2026-04-04T11:44:16Z</time></trkpt><trkpt lat="45.94741513284642" lon="12.472751298616519"><ele>31.5</ele><time>2026-04-04T11:44:17Z</time></trkpt><trkpt lat="45.947355739947014" lon="12.472550863056414"><ele>32.0</ele><time>2026-04-04T11:44:18Z</time></trkpt><trkpt lat="45.94729929810054" lon="12.472355890513077"><ele>32.0</ele><time>2026-04-04T11:44:19Z</time></trkpt><trkpt lat="45.947241904848994" lon="12.472154249821791"><ele>32.0</ele><time>2026-04-04T11:44:20Z</time></trkpt><trkpt lat="45.94718540851231" lon="12.471942348342166"><ele>32.0</ele><time>2026-04-04T11:44:21Z</time></trkpt><trkpt lat="45.94712670583069" lon="12.471725260185629"><ele>32.0</ele><time>2026-04-04T11:44:22Z</time></trkpt><trkpt lat="45.94706695377802" lon="12.471502934046285"><ele>32.0</ele><time>2026-04-04T11:44:23Z</time></trkpt><trkpt lat="45.947003765762716" lon="12.471278666472168"><ele>32.0</ele><time>2026-04-04T11:44:24Z</time></trkpt><trkpt lat="45.94693977930304" lon="12.471056417767887"><ele>32.0</ele><time>2026-04-04T11:44:25Z</time></trkpt><trkpt lat="45.94686932535696" lon="12.470818949156511"><ele>32.0</ele><time>2026-04-04T11:44:26Z</time></trkpt><trkpt lat="45.94681283871932" lon="12.470558235636577"><ele>32.0</ele><time>2026-04-04T11:44:27Z</time></trkpt><trkpt lat="45.94673375568291" lon="12.470332832515103"><ele>32.0</ele><time>2026-04-04T11:44:28Z</time></trkpt><trkpt lat="45.946653778744896" lon="12.470006746743273"><ele>32.0</ele><time>2026-04-04T11:44:29Z</time></trkpt><trkpt lat="45.94657305015606" lon="12.469725767049226"><ele>32.666666666666664</ele><time>2026-04-04T11:44:30Z</time></trkpt><trkpt lat="45.94649869095658" lon="12.46946033385146"><ele>33.333333333333336</ele><time>2026-04-04T11:44:31Z</time></trkpt><trkpt lat="45.94642605000093" lon="12.469199993748909"><ele>34.0</ele><time>2026-04-04T11:44:32Z</time></trkpt><trkpt lat="45.94635938271541" lon="12.468955536792368"><ele>34.0</ele><time>2026-04-04T11:44:33Z</time></trkpt><trkpt lat="45.9462956266703" lon="12.468718324767806"><ele>34.0</ele><time>2026-04-04T11:44:34Z</time></trkpt><trkpt lat="45.946230998543996" lon="12.468488558924221"><ele>34.0</ele><time>2026-04-04T11:44:35Z</time></trkpt><trkpt lat="45.94616980065541" lon="12.46826129969088"><ele>34.0</ele><time>2026-04-04T11:44:36Z</time></trkpt><trkpt lat="45.94610892798483" lon="12.468031444787302"><ele>34.0</ele><time>2026-04-04T11:44:37Z</time></trkpt><trkpt lat="45.946048102137325" lon="12.467800230578758"><ele>34.0</ele><time>2026-04-04T11:44:38Z</time></trkpt><trkpt lat="45.945981859501366" lon="12.467569169813547"><ele>34.0</ele><time>2026-04-04T11:44:39Z</time></trkpt><trkpt lat="45.94591392659971" lon="12.467337750417439"><ele>34.0</ele><time>2026-04-04T11:44:40Z</time></trkpt><trkpt lat="45.945848410432625" lon="12.467114297793431"><ele>34.0</ele><time>2026-04-04T11:44:41Z</time></trkpt><trkpt lat="45.945784457162866" lon="12.466892196604839"><ele>34.66666666666667</ele><time>2026-04-04T11:44:42Z</time></trkpt><trkpt lat="45.94572221386522" lon="12.466663940029903"><ele>35.333333333333336</ele><time>2026-04-04T11:44:43Z</time></trkpt><trkpt lat="45.94565689133483" lon="12.466432410358218"><ele>36.0</ele><time>2026-04-04T11:44:44Z</time></trkpt><trkpt lat="45.9455905828361" lon="12.46619091955423"><ele>36.333333333333336</ele><time>2026-04-04T11:44:45Z</time></trkpt><trkpt lat="45.94552913307246" lon="12.465945116690177"><ele>36.66666666666667</ele><time>2026-04-04T11:44:46Z</time></trkpt><trkpt lat="45.94546187412839" lon="12.46569735013572"><ele>37.0</ele><time>2026-04-04T11:44:47Z</time></trkpt><trkpt lat="45.945393644104485" lon="12.465449395560267"><ele>37.0</ele><time>2026-04-04T11:44:48Z</time></trkpt><trkpt lat="45.945329997116644" lon="12.465211075961772"><ele>37.0</ele><time>2026-04-04T11:44:49Z</time></trkpt><trkpt lat="45.945263677504464" lon="12.464985609435862"><ele>37.0</ele><time>2026-04-04T11:44:50Z</time></trkpt><trkpt lat="45.94519675883333" lon="12.464758290631059"><ele>36.66666666666667</ele><time>2026-04-04T11:44:51Z</time></trkpt><trkpt lat="45.94512771571187" lon="12.46452470945813"><ele>36.333333333333336</ele><time>2026-04-04T11:44:52Z</time></trkpt><trkpt lat="45.94505962221152" lon="12.464284561858083"><ele>36.0</ele><time>2026-04-04T11:44:53Z</time></trkpt><trkpt lat="45.94499056274151" lon="12.464044813459358"><ele>35.666666666666664</ele><time>2026-04-04T11:44:54Z</time></trkpt><trkpt lat="45.94492026108394" lon="12.463801606686856"><ele>35.33333333333333</ele><time>2026-04-04T11:44:55Z</time></trkpt><trkpt lat="45.944851017285664" lon="12.463555567058654"><ele>35.0</ele><time>2026-04-04T11:44:56Z</time></trkpt><trkpt lat="45.944780891272806" lon="12.463309063205392"><ele>35.0</ele><time>2026-04-04T11:44:57Z</time></trkpt><trkpt lat="45.94472472154542" lon="12.463046923660544"><ele>35.0</ele><time>2026-04-04T11:44:58Z</time></trkpt><trkpt lat="45.944652380675734" lon="12.462787028348425"><ele>35.0</ele><time>2026-04-04T11:44:59Z</time></trkpt><trkpt lat="45.9445759412643" lon="12.462512163037166"><ele>35.0</ele><time>2026-04-04T11:45:00Z</time></trkpt><trkpt lat="45.944494861922784" lon="12.462219922575422"><ele>35.0</ele><time>2026-04-04T11:45:01Z</time></trkpt><trkpt lat="45.94441092377828" lon="12.46191737791238"><ele>35.0</ele><time>2026-04-04T11:45:02Z</time></trkpt><trkpt lat="45.944320524481036" lon="12.461591989275876"><ele>35.0</ele><time>2026-04-04T11:45:03Z</time></trkpt><trkpt lat="45.944215903528494" lon="12.461250434169912"><ele>35.0</ele><time>2026-04-04T11:45:04Z</time></trkpt><trkpt lat="45.944121677814536" lon="12.460884757301745"><ele>35.0</ele><time>2026-04-04T11:45:05Z</time></trkpt><trkpt lat="45.94402098011801" lon="12.460505954111783"><ele>35.0</ele><time>2026-04-04T11:45:06Z</time></trkpt><trkpt lat="45.94390835086044" lon="12.460120816714465"><ele>35.0</ele><time>2026-04-04T11:45:07Z</time></trkpt><trkpt lat="45.943798122040214" lon="12.459725625592833"><ele>35.0</ele><time>2026-04-04T11:45:08Z</time></trkpt><trkpt lat="45.943694336322984" lon="12.459345337790216"><ele>35.5</ele><time>2026-04-04T11:45:09Z</time></trkpt><trkpt lat="45.943593163668154" lon="12.458985154767573"><ele>36.0</ele><time>2026-04-04T11:45:10Z</time></trkpt><trkpt lat="45.94349355997619" lon="12.458649740966145"><ele>36.5</ele><time>2026-04-04T11:45:11Z</time></trkpt><trkpt lat="45.943396623933346" lon="12.458316488649249"><ele>37.0</ele><time>2026-04-04T11:45:12Z</time></trkpt><trkpt lat="45.943305478251624" lon="12.457986857914316"><ele>36.5</ele><time>2026-04-04T11:45:13Z</time></trkpt><trkpt lat="45.94322200631195" lon="12.457681994585473"><ele>36.0</ele><time>2026-04-04T11:45:14Z</time></trkpt><trkpt lat="45.94313938003641" lon="12.457385140440998"><ele>36.333333333333336</ele><time>2026-04-04T11:45:15Z</time></trkpt><trkpt lat="45.943066420436566" lon="12.457089738122813"><ele>36.66666666666667</ele><time>2026-04-04T11:45:16Z</time></trkpt><trkpt lat="45.94299747797658" lon="12.456814124149444"><ele>37.0</ele><time>2026-04-04T11:45:17Z</time></trkpt><trkpt lat="45.94293319667083" lon="12.456560029617682"><ele>37.0</ele><time>2026-04-04T11:45:18Z</time></trkpt><trkpt lat="45.942880852508466" lon="12.456308850431759"><ele>37.0</ele><time>2026-04-04T11:45:19Z</time></trkpt><trkpt lat="45.94284160979068" lon="12.456064543811912"><ele>37.0</ele><time>2026-04-04T11:45:20Z</time></trkpt><trkpt lat="45.94281669512988" lon="12.455825248298076"><ele>37.5</ele><time>2026-04-04T11:45:21Z</time></trkpt><trkpt lat="45.94280694331282" lon="12.455601669733364"><ele>38.0</ele><time>2026-04-04T11:45:22Z</time></trkpt><trkpt lat="45.94280442654471" lon="12.455392739860958"><ele>38.5</ele><time>2026-04-04T11:45:23Z</time></trkpt><trkpt lat="45.942780589201554" lon="12.455196137057635"><ele>39.0</ele><time>2026-04-04T11:45:24Z</time></trkpt><trkpt lat="45.942783035815985" lon="12.45497979267195"><ele>39.333333333333336</ele><time>2026-04-04T11:45:25Z</time></trkpt><trkpt lat="45.94280979220437" lon="12.454740437442899"><ele>39.66666666666667</ele><time>2026-04-04T11:45:26Z</time></trkpt><trkpt lat="45.94284297221257" lon="12.454490313450027"><ele>40.0</ele><time>2026-04-04T11:45:27Z</time></trkpt><trkpt lat="45.94287528131234" lon="12.454230759277298"><ele>40.0</ele><time>2026-04-04T11:45:28Z</time></trkpt><trkpt lat="45.94290809127495" lon="12.453961673998474"><ele>40.0</ele><time>2026-04-04T11:45:29Z</time></trkpt><trkpt lat="45.94294671605844" lon="12.453681773150413"><ele>40.0</ele><time>2026-04-04T11:45:30Z</time></trkpt><trkpt lat="45.942986219796985" lon="12.453395601266092"><ele>39.333333333333336</ele><time>2026-04-04T11:45:31Z</time></trkpt><trkpt lat="45.94302133308584" lon="12.45309739415433"><ele>38.666666666666664</ele><time>2026-04-04T11:45:32Z</time></trkpt><trkpt lat="45.94305672574093" lon="12.452793213784268"><ele>38.0</ele><time>2026-04-04T11:45:33Z</time></trkpt><trkpt lat="45.94309692045424" lon="12.452478360091067"><ele>38.0</ele><time>2026-04-04T11:45:34Z</time></trkpt><trkpt lat="45.94313986216027" lon="12.452163104428024"><ele>38.0</ele><time>2026-04-04T11:45:35Z</time></trkpt><trkpt lat="45.94318235094596" lon="12.45185201398897"><ele>38.0</ele><time>2026-04-04T11:45:36Z</time></trkpt><trkpt lat="45.943223935186026" lon="12.451549093533327"><ele>37.666666666666664</ele><time>2026-04-04T11:45:37Z</time></trkpt><trkpt lat="45.94326375575102" lon="12.451262611315114"><ele>37.333333333333336</ele><time>2026-04-04T11:45:38Z</time></trkpt><trkpt lat="45.943300620867234" lon="12.451003913977553"><ele>37.0</ele><time>2026-04-04T11:45:39Z</time></trkpt><trkpt lat="45.943330164489886" lon="12.45077471664767"><ele>37.0</ele><time>2026-04-04T11:45:40Z</time></trkpt><trkpt lat="45.943346085769704" lon="12.45056645265448"><ele>37.0</ele><time>2026-04-04T11:45:41Z</time></trkpt><trkpt lat="45.943344183120615" lon="12.45038304923173"><ele>37.0</ele><time>2026-04-04T11:45:42Z</time></trkpt><trkpt lat="45.94333768112555" lon="12.450220870187296"><ele>37.0</ele><time>2026-04-04T11:45:43Z</time></trkpt><trkpt lat="45.94333233777757" lon="12.45007038868807"><ele>37.5</ele><time>2026-04-04T11:45:44Z</time></trkpt><trkpt lat="45.94333918097461" lon="12.449930387788825"><ele>38.0</ele><time>2026-04-04T11:45:45Z</time></trkpt><trkpt lat="45.943360933410695" lon="12.449807474414765"><ele>38.5</ele><time>2026-04-04T11:45:46Z</time></trkpt><trkpt lat="45.94339942029867" lon="12.4497007476391"><ele>39.0</ele><time>2026-04-04T11:45:47Z</time></trkpt><trkpt lat="45.94344905495635" lon="12.449612565979482"><ele>39.5</ele><time>2026-04-04T11:45:48Z</time></trkpt><trkpt lat="45.94351335841995" lon="12.449551619430752"><ele>40.0</ele><time>2026-04-04T11:45:48.999Z</time></trkpt><trkpt lat="45.94358890684558" lon="12.44950362360049"><ele>40.2</ele><time>2026-04-04T11:45:49.999Z</time></trkpt><trkpt lat="45.94367738469136" lon="12.449461611691772"><ele>40.4</ele><time>2026-04-04T11:45:50.999Z</time></trkpt><trkpt lat="45.94376964569527" lon="12.449410229444757"><ele>40.599999999999994</ele><time>2026-04-04T11:45:51.999Z</time></trkpt><trkpt lat="45.94384530701407" lon="12.44933857213394"><ele>40.8</ele><time>2026-04-04T11:45:52.999Z</time></trkpt><trkpt lat="45.9438967492126" lon="12.449232973014283"><ele>41.0</ele><time>2026-04-04T11:45:53.999Z</time></trkpt><trkpt lat="45.94391847673218" lon="12.44911030317195"><ele>41.0</ele><time>2026-04-04T11:45:54.999Z</time></trkpt><trkpt lat="45.943913426395284" lon="12.448984750782715"><ele>41.0</ele><time>2026-04-04T11:45:55.999Z</time></trkpt><trkpt lat="45.94388713073936" lon="12.448863874447815"><ele>41.0</ele><time>2026-04-04T11:45:56.999Z</time></trkpt><trkpt lat="45.94383267720188" lon="12.4487524845584"><ele>41.0</ele><time>2026-04-04T11:45:57.999Z</time></trkpt><trkpt lat="45.94375838298548" lon="12.448655395107371"><ele>41.0</ele><time>2026-04-04T11:45:58.999Z</time></trkpt><trkpt lat="45.94367782014201" lon="12.44855820622917"><ele>40.75</ele><time>2026-04-04T11:45:59.999Z</time></trkpt><trkpt lat="45.94361967533358" lon="12.448447669537984"><ele>40.5</ele><time>2026-04-04T11:46:00.999Z</time></trkpt><trkpt lat="45.94357579217507" lon="12.448301467132794"><ele>40.25</ele><time>2026-04-04T11:46:01.999Z</time></trkpt><trkpt lat="45.9435356364155" lon="12.44812584109638"><ele>40.0</ele><time>2026-04-04T11:46:02.999Z</time></trkpt><trkpt lat="45.94351141944423" lon="12.447920758616723"><ele>40.0</ele><time>2026-04-04T11:46:03.999Z</time></trkpt><trkpt lat="45.94344847943898" lon="12.447712406017178"><ele>40.0</ele><time>2026-04-04T11:46:04.999Z</time></trkpt><trkpt lat="45.94339936236227" lon="12.447509643380709"><ele>40.0</ele><time>2026-04-04T11:46:05.999Z</time></trkpt><trkpt lat="45.94334437088098" lon="12.447296197984477"><ele>40.333333333333336</ele><time>2026-04-04T11:46:06.999Z</time></trkpt><trkpt lat="45.943282448591724" lon="12.447072078856586"><ele>40.666666666666664</ele><time>2026-04-04T11:46:07.999Z</time></trkpt><trkpt lat="45.943217295524654" lon="12.446840994209873"><ele>41.0</ele><time>2026-04-04T11:46:08.999Z</time></trkpt><trkpt lat="45.94315086258758" lon="12.446603606778332"><ele>41.0</ele><time>2026-04-04T11:46:09.999Z</time></trkpt><trkpt lat="45.943083875934974" lon="12.44635127815188"><ele>41.0</ele><time>2026-04-04T11:46:10.999Z</time></trkpt><trkpt lat="45.94300911039647" lon="12.446074033394808"><ele>41.0</ele><time>2026-04-04T11:46:11.999Z</time></trkpt><trkpt lat="45.94292992728009" lon="12.445779321696827"><ele>41.33333333333333</ele><time>2026-04-04T11:46:12.999Z</time></trkpt><trkpt lat="45.94284757685034" lon="12.44549151258966"><ele>41.666666666666664</ele><time>2026-04-04T11:46:13.999Z</time></trkpt><trkpt lat="45.94278666991537" lon="12.445206181897987"><ele>42.0</ele><time>2026-04-04T11:46:14.999Z</time></trkpt><trkpt lat="45.9426840965663" lon="12.444953415952945"><ele>42.0</ele><time>2026-04-04T11:46:15.999Z</time></trkpt><trkpt lat="45.9426062615452" lon="12.444695959820754"><ele>42.0</ele><time>2026-04-04T11:46:16.999Z</time></trkpt><trkpt lat="45.942538231885024" lon="12.444412430534321"><ele>42.0</ele><time>2026-04-04T11:46:17.999Z</time></trkpt><trkpt lat="45.9424823851514" lon="12.444128970795436"><ele>42.0</ele><time>2026-04-04T11:46:18.999Z</time></trkpt><trkpt lat="45.94241710223247" lon="12.443857008920366"><ele>42.0</ele><time>2026-04-04T11:46:20Z</time></trkpt><trkpt lat="45.94235033984849" lon="12.443590021532405"><ele>42.0</ele><time>2026-04-04T11:46:21Z</time></trkpt><trkpt lat="45.94228299263966" lon="12.44332290217006"><ele>42.0</ele><time>2026-04-04T11:46:22Z</time></trkpt><trkpt lat="45.94221396052574" lon="12.443057991999941"><ele>42.0</ele><time>2026-04-04T11:46:23Z</time></trkpt><trkpt lat="45.94214348859022" lon="12.442795196654416"><ele>42.0</ele><time>2026-04-04T11:46:24Z</time></trkpt><trkpt lat="45.942073844681616" lon="12.442529701799712"><ele>42.333333333333336</ele><time>2026-04-04T11:46:25Z</time></trkpt><trkpt lat="45.94200238381974" lon="12.44226037560456"><ele>42.66666666666667</ele><time>2026-04-04T11:46:26Z</time></trkpt><trkpt lat="45.94192964654137" lon="12.44198835410854"><ele>43.0</ele><time>2026-04-04T11:46:27Z</time></trkpt><trkpt lat="45.941855483509286" lon="12.441713794824597"><ele>43.0</ele><time>2026-04-04T11:46:28Z</time></trkpt><trkpt lat="45.94178204290002" lon="12.441434839061408"><ele>43.0</ele><time>2026-04-04T11:46:29Z</time></trkpt><trkpt lat="45.941706853355626" lon="12.441151151967697"><ele>43.0</ele><time>2026-04-04T11:46:30Z</time></trkpt><trkpt lat="45.94163364013674" lon="12.44086133882355"><ele>43.0</ele><time>2026-04-04T11:46:31Z</time></trkpt><trkpt lat="45.941559128677184" lon="12.440570255280779"><ele>43.0</ele><time>2026-04-04T11:46:32Z</time></trkpt><trkpt lat="45.941481522692484" lon="12.440279051649187"><ele>43.0</ele><time>2026-04-04T11:46:33Z</time></trkpt><trkpt lat="45.9414061395665" lon="12.439991856441011"><ele>43.0</ele><time>2026-04-04T11:46:34Z</time></trkpt><trkpt lat="45.94132584217918" lon="12.439706108714516"><ele>43.0</ele><time>2026-04-04T11:46:35Z</time></trkpt><trkpt lat="45.94125085784188" lon="12.439414312593359"><ele>43.0</ele><time>2026-04-04T11:46:36Z</time></trkpt><trkpt lat="45.941172174586505" lon="12.439119466384687"><ele>43.0</ele><time>2026-04-04T11:46:37Z</time></trkpt><trkpt lat="45.94109640540654" lon="12.438821094608882"><ele>43.0</ele><time>2026-04-04T11:46:38Z</time></trkpt><trkpt lat="45.94102083999215" lon="12.438528936611547"><ele>43.0</ele><time>2026-04-04T11:46:39Z</time></trkpt><trkpt lat="45.94094271653454" lon="12.438238354007625"><ele>43.333333333333336</ele><time>2026-04-04T11:46:40Z</time></trkpt><trkpt lat="45.940861227786925" lon="12.437942615844056"><ele>43.666666666666664</ele><time>2026-04-04T11:46:41Z</time></trkpt><trkpt lat="45.940775565148066" lon="12.437643330266427"><ele>44.0</ele><time>2026-04-04T11:46:42Z</time></trkpt><trkpt lat="45.94068807665502" lon="12.437337996079973"><ele>44.5</ele><time>2026-04-04T11:46:43Z</time></trkpt><trkpt lat="45.9406021239495" lon="12.43702628176369"><ele>45.0</ele><time>2026-04-04T11:46:44Z</time></trkpt><trkpt lat="45.940518048346796" lon="12.436710436929447"><ele>45.0</ele><time>2026-04-04T11:46:45Z</time></trkpt><trkpt lat="45.940434089504826" lon="12.436386480303764"><ele>45.0</ele><time>2026-04-04T11:46:46Z</time></trkpt><trkpt lat="45.94034933176161" lon="12.436071811639376"><ele>45.5</ele><time>2026-04-04T11:46:47Z</time></trkpt><trkpt lat="45.940268631958055" lon="12.435761764455927"><ele>46.0</ele><time>2026-04-04T11:46:48Z</time></trkpt><trkpt lat="45.9401925169678" lon="12.435449832392623"><ele>45.5</ele><time>2026-04-04T11:46:49Z</time></trkpt><trkpt lat="45.94010877823803" lon="12.435144482535057"><ele>45.0</ele><time>2026-04-04T11:46:50Z</time></trkpt><trkpt lat="45.940024219808784" lon="12.434842642559069"><ele>45.0</ele><time>2026-04-04T11:46:51Z</time></trkpt><trkpt lat="45.93994860847653" lon="12.434536472439328"><ele>45.0</ele><time>2026-04-04T11:46:52Z</time></trkpt><trkpt lat="45.939894736303074" lon="12.434218820938737"><ele>45.0</ele><time>2026-04-04T11:46:53Z</time></trkpt><trkpt lat="45.939847598223565" lon="12.433878613122959"><ele>45.0</ele><time>2026-04-04T11:46:54Z</time></trkpt><trkpt lat="45.9398738414428" lon="12.43349354070192"><ele>44.5</ele><time>2026-04-04T11:46:55Z</time></trkpt><trkpt lat="45.939896794812114" lon="12.433105909020849"><ele>44.0</ele><time>2026-04-04T11:46:56Z</time></trkpt><trkpt lat="45.93994991801762" lon="12.432684625025429"><ele>43.5</ele><time>2026-04-04T11:46:57Z</time></trkpt><trkpt lat="45.94002467277562" lon="12.432244548276914"><ele>43.0</ele><time>2026-04-04T11:46:58Z</time></trkpt><trkpt lat="45.93974681114327" lon="12.432501656542183"><ele>43.0</ele><time>2026-04-04T11:46:59Z</time></trkpt><trkpt lat="45.939312815698855" lon="12.432153237795704"><ele>43.0</ele><time>2026-04-04T11:47:00Z</time></trkpt><trkpt lat="45.93922608120738" lon="12.431852661722266"><ele>43.0</ele><time>2026-04-04T11:47:01Z</time></trkpt><trkpt lat="45.93914254727503" lon="12.431553077088054"><ele>44.0</ele><time>2026-04-04T11:47:02Z</time></trkpt><trkpt lat="45.93905575033181" lon="12.43125263542117"><ele>45.0</ele><time>2026-04-04T11:47:03Z</time></trkpt><trkpt lat="45.93897739451719" lon="12.430946042418858"><ele>45.0</ele><time>2026-04-04T11:47:04Z</time></trkpt><trkpt lat="45.938898740001754" lon="12.430641594000662"><ele>45.0</ele><time>2026-04-04T11:47:05Z</time></trkpt><trkpt lat="45.93881998720159" lon="12.430338855475906"><ele>44.5</ele><time>2026-04-04T11:47:06Z</time></trkpt><trkpt lat="45.938735571164884" lon="12.430028367766962"><ele>44.0</ele><time>2026-04-04T11:47:07Z</time></trkpt><trkpt lat="45.93865833117662" lon="12.429722731791873"><ele>44.0</ele><time>2026-04-04T11:47:08Z</time></trkpt><trkpt lat="45.938577139926956" lon="12.429420201876374"><ele>44.0</ele><time>2026-04-04T11:47:09Z</time></trkpt><trkpt lat="45.93849728153" lon="12.429114342189118"><ele>43.5</ele><time>2026-04-04T11:47:10Z</time></trkpt><trkpt lat="45.93841644589416" lon="12.428809370693948"><ele>43.0</ele><time>2026-04-04T11:47:11Z</time></trkpt><trkpt lat="45.93833612832197" lon="12.42850165025732"><ele>43.0</ele><time>2026-04-04T11:47:12Z</time></trkpt><trkpt lat="45.93825404826555" lon="12.428198225199912"><ele>43.0</ele><time>2026-04-04T11:47:13Z</time></trkpt><trkpt lat="45.93817227804969" lon="12.427894113955283"><ele>43.0</ele><time>2026-04-04T11:47:14Z</time></trkpt><trkpt lat="45.93809215056848" lon="12.427583978136822"><ele>43.0</ele><time>2026-04-04T11:47:15Z</time></trkpt><trkpt lat="45.93801176185317" lon="12.427274306491764"><ele>43.66666666666667</ele><time>2026-04-04T11:47:16Z</time></trkpt><trkpt lat="45.937935937558265" lon="12.42697218828408"><ele>44.333333333333336</ele><time>2026-04-04T11:47:17Z</time></trkpt><trkpt lat="45.937855365527525" lon="12.42667232625543"><ele>45.0</ele><time>2026-04-04T11:47:18Z</time></trkpt><trkpt lat="45.93777140954668" lon="12.42637533153299"><ele>44.5</ele><time>2026-04-04T11:47:19Z</time></trkpt><trkpt lat="45.93768503757365" lon="12.426073447660354"><ele>44.0</ele><time>2026-04-04T11:47:20Z</time></trkpt><trkpt lat="45.93760271527292" lon="12.425768801549912"><ele>44.666666666666664</ele><time>2026-04-04T11:47:21Z</time></trkpt><trkpt lat="45.937529165522875" lon="12.42546859544657"><ele>45.333333333333336</ele><time>2026-04-04T11:47:22Z</time></trkpt><trkpt lat="45.93744191168888" lon="12.425166076898034"><ele>46.0</ele><time>2026-04-04T11:47:23Z</time></trkpt><trkpt lat="45.937359220914914" lon="12.424860777199694"><ele>47.0</ele><time>2026-04-04T11:47:24Z</time></trkpt><trkpt lat="45.93727767018225" lon="12.424559534803299"><ele>48.0</ele><time>2026-04-04T11:47:25Z</time></trkpt><trkpt lat="45.93720037615578" lon="12.424255059413236"><ele>48.0</ele><time>2026-04-04T11:47:26Z</time></trkpt><trkpt lat="45.93712072305629" lon="12.423950224222873"><ele>48.0</ele><time>2026-04-04T11:47:27Z</time></trkpt><trkpt lat="45.93704021427528" lon="12.423646150043385"><ele>46.5</ele><time>2026-04-04T11:47:28Z</time></trkpt><trkpt lat="45.93695901709247" lon="12.423340860997735"><ele>45.0</ele><time>2026-04-04T11:47:29Z</time></trkpt><trkpt lat="45.93687809333962" lon="12.423037593534263"><ele>45.333333333333336</ele><time>2026-04-04T11:47:30Z</time></trkpt><trkpt lat="45.93679255401597" lon="12.422738282309977"><ele>45.66666666666667</ele><time>2026-04-04T11:47:31Z</time></trkpt><trkpt lat="45.93671450033723" lon="12.422446972313105"><ele>46.0</ele><time>2026-04-04T11:47:32Z</time></trkpt><trkpt lat="45.93663876895745" lon="12.422155552734814"><ele>46.333333333333336</ele><time>2026-04-04T11:47:33Z</time></trkpt><trkpt lat="45.93656145923035" lon="12.421864539138717"><ele>46.666666666666664</ele><time>2026-04-04T11:47:34Z</time></trkpt><trkpt lat="45.936483259306" lon="12.421575734133691"><ele>47.0</ele><time>2026-04-04T11:47:35Z</time></trkpt><trkpt lat="45.93641366899024" lon="12.421305171551843"><ele>47.0</ele><time>2026-04-04T11:47:36Z</time></trkpt><trkpt lat="45.93634110791079" lon="12.421040559582142"><ele>47.0</ele><time>2026-04-04T11:47:37Z</time></trkpt><trkpt lat="45.93627101049671" lon="12.420776818661764"><ele>47.0</ele><time>2026-04-04T11:47:38Z</time></trkpt><trkpt lat="45.93620167579593" lon="12.42051442607356"><ele>47.33333333333333</ele><time>2026-04-04T11:47:39Z</time></trkpt><trkpt lat="45.9361298298931" lon="12.420249057132843"><ele>47.666666666666664</ele><time>2026-04-04T11:47:40Z</time></trkpt><trkpt lat="45.93606096454371" lon="12.41999097853805"><ele>48.0</ele><time>2026-04-04T11:47:41Z</time></trkpt><trkpt lat="45.9359925105363" lon="12.419739192814829"><ele>48.0</ele><time>2026-04-04T11:47:42Z</time></trkpt><trkpt lat="45.935927219511015" lon="12.419486600318896"><ele>48.0</ele><time>2026-04-04T11:47:43Z</time></trkpt><trkpt lat="45.935865795332475" lon="12.419234398015467"><ele>48.0</ele><time>2026-04-04T11:47:44Z</time></trkpt><trkpt lat="45.93580412206174" lon="12.418997643477557"><ele>48.0</ele><time>2026-04-04T11:47:45Z</time></trkpt><trkpt lat="45.935739721045486" lon="12.41876435142903"><ele>48.0</ele><time>2026-04-04T11:47:46Z</time></trkpt><trkpt lat="45.93567797562541" lon="12.418526620087896"><ele>48.0</ele><time>2026-04-04T11:47:47Z</time></trkpt><trkpt lat="45.93561224633634" lon="12.418286371958587"><ele>48.0</ele><time>2026-04-04T11:47:48Z</time></trkpt><trkpt lat="45.93554597810769" lon="12.418049702583883"><ele>48.0</ele><time>2026-04-04T11:47:49Z</time></trkpt><trkpt lat="45.935479045454514" lon="12.417812508497567"><ele>48.0</ele><time>2026-04-04T11:47:50Z</time></trkpt><trkpt lat="45.9354153754325" lon="12.417574683233846"><ele>47.666666666666664</ele><time>2026-04-04T11:47:51Z</time></trkpt><trkpt lat="45.935349861259574" lon="12.417332469017408"><ele>47.33333333333333</ele><time>2026-04-04T11:47:52Z</time></trkpt><trkpt lat="45.93528602302628" lon="12.41708419282843"><ele>47.0</ele><time>2026-04-04T11:47:53Z</time></trkpt><trkpt lat="45.935217789328284" lon="12.416823793042132"><ele>47.0</ele><time>2026-04-04T11:47:54Z</time></trkpt><trkpt lat="45.935145153592444" lon="12.41655656369598"><ele>47.0</ele><time>2026-04-04T11:47:54.999Z</time></trkpt><trkpt lat="45.935077908501256" lon="12.416304163043312"><ele>47.0</ele><time>2026-04-04T11:47:55.999Z</time></trkpt><trkpt lat="45.93501068446782" lon="12.416059606983733"><ele>47.666666666666664</ele><time>2026-04-04T11:47:56.999Z</time></trkpt><trkpt lat="45.934945937973175" lon="12.415811385349372"><ele>48.33333333333333</ele><time>2026-04-04T11:47:57.999Z</time></trkpt><trkpt lat="45.934879695895766" lon="12.415557488124575"><ele>49.0</ele><time>2026-04-04T11:47:58.999Z</time></trkpt><trkpt lat="45.93481183615824" lon="12.415301415676849"><ele>49.33333333333333</ele><time>2026-04-04T11:47:59.999Z</time></trkpt><trkpt lat="45.93474334870669" lon="12.41503656411409"><ele>49.66666666666667</ele><time>2026-04-04T11:48:00.999Z</time></trkpt><trkpt lat="45.93467630091411" lon="12.41476636035533"><ele>50.0</ele><time>2026-04-04T11:48:01.999Z</time></trkpt><trkpt lat="45.9346022968687" lon="12.414501629196739"><ele>50.0</ele><time>2026-04-04T11:48:02.999Z</time></trkpt><trkpt lat="45.9345298951637" lon="12.414231991624783"><ele>50.0</ele><time>2026-04-04T11:48:03.999Z</time></trkpt><trkpt lat="45.93445696110947" lon="12.413957407277277"><ele>50.0</ele><time>2026-04-04T11:48:04.999Z</time></trkpt><trkpt lat="45.934382951578414" lon="12.413678724833238"><ele>50.0</ele><time>2026-04-04T11:48:05.999Z</time></trkpt><trkpt lat="45.93430977895271" lon="12.413411758713846"><ele>50.0</ele><time>2026-04-04T11:48:06.999Z</time></trkpt><trkpt lat="45.93423596442745" lon="12.413143228609343"><ele>50.0</ele><time>2026-04-04T11:48:07.999Z</time></trkpt><trkpt lat="45.93416369613079" lon="12.412873687677386"><ele>50.0</ele><time>2026-04-04T11:48:08.999Z</time></trkpt><trkpt lat="45.93408975474966" lon="12.412603611902606"><ele>50.0</ele><time>2026-04-04T11:48:09.999Z</time></trkpt><trkpt lat="45.93401739788258" lon="12.412340305091652"><ele>50.0</ele><time>2026-04-04T11:48:10.999Z</time></trkpt><trkpt lat="45.93394538079551" lon="12.412069401037831"><ele>50.0</ele><time>2026-04-04T11:48:11.999Z</time></trkpt><trkpt lat="45.93387119558676" lon="12.411794854796193"><ele>50.0</ele><time>2026-04-04T11:48:12.999Z</time></trkpt><trkpt lat="45.93380733945977" lon="12.411531265009982"><ele>50.0</ele><time>2026-04-04T11:48:13.999Z</time></trkpt><trkpt lat="45.933739570846846" lon="12.411278145360074"><ele>50.0</ele><time>2026-04-04T11:48:14.999Z</time></trkpt><trkpt lat="45.93367224019503" lon="12.411028460341024"><ele>50.0</ele><time>2026-04-04T11:48:15.999Z</time></trkpt><trkpt lat="45.93361052392236" lon="12.410787973015108"><ele>50.0</ele><time>2026-04-04T11:48:16.999Z</time></trkpt><trkpt lat="45.93354112897804" lon="12.41054713195762"><ele>50.333333333333336</ele><time>2026-04-04T11:48:17.999Z</time></trkpt><trkpt lat="45.933476002772146" lon="12.410311626286978"><ele>50.66666666666667</ele><time>2026-04-04T11:48:18.999Z</time></trkpt><trkpt lat="45.93341433699805" lon="12.41007665930801"><ele>51.0</ele><time>2026-04-04T11:48:19.999Z</time></trkpt><trkpt lat="45.93335044857258" lon="12.40983611525803"><ele>51.0</ele><time>2026-04-04T11:48:20.999Z</time></trkpt><trkpt lat="45.93328654815723" lon="12.40959620815246"><ele>51.0</ele><time>2026-04-04T11:48:21.999Z</time></trkpt><trkpt lat="45.93322382870115" lon="12.409354154379203"><ele>51.0</ele><time>2026-04-04T11:48:22.999Z</time></trkpt><trkpt lat="45.93315861624091" lon="12.409105961929233"><ele>51.0</ele><time>2026-04-04T11:48:23.999Z</time></trkpt><trkpt lat="45.93309246759564" lon="12.408852819360165"><ele>51.0</ele><time>2026-04-04T11:48:24.999Z</time></trkpt><trkpt lat="45.933024731593996" lon="12.408595854163098"><ele>51.0</ele><time>2026-04-04T11:48:26Z</time></trkpt><trkpt lat="45.9329537055458" lon="12.40832685495078"><ele>51.33333333333333</ele><time>2026-04-04T11:48:27Z</time></trkpt><trkpt lat="45.93288066042406" lon="12.408056711712595"><ele>51.666666666666664</ele><time>2026-04-04T11:48:28Z</time></trkpt><trkpt lat="45.93280828402139" lon="12.407783974113068"><ele>52.0</ele><time>2026-04-04T11:48:29Z</time></trkpt><trkpt lat="45.93273450944273" lon="12.407508417098066"><ele>52.0</ele><time>2026-04-04T11:48:30Z</time></trkpt><trkpt lat="45.93265900899701" lon="12.407225205418726"><ele>52.0</ele><time>2026-04-04T11:48:31Z</time></trkpt><trkpt lat="45.93258341559991" lon="12.406939607417897"><ele>52.0</ele><time>2026-04-04T11:48:32Z</time></trkpt><trkpt lat="45.93250488321674" lon="12.40665074234322"><ele>51.666666666666664</ele><time>2026-04-04T11:48:33Z</time></trkpt><trkpt lat="45.93242644147223" lon="12.40636185126441"><ele>51.33333333333333</ele><time>2026-04-04T11:48:34Z</time></trkpt><trkpt lat="45.93234895575622" lon="12.406074093635477"><ele>51.0</ele><time>2026-04-04T11:48:35Z</time></trkpt><trkpt lat="45.93227451691452" lon="12.405789746287404"><ele>51.0</ele><time>2026-04-04T11:48:36Z</time></trkpt><trkpt lat="45.932200223775496" lon="12.405505497626491"><ele>51.0</ele><time>2026-04-04T11:48:37Z</time></trkpt><trkpt lat="45.932126798434176" lon="12.405222045777084"><ele>51.0</ele><time>2026-04-04T11:48:38Z</time></trkpt><trkpt lat="45.932053096285685" lon="12.404934758964924"><ele>51.66666666666667</ele><time>2026-04-04T11:48:39Z</time></trkpt><trkpt lat="45.931979401828116" lon="12.404650746470413"><ele>52.333333333333336</ele><time>2026-04-04T11:48:40Z</time></trkpt><trkpt lat="45.93190182525059" lon="12.404363833893356"><ele>53.0</ele><time>2026-04-04T11:48:41Z</time></trkpt><trkpt lat="45.93182600470226" lon="12.404078915532194"><ele>53.0</ele><time>2026-04-04T11:48:42Z</time></trkpt><trkpt lat="45.93174593088262" lon="12.403793144062783"><ele>53.0</ele><time>2026-04-04T11:48:43Z</time></trkpt><trkpt lat="45.93166800302821" lon="12.403499672455437"><ele>53.0</ele><time>2026-04-04T11:48:44Z</time></trkpt><trkpt lat="45.93158713810595" lon="12.403207067529674"><ele>53.0</ele><time>2026-04-04T11:48:45Z</time></trkpt><trkpt lat="45.93151456014907" lon="12.402930351887035"><ele>53.0</ele><time>2026-04-04T11:48:46Z</time></trkpt><trkpt lat="45.931440534261185" lon="12.402669295625657"><ele>53.0</ele><time>2026-04-04T11:48:47Z</time></trkpt><trkpt lat="45.931373813956895" lon="12.402409694172507"><ele>53.66666666666667</ele><time>2026-04-04T11:48:48Z</time></trkpt><trkpt lat="45.931307204860545" lon="12.40216185262685"><ele>54.33333333333333</ele><time>2026-04-04T11:48:49Z</time></trkpt><trkpt lat="45.93124271787527" lon="12.401912414276255"><ele>55.0</ele><time>2026-04-04T11:48:50Z</time></trkpt><trkpt lat="45.93117824056884" lon="12.40167123484372"><ele>55.0</ele><time>2026-04-04T11:48:51Z</time></trkpt><trkpt lat="45.931113867934926" lon="12.401424556171932"><ele>55.0</ele><time>2026-04-04T11:48:52Z</time></trkpt><trkpt lat="45.93105218787744" lon="12.401183499245217"><ele>55.0</ele><time>2026-04-04T11:48:53Z</time></trkpt><trkpt lat="45.93099399843001" lon="12.400941193449038"><ele>55.0</ele><time>2026-04-04T11:48:54Z</time></trkpt><trkpt lat="45.93094355663734" lon="12.400699479759117"><ele>55.0</ele><time>2026-04-04T11:48:55Z</time></trkpt><trkpt lat="45.93090273833693" lon="12.400457644167467"><ele>55.0</ele><time>2026-04-04T11:48:56Z</time></trkpt><trkpt lat="45.93086800836488" lon="12.400211809673849"><ele>55.25</ele><time>2026-04-04T11:48:57Z</time></trkpt><trkpt lat="45.93083866782725" lon="12.399980052794453"><ele>55.5</ele><time>2026-04-04T11:48:58Z</time></trkpt><trkpt lat="45.93080610250592" lon="12.399775849196002"><ele>55.75</ele><time>2026-04-04T11:48:59Z</time></trkpt><trkpt lat="45.93076135191981" lon="12.399609890226525"><ele>56.0</ele><time>2026-04-04T11:49:00Z</time></trkpt><trkpt lat="45.93071751567214" lon="12.399467761133444"><ele>55.50000000000001</ele><time>2026-04-04T11:49:01Z</time></trkpt><trkpt lat="45.93066211883028" lon="12.399366943370037"><ele>55.0</ele><time>2026-04-04T11:49:02Z</time></trkpt><trkpt lat="45.93059914485675" lon="12.399271315596717"><ele>54.5</ele><time>2026-04-04T11:49:03Z</time></trkpt><trkpt lat="45.93053505072876" lon="12.399188842029126"><ele>54.0</ele><time>2026-04-04T11:49:04Z</time></trkpt><trkpt lat="45.930470093229864" lon="12.399107479022247"><ele>53.50000000000001</ele><time>2026-04-04T11:49:05Z</time></trkpt><trkpt lat="45.93041779216264" lon="12.39905291601942"><ele>53.0</ele><time>2026-04-04T11:49:06Z</time></trkpt><trkpt lat="45.93036641084952" lon="12.398989966962885"><ele>53.00000000000001</ele><time>2026-04-04T11:49:07Z</time></trkpt><trkpt lat="45.93031224545558" lon="12.398927681442045"><ele>53.0</ele><time>2026-04-04T11:49:08Z</time></trkpt><trkpt lat="45.9302613955037" lon="12.398855074241126"><ele>53.0</ele><time>2026-04-04T11:49:09Z</time></trkpt><trkpt lat="45.93021064164683" lon="12.398786510723745"><ele>53.0</ele><time>2026-04-04T11:49:10Z</time></trkpt><trkpt lat="45.93015643386088" lon="12.398715546056696"><ele>53.00000000000001</ele><time>2026-04-04T11:49:11Z</time></trkpt><trkpt lat="45.93009207737678" lon="12.398630439034562"><ele>53.0</ele><time>2026-04-04T11:49:12Z</time></trkpt><trkpt lat="45.93001961063" lon="12.398535796029618"><ele>52.75</ele><time>2026-04-04T11:49:13Z</time></trkpt><trkpt lat="45.929944446227424" lon="12.398437640158269"><ele>52.5</ele><time>2026-04-04T11:49:14Z</time></trkpt><trkpt lat="45.92986145101965" lon="12.398331437979811"><ele>52.25</ele><time>2026-04-04T11:49:15Z</time></trkpt><trkpt lat="45.92977691839793" lon="12.39821486909634"><ele>52.0</ele><time>2026-04-04T11:49:16Z</time></trkpt><trkpt lat="45.92968758656779" lon="12.398096078520554"><ele>52.25</ele><time>2026-04-04T11:49:17Z</time></trkpt><trkpt lat="45.92959256290225" lon="12.397969930675972"><ele>52.5</ele><time>2026-04-04T11:49:18Z</time></trkpt><trkpt lat="45.929497033708735" lon="12.397821941153406"><ele>52.75</ele><time>2026-04-04T11:49:19Z</time></trkpt><trkpt lat="45.92939953072781" lon="12.397670643027954"><ele>53.0</ele><time>2026-04-04T11:49:20Z</time></trkpt><trkpt lat="45.92931611163872" lon="12.397519757102394"><ele>53.0</ele><time>2026-04-04T11:49:21Z</time></trkpt><trkpt lat="45.92922809245617" lon="12.397375744338127"><ele>53.0</ele><time>2026-04-04T11:49:22Z</time></trkpt><trkpt lat="45.929146023640676" lon="12.397228368222999"><ele>53.0</ele><time>2026-04-04T11:49:23Z</time></trkpt><trkpt lat="45.92906914681468" lon="12.397072013935643"><ele>53.0</ele><time>2026-04-04T11:49:24Z</time></trkpt><trkpt lat="45.92899580973431" lon="12.396912737713487"><ele>53.0</ele><time>2026-04-04T11:49:25Z</time></trkpt><trkpt lat="45.92894016275875" lon="12.39674230754405"><ele>53.0</ele><time>2026-04-04T11:49:26Z</time></trkpt><trkpt lat="45.92889964199923" lon="12.396556056005164"><ele>53.0</ele><time>2026-04-04T11:49:27Z</time></trkpt><trkpt lat="45.92887482277092" lon="12.396361784525217"><ele>53.0</ele><time>2026-04-04T11:49:28Z</time></trkpt><trkpt lat="45.928852786760906" lon="12.396157686623877"><ele>53.5</ele><time>2026-04-04T11:49:29Z</time></trkpt><trkpt lat="45.92883164660736" lon="12.39595129594932"><ele>54.0</ele><time>2026-04-04T11:49:30Z</time></trkpt><trkpt lat="45.928800360420304" lon="12.395750819731141"><ele>54.5</ele><time>2026-04-04T11:49:31Z</time></trkpt><trkpt lat="45.9287714900254" lon="12.39555364836044"><ele>55.0</ele><time>2026-04-04T11:49:32Z</time></trkpt><trkpt lat="45.92874456262314" lon="12.395352912177158"><ele>55.0</ele><time>2026-04-04T11:49:33Z</time></trkpt><trkpt lat="45.928716329376506" lon="12.395151686817142"><ele>55.0</ele><time>2026-04-04T11:49:34Z</time></trkpt><trkpt lat="45.92868380200108" lon="12.394934879240383"><ele>55.0</ele><time>2026-04-04T11:49:35Z</time></trkpt><trkpt lat="45.92865562377779" lon="12.394718534494046"><ele>55.0</ele><time>2026-04-04T11:49:36Z</time></trkpt><trkpt lat="45.92862769336868" lon="12.394493525019827"><ele>55.0</ele><time>2026-04-04T11:49:37Z</time></trkpt><trkpt lat="45.928604269096105" lon="12.394263801026046"><ele>55.0</ele><time>2026-04-04T11:49:38Z</time></trkpt><trkpt lat="45.92857482738084" lon="12.394023530351834"><ele>54.666666666666664</ele><time>2026-04-04T11:49:39Z</time></trkpt><trkpt lat="45.9285449885549" lon="12.393778015566058"><ele>54.33333333333333</ele><time>2026-04-04T11:49:40Z</time></trkpt><trkpt lat="45.9285217522215" lon="12.393523021152681"><ele>54.0</ele><time>2026-04-04T11:49:40.999Z</time></trkpt><trkpt lat="45.928506257548044" lon="12.393260306499606"><ele>53.66666666666667</ele><time>2026-04-04T11:49:41.999Z</time></trkpt><trkpt lat="45.928490694324125" lon="12.392993477469483"><ele>53.333333333333336</ele><time>2026-04-04T11:49:42.999Z</time></trkpt><trkpt lat="45.92847789309701" lon="12.39273088088851"><ele>53.0</ele><time>2026-04-04T11:49:43.999Z</time></trkpt><trkpt lat="45.92846462460467" lon="12.3924703851216"><ele>53.0</ele><time>2026-04-04T11:49:44.999Z</time></trkpt><trkpt lat="45.92844960200383" lon="12.39220704082071"><ele>53.0</ele><time>2026-04-04T11:49:45.999Z</time></trkpt><trkpt lat="45.928433993153895" lon="12.391953639169202"><ele>53.0</ele><time>2026-04-04T11:49:46.999Z</time></trkpt><trkpt lat="45.928416895962116" lon="12.391701231633803"><ele>54.0</ele><time>2026-04-04T11:49:47.999Z</time></trkpt><trkpt lat="45.928399464965274" lon="12.391449113519082"><ele>55.0</ele><time>2026-04-04T11:49:48.999Z</time></trkpt><trkpt lat="45.92838426182965" lon="12.391196965813828"><ele>56.0</ele><time>2026-04-04T11:49:49.999Z</time></trkpt><trkpt lat="45.92836824241643" lon="12.390942174005064"><ele>56.0</ele><time>2026-04-04T11:49:50.999Z</time></trkpt><trkpt lat="45.928352727582656" lon="12.390686668533375"><ele>56.0</ele><time>2026-04-04T11:49:51.999Z</time></trkpt><trkpt lat="45.928339633792206" lon="12.390431123663003"><ele>56.0</ele><time>2026-04-04T11:49:52.999Z</time></trkpt><trkpt lat="45.928324598341455" lon="12.390176062332348"><ele>56.0</ele><time>2026-04-04T11:49:53.999Z</time></trkpt><trkpt lat="45.92831058287574" lon="12.38991934607398"><ele>56.0</ele><time>2026-04-04T11:49:54.999Z</time></trkpt><trkpt lat="45.92829632703568" lon="12.389659577023636"><ele>56.0</ele><time>2026-04-04T11:49:55.999Z</time></trkpt><trkpt lat="45.928281723403245" lon="12.389402958353823"><ele>56.0</ele><time>2026-04-04T11:49:56.999Z</time></trkpt><trkpt lat="45.92826556061332" lon="12.389148552379991"><ele>56.0</ele><time>2026-04-04T11:49:57.999Z</time></trkpt><trkpt lat="45.928247307099745" lon="12.38889316335578"><ele>56.0</ele><time>2026-04-04T11:49:58.999Z</time></trkpt><trkpt lat="45.928228794629746" lon="12.388635056964779"><ele>55.66666666666667</ele><time>2026-04-04T11:49:59.999Z</time></trkpt><trkpt lat="45.92821523479716" lon="12.388385258278012"><ele>55.33333333333333</ele><time>2026-04-04T11:50:00.999Z</time></trkpt><trkpt lat="45.92820021425702" lon="12.388134405049442"><ele>55.0</ele><time>2026-04-04T11:50:01.999Z</time></trkpt><trkpt lat="45.92818304717398" lon="12.387887054481647"><ele>55.33333333333333</ele><time>2026-04-04T11:50:02.999Z</time></trkpt><trkpt lat="45.928161002814974" lon="12.387636824807553"><ele>55.66666666666667</ele><time>2026-04-04T11:50:03.999Z</time></trkpt><trkpt lat="45.928133592857364" lon="12.387375803930466"><ele>56.0</ele><time>2026-04-04T11:50:04.999Z</time></trkpt><trkpt lat="45.92809861943357" lon="12.387102718841515"><ele>56.0</ele><time>2026-04-04T11:50:05.999Z</time></trkpt><trkpt lat="45.928058790782984" lon="12.386831339952929"><ele>56.0</ele><time>2026-04-04T11:50:06.999Z</time></trkpt><trkpt lat="45.92800978892973" lon="12.38654901964337"><ele>56.0</ele><time>2026-04-04T11:50:07.999Z</time></trkpt><trkpt lat="45.927954853383056" lon="12.386263955738395"><ele>56.0</ele><time>2026-04-04T11:50:08.999Z</time></trkpt><trkpt lat="45.927899599285155" lon="12.385989486460192"><ele>56.0</ele><time>2026-04-04T11:50:09.999Z</time></trkpt><trkpt lat="45.92784379682974" lon="12.385721186796895"><ele>56.0</ele><time>2026-04-04T11:50:10.999Z</time></trkpt><trkpt lat="45.92778762314727" lon="12.385458075424449"><ele>56.333333333333336</ele><time>2026-04-04T11:50:11.999Z</time></trkpt><trkpt lat="45.92772909079253" lon="12.3851938674156"><ele>56.66666666666667</ele><time>2026-04-04T11:50:12.999Z</time></trkpt><trkpt lat="45.92767291790852" lon="12.384930934592319"><ele>57.0</ele><time>2026-04-04T11:50:13.999Z</time></trkpt><trkpt lat="45.927617577991086" lon="12.384666576333784"><ele>57.0</ele><time>2026-04-04T11:50:14.999Z</time></trkpt><trkpt lat="45.92756197311306" lon="12.384404251113377"><ele>57.0</ele><time>2026-04-04T11:50:15.999Z</time></trkpt><trkpt lat="45.92750609700752" lon="12.384140689006427"><ele>57.0</ele><time>2026-04-04T11:50:16.999Z</time></trkpt><trkpt lat="45.927451648947375" lon="12.38387975029238"><ele>57.0</ele><time>2026-04-04T11:50:17.999Z</time></trkpt><trkpt lat="45.92739629823289" lon="12.383625974770322"><ele>57.0</ele><time>2026-04-04T11:50:18.999Z</time></trkpt><trkpt lat="45.92734236727539" lon="12.383376048800002"><ele>57.0</ele><time>2026-04-04T11:50:19.999Z</time></trkpt><trkpt lat="45.92729092955971" lon="12.383131102255325"><ele>57.33333333333333</ele><time>2026-04-04T11:50:20.999Z</time></trkpt><trkpt lat="45.92723653689266" lon="12.382883042986547"><ele>57.666666666666664</ele><time>2026-04-04T11:50:21.999Z</time></trkpt><trkpt lat="45.92718205839631" lon="12.382632593169241"><ele>58.0</ele><time>2026-04-04T11:50:22.999Z</time></trkpt><trkpt lat="45.927128851961825" lon="12.38237877911932"><ele>58.0</ele><time>2026-04-04T11:50:23.999Z</time></trkpt><trkpt lat="45.92707463841252" lon="12.38212330964458"><ele>58.0</ele><time>2026-04-04T11:50:24.999Z</time></trkpt><trkpt lat="45.927020000567836" lon="12.381869039319472"><ele>58.0</ele><time>2026-04-04T11:50:25.999Z</time></trkpt><trkpt lat="45.92696691269957" lon="12.381614975312601"><ele>58.0</ele><time>2026-04-04T11:50:26.999Z</time></trkpt><trkpt lat="45.92691336577095" lon="12.381361245571286"><ele>58.0</ele><time>2026-04-04T11:50:27.999Z</time></trkpt><trkpt lat="45.92686172644068" lon="12.381105196418776"><ele>58.0</ele><time>2026-04-04T11:50:28.999Z</time></trkpt><trkpt lat="45.92680807168095" lon="12.38084942569878"><ele>57.666666666666664</ele><time>2026-04-04T11:50:29.999Z</time></trkpt><trkpt lat="45.92675495638733" lon="12.38059259167832"><ele>57.33333333333333</ele><time>2026-04-04T11:50:30.999Z</time></trkpt><trkpt lat="45.92670155164761" lon="12.38033666376626"><ele>57.0</ele><time>2026-04-04T11:50:32Z</time></trkpt><trkpt lat="45.92665171160283" lon="12.38007496770382"><ele>57.0</ele><time>2026-04-04T11:50:33Z</time></trkpt><trkpt lat="45.926602659670955" lon="12.379832458793151"><ele>57.0</ele><time>2026-04-04T11:50:34Z</time></trkpt><trkpt lat="45.926555580886905" lon="12.379605617245184"><ele>57.0</ele><time>2026-04-04T11:50:35Z</time></trkpt><trkpt lat="45.926507970428176" lon="12.379386063617895"><ele>57.0</ele><time>2026-04-04T11:50:36Z</time></trkpt><trkpt lat="45.926463941235454" lon="12.379170191397021"><ele>57.0</ele><time>2026-04-04T11:50:37Z</time></trkpt><trkpt lat="45.926414449236304" lon="12.378961248110592"><ele>57.0</ele><time>2026-04-04T11:50:38Z</time></trkpt><trkpt lat="45.92636551296267" lon="12.378744946060635"><ele>57.33333333333333</ele><time>2026-04-04T11:50:39Z</time></trkpt><trkpt lat="45.92631785157578" lon="12.378527556919897"><ele>57.666666666666664</ele><time>2026-04-04T11:50:40Z</time></trkpt><trkpt lat="45.926267099314366" lon="12.378301103646333"><ele>58.0</ele><time>2026-04-04T11:50:41Z</time></trkpt><trkpt lat="45.926216293035026" lon="12.378072737825597"><ele>58.0</ele><time>2026-04-04T11:50:42Z</time></trkpt><trkpt lat="45.926167606190134" lon="12.377854818741817"><ele>58.0</ele><time>2026-04-04T11:50:43Z</time></trkpt><trkpt lat="45.92612143924297" lon="12.377644340680467"><ele>58.0</ele><time>2026-04-04T11:50:44Z</time></trkpt><trkpt lat="45.926074417370614" lon="12.377439285660518"><ele>58.0</ele><time>2026-04-04T11:50:45Z</time></trkpt><trkpt lat="45.92602935118117" lon="12.377239636011018"><ele>58.0</ele><time>2026-04-04T11:50:46Z</time></trkpt><trkpt lat="45.925983501824554" lon="12.37703838404969"><ele>58.0</ele><time>2026-04-04T11:50:47Z</time></trkpt><trkpt lat="45.92593886271115" lon="12.376836471869474"><ele>58.0</ele><time>2026-04-04T11:50:48Z</time></trkpt><trkpt lat="45.925896128931356" lon="12.376640357605712"><ele>57.75</ele><time>2026-04-04T11:50:49Z</time></trkpt><trkpt lat="45.925854659301706" lon="12.376450722095926"><ele>57.5</ele><time>2026-04-04T11:50:50Z</time></trkpt><trkpt lat="45.925815073797224" lon="12.376269684450948"><ele>57.25</ele><time>2026-04-04T11:50:51Z</time></trkpt><trkpt lat="45.9257773942919" lon="12.376096599904121"><ele>57.0</ele><time>2026-04-04T11:50:52Z</time></trkpt><trkpt lat="45.92574397816393" lon="12.375935890176388"><ele>57.0</ele><time>2026-04-04T11:50:53Z</time></trkpt><trkpt lat="45.925714063327405" lon="12.375791044961757"><ele>57.0</ele><time>2026-04-04T11:50:54Z</time></trkpt><trkpt lat="45.925688597633666" lon="12.375659563438706"><ele>57.0</ele><time>2026-04-04T11:50:55Z</time></trkpt><trkpt lat="45.9256762643861" lon="12.375542110603657"><ele>57.0</ele><time>2026-04-04T11:50:56Z</time></trkpt><trkpt lat="45.92568424527769" lon="12.375428624508192"><ele>57.0</ele><time>2026-04-04T11:50:57Z</time></trkpt><trkpt lat="45.92571279187082" lon="12.375323908436734"><ele>57.0</ele><time>2026-04-04T11:50:58Z</time></trkpt><trkpt lat="45.925757225004816" lon="12.375225280589328"><ele>57.166666666666664</ele><time>2026-04-04T11:50:59Z</time></trkpt><trkpt lat="45.9257973128417" lon="12.375120372887505"><ele>57.33333333333333</ele><time>2026-04-04T11:51:00Z</time></trkpt><trkpt lat="45.92581297041609" lon="12.375002544240548"><ele>57.5</ele><time>2026-04-04T11:51:01Z</time></trkpt><trkpt lat="45.925803714705374" lon="12.37488563617309"><ele>57.666666666666664</ele><time>2026-04-04T11:51:02Z</time></trkpt><trkpt lat="45.925763919582856" lon="12.374780167431068"><ele>57.83333333333333</ele><time>2026-04-04T11:51:03Z</time></trkpt><trkpt lat="45.92570684476401" lon="12.374691638929088"><ele>58.0</ele><time>2026-04-04T11:51:04Z</time></trkpt><trkpt lat="45.92563360404248" lon="12.374627618402599"><ele>58.2</ele><time>2026-04-04T11:51:05Z</time></trkpt><trkpt lat="45.9255455864758" lon="12.374573359061822"><ele>58.4</ele><time>2026-04-04T11:51:06Z</time></trkpt><trkpt lat="45.92544779889495" lon="12.37450988804477"><ele>58.60000000000001</ele><time>2026-04-04T11:51:07Z</time></trkpt><trkpt lat="45.92536373163137" lon="12.374417959539583"><ele>58.800000000000004</ele><time>2026-04-04T11:51:08Z</time></trkpt><trkpt lat="45.925301008455016" lon="12.37430186142557"><ele>59.0</ele><time>2026-04-04T11:51:09Z</time></trkpt><trkpt lat="45.92525301636752" lon="12.374149225969107"><ele>59.0</ele><time>2026-04-04T11:51:10Z</time></trkpt><trkpt lat="45.92520963952384" lon="12.373968102189773"><ele>59.0</ele><time>2026-04-04T11:51:11Z</time></trkpt><trkpt lat="45.92516537662848" lon="12.373769071846647"><ele>59.0</ele><time>2026-04-04T11:51:12Z</time></trkpt><trkpt lat="45.92511679938302" lon="12.373555957173739"><ele>59.0</ele><time>2026-04-04T11:51:13Z</time></trkpt><trkpt lat="45.92506491942842" lon="12.3733333980398"><ele>58.0</ele><time>2026-04-04T11:51:14Z</time></trkpt><trkpt lat="45.925006946896225" lon="12.37310685033636"><ele>57.0</ele><time>2026-04-04T11:51:15Z</time></trkpt><trkpt lat="45.924946256520634" lon="12.372868899681107"><ele>56.0</ele><time>2026-04-04T11:51:16Z</time></trkpt><trkpt lat="45.92488533539519" lon="12.372621796524902"><ele>56.0</ele><time>2026-04-04T11:51:17Z</time></trkpt><trkpt lat="45.924826626448294" lon="12.372385705203884"><ele>56.0</ele><time>2026-04-04T11:51:18Z</time></trkpt><trkpt lat="45.92476833091043" lon="12.372158320092435"><ele>56.0</ele><time>2026-04-04T11:51:19Z</time></trkpt><trkpt lat="45.92471236472786" lon="12.371927069169658"><ele>56.0</ele><time>2026-04-04T11:51:20Z</time></trkpt><trkpt lat="45.92466025764888" lon="12.371698488728747"><ele>56.0</ele><time>2026-04-04T11:51:21Z</time></trkpt><trkpt lat="45.92460990195786" lon="12.37147484991156"><ele>56.0</ele><time>2026-04-04T11:51:22Z</time></trkpt><trkpt lat="45.92455788905044" lon="12.371253071700513"><ele>56.0</ele><time>2026-04-04T11:51:23Z</time></trkpt><trkpt lat="45.92450628097474" lon="12.371036564701624"><ele>56.0</ele><time>2026-04-04T11:51:24Z</time></trkpt><trkpt lat="45.924455648181706" lon="12.370829155079342"><ele>56.0</ele><time>2026-04-04T11:51:25Z</time></trkpt><trkpt lat="45.92440780931645" lon="12.370626097898224"><ele>55.66666666666667</ele><time>2026-04-04T11:51:26Z</time></trkpt><trkpt lat="45.92435503291026" lon="12.370418782958257"><ele>55.33333333333333</ele><time>2026-04-04T11:51:27Z</time></trkpt><trkpt lat="45.92430472391833" lon="12.370215942615902"><ele>55.0</ele><time>2026-04-04T11:51:28Z</time></trkpt><trkpt lat="45.92425196451945" lon="12.370002693558849"><ele>55.33333333333333</ele><time>2026-04-04T11:51:29Z</time></trkpt><trkpt lat="45.924199004288276" lon="12.369783468403458"><ele>55.66666666666667</ele><time>2026-04-04T11:51:30Z</time></trkpt><trkpt lat="45.92414461163585" lon="12.369557293091708"><ele>56.0</ele><time>2026-04-04T11:51:31Z</time></trkpt><trkpt lat="45.924105928353164" lon="12.36932804641114"><ele>56.0</ele><time>2026-04-04T11:51:32Z</time></trkpt><trkpt lat="45.924035715935254" lon="12.369108128358903"><ele>56.0</ele><time>2026-04-04T11:51:33Z</time></trkpt><trkpt lat="45.923981195423856" lon="12.368875446486"><ele>56.0</ele><time>2026-04-04T11:51:34Z</time></trkpt><trkpt lat="45.92392700100609" lon="12.368644702643147"><ele>56.0</ele><time>2026-04-04T11:51:35Z</time></trkpt><trkpt lat="45.92387386160216" lon="12.36841745672459"><ele>56.0</ele><time>2026-04-04T11:51:36Z</time></trkpt><trkpt lat="45.92382331738774" lon="12.368195818066834"><ele>56.0</ele><time>2026-04-04T11:51:37Z</time></trkpt><trkpt lat="45.92377095905403" lon="12.367974335106508"><ele>55.75</ele><time>2026-04-04T11:51:38Z</time></trkpt><trkpt lat="45.92372029850323" lon="12.36776709422129"><ele>55.5</ele><time>2026-04-04T11:51:39Z</time></trkpt><trkpt lat="45.92367118864622" lon="12.367565162108667"><ele>55.25</ele><time>2026-04-04T11:51:40Z</time></trkpt><trkpt lat="45.9236248646124" lon="12.367373653161769"><ele>55.0</ele><time>2026-04-04T11:51:41Z</time></trkpt><trkpt lat="45.92358002358712" lon="12.367187230041814"><ele>55.5</ele><time>2026-04-04T11:51:41.999Z</time></trkpt><trkpt lat="45.923535725545065" lon="12.367006905086798"><ele>56.0</ele><time>2026-04-04T11:51:42.999Z</time></trkpt><trkpt lat="45.92349457568846" lon="12.366828788741742"><ele>56.5</ele><time>2026-04-04T11:51:43.999Z</time></trkpt><trkpt lat="45.92345270971775" lon="12.366653505514288"><ele>57.0</ele><time>2026-04-04T11:51:44.999Z</time></trkpt><trkpt lat="45.92341072139924" lon="12.366479448365888"><ele>57.0</ele><time>2026-04-04T11:51:45.999Z</time></trkpt><trkpt lat="45.92336637726103" lon="12.366302586044501"><ele>57.0</ele><time>2026-04-04T11:51:46.999Z</time></trkpt><trkpt lat="45.92331916921174" lon="12.366115314636316"><ele>57.0</ele><time>2026-04-04T11:51:47.999Z</time></trkpt><trkpt lat="45.923270583699455" lon="12.365916523886375"><ele>57.0</ele><time>2026-04-04T11:51:48.999Z</time></trkpt><trkpt lat="45.923222586854834" lon="12.365711687101099"><ele>57.25</ele><time>2026-04-04T11:51:49.999Z</time></trkpt><trkpt lat="45.92317408999274" lon="12.365502589457808"><ele>57.5</ele><time>2026-04-04T11:51:50.999Z</time></trkpt><trkpt lat="45.92312890038779" lon="12.365302569422223"><ele>57.75</ele><time>2026-04-04T11:51:51.999Z</time></trkpt><trkpt lat="45.92308504998412" lon="12.365106651000453"><ele>58.0</ele><time>2026-04-04T11:51:52.999Z</time></trkpt><trkpt lat="45.92303926016224" lon="12.364918100067808"><ele>58.0</ele><time>2026-04-04T11:51:53.999Z</time></trkpt><trkpt lat="45.92299484501126" lon="12.364731834842855"><ele>58.0</ele><time>2026-04-04T11:51:54.999Z</time></trkpt><trkpt lat="45.92294824974176" lon="12.364541172828183"><ele>58.0</ele><time>2026-04-04T11:51:55.999Z</time></trkpt><trkpt lat="45.922900812440176" lon="12.36434685086879"><ele>58.0</ele><time>2026-04-04T11:51:56.999Z</time></trkpt><trkpt lat="45.922852853906086" lon="12.364153442701193"><ele>58.25</ele><time>2026-04-04T11:51:57.999Z</time></trkpt><trkpt lat="45.92280759233566" lon="12.363964591150571"><ele>58.5</ele><time>2026-04-04T11:51:58.999Z</time></trkpt><trkpt lat="45.922763986916856" lon="12.363782957830843"><ele>58.75</ele><time>2026-04-04T11:51:59.999Z</time></trkpt><trkpt lat="45.92271949716457" lon="12.36360860482529"><ele>59.0</ele><time>2026-04-04T11:52:00.999Z</time></trkpt><trkpt lat="45.922677805211734" lon="12.363438988857341"><ele>59.0</ele><time>2026-04-04T11:52:01.999Z</time></trkpt><trkpt lat="45.922635144924335" lon="12.363269854673092"><ele>59.0</ele><time>2026-04-04T11:52:02.999Z</time></trkpt><trkpt lat="45.922587346379004" lon="12.363089385036048"><ele>59.0</ele><time>2026-04-04T11:52:03.999Z</time></trkpt><trkpt lat="45.92253974437307" lon="12.362899088379836"><ele>59.0</ele><time>2026-04-04T11:52:04.999Z</time></trkpt><trkpt lat="45.92249306699972" lon="12.3627114068894"><ele>58.5</ele><time>2026-04-04T11:52:05.999Z</time></trkpt><trkpt lat="45.922445490964066" lon="12.362519788973735"><ele>58.0</ele><time>2026-04-04T11:52:06.999Z</time></trkpt><trkpt lat="45.92239645118013" lon="12.362321718955839"><ele>57.5</ele><time>2026-04-04T11:52:07.999Z</time></trkpt><trkpt lat="45.922350238584634" lon="12.362128036887494"><ele>57.0</ele><time>2026-04-04T11:52:08.999Z</time></trkpt><trkpt lat="45.92230883443958" lon="12.361944104318171"><ele>57.0</ele><time>2026-04-04T11:52:09.999Z</time></trkpt><trkpt lat="45.92226816209539" lon="12.361774583670606"><ele>57.0</ele><time>2026-04-04T11:52:10.999Z</time></trkpt><trkpt lat="45.922228070906556" lon="12.36161660208889"><ele>57.0</ele><time>2026-04-04T11:52:11.999Z</time></trkpt><trkpt lat="45.92219267702641" lon="12.361464651019594"><ele>57.0</ele><time>2026-04-04T11:52:12.999Z</time></trkpt><trkpt lat="45.922154853060995" lon="12.361322125145891"><ele>57.6</ele><time>2026-04-04T11:52:13.999Z</time></trkpt><trkpt lat="45.9221263514245" lon="12.361185569316945"><ele>58.2</ele><time>2026-04-04T11:52:14.999Z</time></trkpt><trkpt lat="45.92209469652015" lon="12.361054551737814"><ele>58.8</ele><time>2026-04-04T11:52:15.999Z</time></trkpt><trkpt lat="45.92206584614769" lon="12.360924003199539"><ele>59.4</ele><time>2026-04-04T11:52:16.999Z</time></trkpt><trkpt lat="45.92203459115416" lon="12.360793768098992"><ele>60.0</ele><time>2026-04-04T11:52:17.999Z</time></trkpt><trkpt lat="45.92200478512892" lon="12.360670388690444"><ele>60.0</ele><time>2026-04-04T11:52:18.999Z</time></trkpt><trkpt lat="45.92197257331469" lon="12.36053811099029"><ele>60.0</ele><time>2026-04-04T11:52:19.999Z</time></trkpt><trkpt lat="45.92193993128624" lon="12.360406186259677"><ele>60.0</ele><time>2026-04-04T11:52:20.999Z</time></trkpt><trkpt lat="45.92191120356154" lon="12.360287196664325"><ele>60.0</ele><time>2026-04-04T11:52:21.999Z</time></trkpt><trkpt lat="45.9218736223296" lon="12.360145840045297"><ele>60.0</ele><time>2026-04-04T11:52:23.999Z</time></trkpt><trkpt lat="45.92185110680514" lon="12.36005584458064"><ele>60.0</ele><time>2026-04-04T11:52:25.999Z</time></trkpt><trkpt lat="45.9218305218396" lon="12.359965310484029"><ele>60.0</ele><time>2026-04-04T11:52:28.999Z</time></trkpt><trkpt lat="45.92180132027416" lon="12.359851242787945"><ele>60.0</ele><time>2026-04-04T11:52:44Z</time></trkpt><trkpt lat="45.92177253999952" lon="12.359738649413497"><ele>60.0</ele><time>2026-04-04T11:52:46Z</time></trkpt><trkpt lat="45.92174913899601" lon="12.359646752128691"><ele>60.0</ele><time>2026-04-04T11:52:47Z</time></trkpt><trkpt lat="45.92172508606027" lon="12.35953065797273"><ele>60.0</ele><time>2026-04-04T11:52:48Z</time></trkpt><trkpt lat="45.921696825900725" lon="12.359416911069673"><ele>59.75</ele><time>2026-04-04T11:52:49Z</time></trkpt><trkpt lat="45.92166373541328" lon="12.35928609813078"><ele>59.5</ele><time>2026-04-04T11:52:50Z</time></trkpt><trkpt lat="45.92162606448116" lon="12.359132787270706"><ele>59.25</ele><time>2026-04-04T11:52:51Z</time></trkpt><trkpt lat="45.9215890446123" lon="12.358961327911736"><ele>59.0</ele><time>2026-04-04T11:52:52Z</time></trkpt><trkpt lat="45.921550393113606" lon="12.358800035434939"><ele>59.0</ele><time>2026-04-04T11:52:53Z</time></trkpt><trkpt lat="45.9215096680121" lon="12.358643121964334"><ele>59.0</ele><time>2026-04-04T11:52:54Z</time></trkpt><trkpt lat="45.92146541362951" lon="12.358474262481721"><ele>59.0</ele><time>2026-04-04T11:52:55Z</time></trkpt><trkpt lat="45.92142318591317" lon="12.35829660963177"><ele>59.0</ele><time>2026-04-04T11:52:56Z</time></trkpt><trkpt lat="45.92138188460623" lon="12.358122093517464"><ele>59.5</ele><time>2026-04-04T11:52:57Z</time></trkpt><trkpt lat="45.92133850587079" lon="12.357949019673066"><ele>60.0</ele><time>2026-04-04T11:52:58Z</time></trkpt><trkpt lat="45.92129536846771" lon="12.357776040571716"><ele>60.5</ele><time>2026-04-04T11:52:59Z</time></trkpt><trkpt lat="45.921254127132215" lon="12.357604455785436"><ele>61.0</ele><time>2026-04-04T11:53:00Z</time></trkpt><trkpt lat="45.92119940244094" lon="12.357438381751848"><ele>61.0</ele><time>2026-04-04T11:53:01Z</time></trkpt><trkpt lat="45.92115367021459" lon="12.35726818048886"><ele>61.0</ele><time>2026-04-04T11:53:02Z</time></trkpt><trkpt lat="45.92108622755972" lon="12.3571162157575"><ele>61.0</ele><time>2026-04-04T11:53:03Z</time></trkpt><trkpt lat="45.921002220966294" lon="12.356986558262468"><ele>61.0</ele><time>2026-04-04T11:53:04Z</time></trkpt><trkpt lat="45.92092612350953" lon="12.356852689497442"><ele>60.5</ele><time>2026-04-04T11:53:05Z</time></trkpt><trkpt lat="45.920848590708424" lon="12.356724756425612"><ele>60.0</ele><time>2026-04-04T11:53:06Z</time></trkpt><trkpt lat="45.92076576308035" lon="12.356601270428222"><ele>59.5</ele><time>2026-04-04T11:53:07Z</time></trkpt><trkpt lat="45.920677557556225" lon="12.356474946471385"><ele>59.0</ele><time>2026-04-04T11:53:08Z</time></trkpt><trkpt lat="45.920579898930285" lon="12.356338345504065"><ele>58.5</ele><time>2026-04-04T11:53:09Z</time></trkpt><trkpt lat="45.920475937668826" lon="12.35619345176719"><ele>58.0</ele><time>2026-04-04T11:53:10Z</time></trkpt><trkpt lat="45.920378994752454" lon="12.356053849475517"><ele>57.5</ele><time>2026-04-04T11:53:11Z</time></trkpt><trkpt lat="45.920282692477066" lon="12.355919057762023"><ele>57.0</ele><time>2026-04-04T11:53:12Z</time></trkpt><trkpt lat="45.92018577092981" lon="12.355784327860116"><ele>57.0</ele><time>2026-04-04T11:53:13Z</time></trkpt><trkpt lat="45.92009701751458" lon="12.355648035519511"><ele>57.0</ele><time>2026-04-04T11:53:14Z</time></trkpt><trkpt lat="45.92001117382509" lon="12.355519999393845"><ele>57.0</ele><time>2026-04-04T11:53:15Z</time></trkpt><trkpt lat="45.919928053444956" lon="12.355394176650735"><ele>57.0</ele><time>2026-04-04T11:53:16Z</time></trkpt><trkpt lat="45.919840337875115" lon="12.355266471814227"><ele>57.25</ele><time>2026-04-04T11:53:17Z</time></trkpt><trkpt lat="45.91974406629724" lon="12.355135264401161"><ele>57.5</ele><time>2026-04-04T11:53:18Z</time></trkpt><trkpt lat="45.91964572124384" lon="12.354996131080012"><ele>57.75</ele><time>2026-04-04T11:53:19Z</time></trkpt><trkpt lat="45.91954950981942" lon="12.354857963402686"><ele>58.0</ele><time>2026-04-04T11:53:20Z</time></trkpt><trkpt lat="45.91945279819131" lon="12.354719369041115"><ele>58.0</ele><time>2026-04-04T11:53:21Z</time></trkpt><trkpt lat="45.919351656403606" lon="12.354577019717713"><ele>58.0</ele><time>2026-04-04T11:53:22Z</time></trkpt><trkpt lat="45.919246609711" lon="12.354428888973143"><ele>58.0</ele><time>2026-04-04T11:53:23Z</time></trkpt><trkpt lat="45.919138808520465" lon="12.354277902657781"><ele>58.0</ele><time>2026-04-04T11:53:24Z</time></trkpt><trkpt lat="45.919038438337715" lon="12.354132338383359"><ele>57.5</ele><time>2026-04-04T11:53:25Z</time></trkpt><trkpt lat="45.91893693999061" lon="12.353988110248196"><ele>57.0</ele><time>2026-04-04T11:53:26Z</time></trkpt><trkpt lat="45.91883617151703" lon="12.353843283881007"><ele>56.5</ele><time>2026-04-04T11:53:27Z</time></trkpt><trkpt lat="45.918733615954956" lon="12.353695717662056"><ele>56.0</ele><time>2026-04-04T11:53:28Z</time></trkpt><trkpt lat="45.918630767488715" lon="12.353543251896443"><ele>56.0</ele><time>2026-04-04T11:53:29Z</time></trkpt><trkpt lat="45.91852729485023" lon="12.353391559782844"><ele>56.0</ele><time>2026-04-04T11:53:30Z</time></trkpt><trkpt lat="45.91842814848368" lon="12.353248482163085"><ele>56.0</ele><time>2026-04-04T11:53:31Z</time></trkpt><trkpt lat="45.91833542481824" lon="12.353111886875908"><ele>56.0</ele><time>2026-04-04T11:53:32Z</time></trkpt><trkpt lat="45.91824155450645" lon="12.352976115634121"><ele>55.75</ele><time>2026-04-04T11:53:33Z</time></trkpt><trkpt lat="45.91814578364408" lon="12.35283764333253"><ele>55.5</ele><time>2026-04-04T11:53:34Z</time></trkpt><trkpt lat="45.91805335345016" lon="12.3526874469183"><ele>55.25</ele><time>2026-04-04T11:53:35Z</time></trkpt><trkpt lat="45.917952231975356" lon="12.352545672216857"><ele>55.0</ele><time>2026-04-04T11:53:36Z</time></trkpt><trkpt lat="45.91784593537057" lon="12.352397376835501"><ele>55.0</ele><time>2026-04-04T11:53:37Z</time></trkpt><trkpt lat="45.917735113841914" lon="12.35224406303778"><ele>55.0</ele><time>2026-04-04T11:53:38Z</time></trkpt><trkpt lat="45.91762347375504" lon="12.35208030929752"><ele>55.0</ele><time>2026-04-04T11:53:39Z</time></trkpt><trkpt lat="45.91751716829904" lon="12.351921971877864"><ele>55.0</ele><time>2026-04-04T11:53:40Z</time></trkpt><trkpt lat="45.91741151725863" lon="12.351766648046894"><ele>55.0</ele><time>2026-04-04T11:53:41Z</time></trkpt><trkpt lat="45.91730543538936" lon="12.351615765653195"><ele>55.0</ele><time>2026-04-04T11:53:42Z</time></trkpt><trkpt lat="45.917199301776385" lon="12.351463320287971"><ele>54.33333333333333</ele><time>2026-04-04T11:53:43Z</time></trkpt><trkpt lat="45.91709435585816" lon="12.351312107713818"><ele>53.66666666666667</ele><time>2026-04-04T11:53:44Z</time></trkpt><trkpt lat="45.91698643366029" lon="12.351161118603121"><ele>53.0</ele><time>2026-04-04T11:53:45Z</time></trkpt><trkpt lat="45.91687916536331" lon="12.35100686665538"><ele>53.0</ele><time>2026-04-04T11:53:46Z</time></trkpt><trkpt lat="45.916769314525105" lon="12.350847587083896"><ele>53.0</ele><time>2026-04-04T11:53:47Z</time></trkpt><trkpt lat="45.916651822351355" lon="12.350682264605522"><ele>53.0</ele><time>2026-04-04T11:53:48Z</time></trkpt><trkpt lat="45.91653720762394" lon="12.350514774021871"><ele>53.66666666666667</ele><time>2026-04-04T11:53:49Z</time></trkpt><trkpt lat="45.91642366489947" lon="12.35035147691629"><ele>54.33333333333333</ele><time>2026-04-04T11:53:50Z</time></trkpt><trkpt lat="45.91630982982132" lon="12.350193276510055"><ele>55.0</ele><time>2026-04-04T11:53:51Z</time></trkpt><trkpt lat="45.91619272087599" lon="12.350028124587643"><ele>55.0</ele><time>2026-04-04T11:53:52Z</time></trkpt><trkpt lat="45.91606567529601" lon="12.349854063054352"><ele>55.0</ele><time>2026-04-04T11:53:53Z</time></trkpt><trkpt lat="45.91592468302345" lon="12.349670230824488"><ele>55.0</ele><time>2026-04-04T11:53:54Z</time></trkpt><trkpt lat="45.91580424929519" lon="12.349429337219492"><ele>55.0</ele><time>2026-04-04T11:53:54.999Z</time></trkpt><trkpt lat="45.91565027845191" lon="12.349206851545922"><ele>55.0</ele><time>2026-04-04T11:53:55.999Z</time></trkpt><trkpt lat="45.915502428364945" lon="12.348992820704913"><ele>55.0</ele><time>2026-04-04T11:53:56.999Z</time></trkpt><trkpt lat="45.915360020953194" lon="12.348788075207583"><ele>55.0</ele><time>2026-04-04T11:53:57.999Z</time></trkpt><trkpt lat="45.91522663405741" lon="12.348596392686003"><ele>55.0</ele><time>2026-04-04T11:53:58.999Z</time></trkpt><trkpt lat="45.9151015017099" lon="12.348417017836741"><ele>55.0</ele><time>2026-04-04T11:53:59.999Z</time></trkpt><trkpt lat="45.91497951116056" lon="12.348269714689405"><ele>55.0</ele><time>2026-04-04T11:54:00.999Z</time></trkpt><trkpt lat="45.914877295677016" lon="12.34811449501606"><ele>55.0</ele><time>2026-04-04T11:54:01.999Z</time></trkpt><trkpt lat="45.91477727160947" lon="12.34796046079984"><ele>55.0</ele><time>2026-04-04T11:54:02.999Z</time></trkpt><trkpt lat="45.914677805060975" lon="12.347811591710434"><ele>55.0</ele><time>2026-04-04T11:54:03.999Z</time></trkpt><trkpt lat="45.91457241108796" lon="12.347665098433286"><ele>55.5</ele><time>2026-04-04T11:54:04.999Z</time></trkpt><trkpt lat="45.914470418764445" lon="12.347520305005391"><ele>56.0</ele><time>2026-04-04T11:54:05.999Z</time></trkpt><trkpt lat="45.91436965721021" lon="12.347376532367864"><ele>56.5</ele><time>2026-04-04T11:54:06.999Z</time></trkpt><trkpt lat="45.91427072128437" lon="12.34723190430347"><ele>57.0</ele><time>2026-04-04T11:54:07.999Z</time></trkpt><trkpt lat="45.91417134118018" lon="12.347091277565942"><ele>57.0</ele><time>2026-04-04T11:54:08.999Z</time></trkpt><trkpt lat="45.91408240265525" lon="12.346961975099628"><ele>57.0</ele><time>2026-04-04T11:54:09.999Z</time></trkpt><trkpt lat="45.91399264667983" lon="12.346834733322055"><ele>57.0</ele><time>2026-04-04T11:54:10.999Z</time></trkpt><trkpt lat="45.913901640433735" lon="12.346702910601854"><ele>57.0</ele><time>2026-04-04T11:54:11.999Z</time></trkpt><trkpt lat="45.91380639793646" lon="12.34656408178558"><ele>57.0</ele><time>2026-04-04T11:54:12.999Z</time></trkpt><trkpt lat="45.91370969943063" lon="12.346424324942513"><ele>57.0</ele><time>2026-04-04T11:54:13.999Z</time></trkpt><trkpt lat="45.91360442478962" lon="12.346275028775741"><ele>57.0</ele><time>2026-04-04T11:54:14.999Z</time></trkpt><trkpt lat="45.91350993542505" lon="12.346140551451255"><ele>57.0</ele><time>2026-04-04T11:54:15.999Z</time></trkpt><trkpt lat="45.91342307044892" lon="12.346011214819812"><ele>57.25</ele><time>2026-04-04T11:54:16.999Z</time></trkpt><trkpt lat="45.91333347769553" lon="12.345882042933292"><ele>57.5</ele><time>2026-04-04T11:54:17.999Z</time></trkpt><trkpt lat="45.9132420728844" lon="12.34574719127147"><ele>57.75</ele><time>2026-04-04T11:54:18.999Z</time></trkpt><trkpt lat="45.91314509336698" lon="12.345609170979968"><ele>58.0</ele><time>2026-04-04T11:54:19.999Z</time></trkpt><trkpt lat="45.91304335579595" lon="12.345464734438574"><ele>58.33333333333333</ele><time>2026-04-04T11:54:20.999Z</time></trkpt><trkpt lat="45.912939425895665" lon="12.345311528054973"><ele>58.66666666666667</ele><time>2026-04-04T11:54:21.999Z</time></trkpt><trkpt lat="45.9128305886995" lon="12.34515587579858"><ele>59.0</ele><time>2026-04-04T11:54:22.999Z</time></trkpt><trkpt lat="45.9127230566653" lon="12.345000491834151"><ele>59.0</ele><time>2026-04-04T11:54:23.999Z</time></trkpt><trkpt lat="45.91261554826708" lon="12.344844687134444"><ele>59.0</ele><time>2026-04-04T11:54:24.999Z</time></trkpt><trkpt lat="45.91250637962812" lon="12.344691279580562"><ele>59.0</ele><time>2026-04-04T11:54:25.999Z</time></trkpt><trkpt lat="45.912398290590595" lon="12.344534904847944"><ele>58.66666666666667</ele><time>2026-04-04T11:54:26.999Z</time></trkpt><trkpt lat="45.91228976980155" lon="12.344379757268603"><ele>58.33333333333333</ele><time>2026-04-04T11:54:27.999Z</time></trkpt><trkpt lat="45.91218320044722" lon="12.34422460061678"><ele>58.0</ele><time>2026-04-04T11:54:28.999Z</time></trkpt><trkpt lat="45.91207930067836" lon="12.34407347632482"><ele>58.0</ele><time>2026-04-04T11:54:29.999Z</time></trkpt><trkpt lat="45.9119756949961" lon="12.34392528559747"><ele>58.0</ele><time>2026-04-04T11:54:30.999Z</time></trkpt><trkpt lat="45.91187062030386" lon="12.34377589589282"><ele>58.0</ele><time>2026-04-04T11:54:31.999Z</time></trkpt><trkpt lat="45.9117704169384" lon="12.343630066660378"><ele>58.0</ele><time>2026-04-04T11:54:32.999Z</time></trkpt><trkpt lat="45.911665980300846" lon="12.343478322675699"><ele>58.25</ele><time>2026-04-04T11:54:33.999Z</time></trkpt><trkpt lat="45.911561874109644" lon="12.343328356164593"><ele>58.5</ele><time>2026-04-04T11:54:34.999Z</time></trkpt><trkpt lat="45.911456530981134" lon="12.343175846886144"><ele>58.75</ele><time>2026-04-04T11:54:35.999Z</time></trkpt><trkpt lat="45.91135049770042" lon="12.343022479421075"><ele>59.0</ele><time>2026-04-04T11:54:36.999Z</time></trkpt><trkpt lat="45.911246213649584" lon="12.34287344458212"><ele>59.5</ele><time>2026-04-04T11:54:37.999Z</time></trkpt><trkpt lat="45.91114220562673" lon="12.342721795154201"><ele>60.0</ele><time>2026-04-04T11:54:38.999Z</time></trkpt><trkpt lat="45.91103709840344" lon="12.34256928386019"><ele>60.5</ele><time>2026-04-04T11:54:39.999Z</time></trkpt><trkpt lat="45.91093217594319" lon="12.34241523500449"><ele>61.0</ele><time>2026-04-04T11:54:40.999Z</time></trkpt><trkpt lat="45.9108141541887" lon="12.342252249896896"><ele>61.0</ele><time>2026-04-04T11:54:41.999Z</time></trkpt><trkpt lat="45.91069758386199" lon="12.342059777723257"><ele>61.0</ele><time>2026-04-04T11:54:42.999Z</time></trkpt><trkpt lat="45.91055142887543" lon="12.341891671939015"><ele>61.0</ele><time>2026-04-04T11:54:44Z</time></trkpt><trkpt lat="45.91042771825459" lon="12.341708986307049"><ele>61.0</ele><time>2026-04-04T11:54:45Z</time></trkpt><trkpt lat="45.91030864744948" lon="12.341535364716925"><ele>61.0</ele><time>2026-04-04T11:54:46Z</time></trkpt><trkpt lat="45.910196290897865" lon="12.341362406913198"><ele>61.0</ele><time>2026-04-04T11:54:47Z</time></trkpt><trkpt lat="45.910086791018365" lon="12.341192219129622"><ele>60.666666666666664</ele><time>2026-04-04T11:54:48Z</time></trkpt><trkpt lat="45.909977223507745" lon="12.341028063116008"><ele>60.33333333333333</ele><time>2026-04-04T11:54:49Z</time></trkpt><trkpt lat="45.909864784085556" lon="12.340864928380215"><ele>60.0</ele><time>2026-04-04T11:54:50Z</time></trkpt><trkpt lat="45.90974901705749" lon="12.340700658947114"><ele>60.0</ele><time>2026-04-04T11:54:51Z</time></trkpt><trkpt lat="45.909637367646155" lon="12.34054317738718"><ele>60.0</ele><time>2026-04-04T11:54:52Z</time></trkpt><trkpt lat="45.90952338584794" lon="12.34038611657419"><ele>60.0</ele><time>2026-04-04T11:54:53Z</time></trkpt><trkpt lat="45.90941526811696" lon="12.340231724570954"><ele>60.0</ele><time>2026-04-04T11:54:54Z</time></trkpt><trkpt lat="45.90930664248554" lon="12.34007644784251"><ele>60.0</ele><time>2026-04-04T11:54:55Z</time></trkpt><trkpt lat="45.909195448879196" lon="12.33991515868912"><ele>60.0</ele><time>2026-04-04T11:54:56Z</time></trkpt><trkpt lat="45.909083807144576" lon="12.339758815793367"><ele>60.25</ele><time>2026-04-04T11:54:57Z</time></trkpt><trkpt lat="45.90897667825501" lon="12.339612678241723"><ele>60.5</ele><time>2026-04-04T11:54:58Z</time></trkpt><trkpt lat="45.90887265854313" lon="12.339450891016964"><ele>60.75</ele><time>2026-04-04T11:54:59Z</time></trkpt><trkpt lat="45.90877662025442" lon="12.339292750678952"><ele>61.0</ele><time>2026-04-04T11:55:00Z</time></trkpt><trkpt lat="45.90867996350402" lon="12.339149328764604"><ele>61.0</ele><time>2026-04-04T11:55:01Z</time></trkpt><trkpt lat="45.908578176625305" lon="12.339018037358585"><ele>61.0</ele><time>2026-04-04T11:55:02Z</time></trkpt><trkpt lat="45.90848744501518" lon="12.338865632395928"><ele>61.0</ele><time>2026-04-04T11:55:03Z</time></trkpt><trkpt lat="45.9083852064506" lon="12.338716829862914"><ele>61.0</ele><time>2026-04-04T11:55:04Z</time></trkpt><trkpt lat="45.9082804706983" lon="12.338563910311406"><ele>61.0</ele><time>2026-04-04T11:55:05Z</time></trkpt><trkpt lat="45.90817603563848" lon="12.338410679364548"><ele>61.0</ele><time>2026-04-04T11:55:06Z</time></trkpt><trkpt lat="45.90806416363549" lon="12.338258662817463"><ele>61.0</ele><time>2026-04-04T11:55:07Z</time></trkpt><trkpt lat="45.90794729350606" lon="12.338113237596783"><ele>61.5</ele><time>2026-04-04T11:55:08Z</time></trkpt><trkpt lat="45.9078300400115" lon="12.337977725121705"><ele>62.0</ele><time>2026-04-04T11:55:09Z</time></trkpt><trkpt lat="45.907712341034156" lon="12.33785630621487"><ele>62.5</ele><time>2026-04-04T11:55:10Z</time></trkpt><trkpt lat="45.90759314078999" lon="12.337747899098416"><ele>63.0</ele><time>2026-04-04T11:55:11Z</time></trkpt><trkpt lat="45.90747452766719" lon="12.337649906296567"><ele>63.0</ele><time>2026-04-04T11:55:12Z</time></trkpt><trkpt lat="45.90735545766718" lon="12.337563836542015"><ele>63.0</ele><time>2026-04-04T11:55:13Z</time></trkpt><trkpt lat="45.90724345190557" lon="12.337486484641957"><ele>63.0</ele><time>2026-04-04T11:55:14Z</time></trkpt><trkpt lat="45.90713535603528" lon="12.337414438835347"><ele>63.0</ele><time>2026-04-04T11:55:15Z</time></trkpt><trkpt lat="45.907041574165625" lon="12.337341126494652"><ele>63.0</ele><time>2026-04-04T11:55:16Z</time></trkpt><trkpt lat="45.90696486283298" lon="12.337274061531707"><ele>63.0</ele><time>2026-04-04T11:55:17Z</time></trkpt><trkpt lat="45.906901650686876" lon="12.337201841724237"><ele>63.0</ele><time>2026-04-04T11:55:18Z</time></trkpt><trkpt lat="45.906852236106445" lon="12.337116929659588"><ele>63.0</ele><time>2026-04-04T11:55:19Z</time></trkpt><trkpt lat="45.906806779533696" lon="12.337010128072828"><ele>63.0</ele><time>2026-04-04T11:55:20Z</time></trkpt><trkpt lat="45.906763242572346" lon="12.336892969460644"><ele>63.0</ele><time>2026-04-04T11:55:21Z</time></trkpt><trkpt lat="45.906734019373374" lon="12.336773964963445"><ele>63.2</ele><time>2026-04-04T11:55:22Z</time></trkpt><trkpt lat="45.90672609379357" lon="12.336656972713962"><ele>63.4</ele><time>2026-04-04T11:55:23Z</time></trkpt><trkpt lat="45.90672978948881" lon="12.336536560354158"><ele>63.60000000000001</ele><time>2026-04-04T11:55:24Z</time></trkpt><trkpt lat="45.9067175048278" lon="12.336403279366209"><ele>63.800000000000004</ele><time>2026-04-04T11:55:25Z</time></trkpt><trkpt lat="45.906680188635356" lon="12.336260160602862"><ele>64.0</ele><time>2026-04-04T11:55:26Z</time></trkpt><trkpt lat="45.90659570964498" lon="12.336147981352141"><ele>64.0</ele><time>2026-04-04T11:55:27Z</time></trkpt><trkpt lat="45.90650768565515" lon="12.336017744980655"><ele>64.0</ele><time>2026-04-04T11:55:28Z</time></trkpt><trkpt lat="45.90640281088058" lon="12.335876987454402"><ele>64.0</ele><time>2026-04-04T11:55:29Z</time></trkpt><trkpt lat="45.906289671607254" lon="12.335717407877128"><ele>64.0</ele><time>2026-04-04T11:55:30Z</time></trkpt><trkpt lat="45.90616586704561" lon="12.335534111118193"><ele>64.0</ele><time>2026-04-04T11:55:31Z</time></trkpt><trkpt lat="45.90603136308647" lon="12.33534384396526"><ele>64.0</ele><time>2026-04-04T11:55:32Z</time></trkpt><trkpt lat="45.905897704521195" lon="12.335160868034002"><ele>64.0</ele><time>2026-04-04T11:55:33Z</time></trkpt><trkpt lat="45.90576857343207" lon="12.33497795499933"><ele>64.0</ele><time>2026-04-04T11:55:34Z</time></trkpt><trkpt lat="45.90564019806575" lon="12.334788139513341"><ele>64.0</ele><time>2026-04-04T11:55:35Z</time></trkpt><trkpt lat="45.90550655401909" lon="12.334597841778601"><ele>64.0</ele><time>2026-04-04T11:55:36Z</time></trkpt><trkpt lat="45.90537206372237" lon="12.334404753598259"><ele>63.0</ele><time>2026-04-04T11:55:37Z</time></trkpt><trkpt lat="45.90523687781542" lon="12.334209526000834"><ele>62.0</ele><time>2026-04-04T11:55:38Z</time></trkpt><trkpt lat="45.90509752336695" lon="12.334014081390446"><ele>61.0</ele><time>2026-04-04T11:55:39Z</time></trkpt><trkpt lat="45.90496039606911" lon="12.333823029396017"><ele>60.666666666666664</ele><time>2026-04-04T11:55:40Z</time></trkpt><trkpt lat="45.90482852992002" lon="12.333633043919349"><ele>60.33333333333333</ele><time>2026-04-04T11:55:41Z</time></trkpt><trkpt lat="45.90469903868662" lon="12.333447265521208"><ele>60.0</ele><time>2026-04-04T11:55:42Z</time></trkpt><trkpt lat="45.904573500659275" lon="12.333265724126953"><ele>60.0</ele><time>2026-04-04T11:55:43Z</time></trkpt><trkpt lat="45.90445483368837" lon="12.33309545501844"><ele>60.0</ele><time>2026-04-04T11:55:44Z</time></trkpt><trkpt lat="45.90433908686049" lon="12.332932667133981"><ele>60.0</ele><time>2026-04-04T11:55:45Z</time></trkpt><trkpt lat="45.90424325457801" lon="12.332754036116446"><ele>60.0</ele><time>2026-04-04T11:55:46Z</time></trkpt><trkpt lat="45.904142055292525" lon="12.33260000836996"><ele>60.0</ele><time>2026-04-04T11:55:47Z</time></trkpt><trkpt lat="45.9040397794212" lon="12.332453729462145"><ele>60.0</ele><time>2026-04-04T11:55:48Z</time></trkpt><trkpt lat="45.903940012778214" lon="12.332310028208722"><ele>60.0</ele><time>2026-04-04T11:55:49Z</time></trkpt><trkpt lat="45.903844931932674" lon="12.332172313548073"><ele>60.0</ele><time>2026-04-04T11:55:50Z</time></trkpt><trkpt lat="45.903753666532225" lon="12.332040124229126"><ele>60.0</ele><time>2026-04-04T11:55:51Z</time></trkpt><trkpt lat="45.903664215602745" lon="12.331911132404862"><ele>60.0</ele><time>2026-04-04T11:55:52Z</time></trkpt><trkpt lat="45.90357695619444" lon="12.33178523709234"><ele>60.0</ele><time>2026-04-04T11:55:53Z</time></trkpt><trkpt lat="45.90347965150031" lon="12.331678158963653"><ele>61.0</ele><time>2026-04-04T11:55:53.999Z</time></trkpt><trkpt lat="45.90339774915087" lon="12.331558528340633"><ele>62.0</ele><time>2026-04-04T11:55:54.999Z</time></trkpt><trkpt lat="45.90331855454596" lon="12.331439209365278"><ele>63.0</ele><time>2026-04-04T11:55:55.999Z</time></trkpt><trkpt lat="45.90324017617471" lon="12.331323437216264"><ele>64.0</ele><time>2026-04-04T11:55:56.999Z</time></trkpt><trkpt lat="45.90315920900493" lon="12.331211131611894"><ele>64.0</ele><time>2026-04-04T11:55:57.999Z</time></trkpt><trkpt lat="45.90307662951164" lon="12.331096902391891"><ele>64.0</ele><time>2026-04-04T11:55:58.999Z</time></trkpt><trkpt lat="45.902991532086496" lon="12.330978461190798"><ele>64.0</ele><time>2026-04-04T11:55:59.999Z</time></trkpt><trkpt lat="45.90290260853276" lon="12.330851601242813"><ele>64.0</ele><time>2026-04-04T11:56:00.999Z</time></trkpt><trkpt lat="45.902812826536625" lon="12.330718697291498"><ele>64.0</ele><time>2026-04-04T11:56:01.999Z</time></trkpt><trkpt lat="45.902723506929796" lon="12.330590019743726"><ele>64.0</ele><time>2026-04-04T11:56:02.999Z</time></trkpt><trkpt lat="45.90263530067088" lon="12.3304657746002"><ele>64.0</ele><time>2026-04-04T11:56:03.999Z</time></trkpt><trkpt lat="45.9025497146125" lon="12.330345390157824"><ele>64.0</ele><time>2026-04-04T11:56:04.999Z</time></trkpt><trkpt lat="45.902469439097345" lon="12.330232683133788"><ele>63.49999999999999</ele><time>2026-04-04T11:56:05.999Z</time></trkpt><trkpt lat="45.90239719525983" lon="12.33013229849788"><ele>63.0</ele><time>2026-04-04T11:56:06.999Z</time></trkpt><trkpt lat="45.902333015927425" lon="12.33004366541849"><ele>62.5</ele><time>2026-04-04T11:56:07.999Z</time></trkpt><trkpt lat="45.902279866794125" lon="12.32997011458434"><ele>62.0</ele><time>2026-04-04T11:56:08.999Z</time></trkpt><trkpt lat="45.90220005459177" lon="12.329860479100292"><ele>61.49999999999999</ele><time>2026-04-04T11:56:10.999Z</time></trkpt><trkpt lat="45.90214842024406" lon="12.329790457664943"><ele>61.0</ele><time>2026-04-04T11:56:12.999Z</time></trkpt><trkpt lat="45.90207465814797" lon="12.329706108458737"><ele>60.99999999999999</ele><time>2026-04-04T11:57:06Z</time></trkpt><trkpt lat="45.90201802176874" lon="12.329657189093927"><ele>61.0</ele><time>2026-04-04T11:57:08Z</time></trkpt><trkpt lat="45.9019384487296" lon="12.329556806971604"><ele>61.0</ele><time>2026-04-04T11:57:10Z</time></trkpt><trkpt lat="45.90185576919211" lon="12.329429382016793"><ele>61.0</ele><time>2026-04-04T11:57:12Z</time></trkpt><trkpt lat="45.90180700415753" lon="12.329358335497854"><ele>60.99999999999999</ele><time>2026-04-04T11:57:13Z</time></trkpt><trkpt lat="45.90177996198751" lon="12.32927480147459"><ele>61.0</ele><time>2026-04-04T11:57:14Z</time></trkpt><trkpt lat="45.90170288967263" lon="12.32914166691171"><ele>60.83333333333333</ele><time>2026-04-04T11:57:16Z</time></trkpt><trkpt lat="45.90165590379318" lon="12.329070238172305"><ele>60.666666666666664</ele><time>2026-04-04T11:57:17Z</time></trkpt><trkpt lat="45.90159076641415" lon="12.328979450954332"><ele>60.5</ele><time>2026-04-04T11:57:18Z</time></trkpt><trkpt lat="45.90152483365047" lon="12.328889421931002"><ele>60.33333333333333</ele><time>2026-04-04T11:57:19Z</time></trkpt><trkpt lat="45.90145912096356" lon="12.32879999811211"><ele>60.166666666666664</ele><time>2026-04-04T11:57:20Z</time></trkpt><trkpt lat="45.90139099555875" lon="12.328707973186702"><ele>60.0</ele><time>2026-04-04T11:57:21Z</time></trkpt><trkpt lat="45.90132769680994" lon="12.328623131686888"><ele>60.0</ele><time>2026-04-04T11:57:22Z</time></trkpt><trkpt lat="45.901271340828394" lon="12.328548319676553"><ele>60.0</ele><time>2026-04-04T11:57:23Z</time></trkpt><trkpt lat="45.90122356579721" lon="12.328488829163833"><ele>60.0</ele><time>2026-04-04T11:57:24Z</time></trkpt><trkpt lat="45.901134532854286" lon="12.328390826829063"><ele>60.0</ele><time>2026-04-04T11:57:26Z</time></trkpt><trkpt lat="45.901055920077454" lon="12.328310482099246"><ele>60.0</ele><time>2026-04-04T11:57:28Z</time></trkpt><trkpt lat="45.901009131750925" lon="12.328171382988662"><ele>60.0</ele><time>2026-04-04T11:57:30Z</time></trkpt><trkpt lat="45.90096633466101" lon="12.32807164653913"><ele>60.0</ele><time>2026-04-04T11:57:31Z</time></trkpt><trkpt lat="45.90089169387832" lon="12.327995434833682"><ele>60.0</ele><time>2026-04-04T11:57:32Z</time></trkpt><trkpt lat="45.9007864778771" lon="12.327956030563508"><ele>60.0</ele><time>2026-04-04T11:57:33Z</time></trkpt><trkpt lat="45.90069895131127" lon="12.327889490681725"><ele>60.0</ele><time>2026-04-04T11:57:34Z</time></trkpt><trkpt lat="45.90063114760238" lon="12.327795743037624"><ele>60.5</ele><time>2026-04-04T11:57:35Z</time></trkpt><trkpt lat="45.90054959178904" lon="12.327710873457484"><ele>61.0</ele><time>2026-04-04T11:57:36Z</time></trkpt><trkpt lat="45.90046594801902" lon="12.327625837218129"><ele>61.5</ele><time>2026-04-04T11:57:37Z</time></trkpt><trkpt lat="45.90036123343776" lon="12.32752328846471"><ele>62.0</ele><time>2026-04-04T11:57:38Z</time></trkpt><trkpt lat="45.90025157991686" lon="12.327416932977046"><ele>62.0</ele><time>2026-04-04T11:57:39Z</time></trkpt><trkpt lat="45.90014311457953" lon="12.327311730065828"><ele>62.0</ele><time>2026-04-04T11:57:40Z</time></trkpt><trkpt lat="45.90003648906744" lon="12.327208275382153"><ele>62.0</ele><time>2026-04-04T11:57:41Z</time></trkpt><trkpt lat="45.89993360862767" lon="12.327108450624062"><ele>62.0</ele><time>2026-04-04T11:57:42Z</time></trkpt><trkpt lat="45.899827362790965" lon="12.32700536036121"><ele>61.0</ele><time>2026-04-04T11:57:43Z</time></trkpt><trkpt lat="45.899719932232244" lon="12.326901120615721"><ele>60.0</ele><time>2026-04-04T11:57:44Z</time></trkpt><trkpt lat="45.899612076103026" lon="12.326796467932173"><ele>59.0</ele><time>2026-04-04T11:57:45Z</time></trkpt><trkpt lat="45.89949683667429" lon="12.326710996128092"><ele>58.0</ele><time>2026-04-04T11:57:46Z</time></trkpt><trkpt lat="45.89939030160754" lon="12.326592392173112"><ele>58.0</ele><time>2026-04-04T11:57:47Z</time></trkpt><trkpt lat="45.89927854013246" lon="12.3264798403837"><ele>58.0</ele><time>2026-04-04T11:57:48Z</time></trkpt><trkpt lat="45.89916462995715" lon="12.326365988824358"><ele>58.0</ele><time>2026-04-04T11:57:49Z</time></trkpt><trkpt lat="45.89904945910019" lon="12.326253303640582"><ele>58.0</ele><time>2026-04-04T11:57:50Z</time></trkpt><trkpt lat="45.89892823855865" lon="12.326142263358735"><ele>57.75</ele><time>2026-04-04T11:57:51Z</time></trkpt><trkpt lat="45.89880929292299" lon="12.326029192353253"><ele>57.5</ele><time>2026-04-04T11:57:52Z</time></trkpt><trkpt lat="45.89868897933355" lon="12.325913304317222"><ele>57.25</ele><time>2026-04-04T11:57:53Z</time></trkpt><trkpt lat="45.89856904952543" lon="12.325795289805543"><ele>57.0</ele><time>2026-04-04T11:57:54Z</time></trkpt><trkpt lat="45.89844800112146" lon="12.325673385186795"><ele>58.25</ele><time>2026-04-04T11:57:55Z</time></trkpt><trkpt lat="45.898326402443686" lon="12.325550896065845"><ele>59.5</ele><time>2026-04-04T11:57:56Z</time></trkpt><trkpt lat="45.89820207754084" lon="12.325431182452128"><ele>60.75</ele><time>2026-04-04T11:57:57Z</time></trkpt><trkpt lat="45.89807753889055" lon="12.325310724091407"><ele>62.0</ele><time>2026-04-04T11:57:58Z</time></trkpt><trkpt lat="45.89795279698546" lon="12.325188633372763"><ele>62.0</ele><time>2026-04-04T11:57:59Z</time></trkpt><trkpt lat="45.89782796166591" lon="12.325067252792119"><ele>62.0</ele><time>2026-04-04T11:58:00Z</time></trkpt><trkpt lat="45.897703424501856" lon="12.324950622482435"><ele>62.0</ele><time>2026-04-04T11:58:01Z</time></trkpt><trkpt lat="45.8975827092193" lon="12.32483070518753"><ele>62.0</ele><time>2026-04-04T11:58:02Z</time></trkpt><trkpt lat="45.897463990310165" lon="12.324711720050859"><ele>62.0</ele><time>2026-04-04T11:58:03Z</time></trkpt><trkpt lat="45.89734574854892" lon="12.324593928564012"><ele>62.0</ele><time>2026-04-04T11:58:04Z</time></trkpt><trkpt lat="45.89722760879347" lon="12.324478936235861"><ele>62.0</ele><time>2026-04-04T11:58:04.999Z</time></trkpt><trkpt lat="45.8971046229693" lon="12.324361054345264"><ele>62.0</ele><time>2026-04-04T11:58:05.999Z</time></trkpt><trkpt lat="45.8969816809182" lon="12.324232616301082"><ele>62.0</ele><time>2026-04-04T11:58:06.999Z</time></trkpt><trkpt lat="45.89686608914765" lon="12.324102966178527"><ele>62.0</ele><time>2026-04-04T11:58:07.999Z</time></trkpt><trkpt lat="45.89676064245898" lon="12.323962992662578"><ele>62.0</ele><time>2026-04-04T11:58:08.999Z</time></trkpt><trkpt lat="45.89665711909139" lon="12.323819030969537"><ele>62.0</ele><time>2026-04-04T11:58:09.999Z</time></trkpt><trkpt lat="45.896559436638036" lon="12.323666235106753"><ele>61.25</ele><time>2026-04-04T11:58:10.999Z</time></trkpt><trkpt lat="45.89646470128362" lon="12.323507324209016"><ele>60.5</ele><time>2026-04-04T11:58:11.999Z</time></trkpt><trkpt lat="45.896378489311076" lon="12.323340686296824"><ele>59.75</ele><time>2026-04-04T11:58:12.999Z</time></trkpt><trkpt lat="45.896293264595414" lon="12.323167982647442"><ele>59.0</ele><time>2026-04-04T11:58:13.999Z</time></trkpt><trkpt lat="45.89621102178532" lon="12.322986762926144"><ele>59.0</ele><time>2026-04-04T11:58:14.999Z</time></trkpt><trkpt lat="45.896134288713135" lon="12.322805974493331"><ele>59.0</ele><time>2026-04-04T11:58:15.999Z</time></trkpt><trkpt lat="45.89605722410988" lon="12.322617635166075"><ele>59.0</ele><time>2026-04-04T11:58:16.999Z</time></trkpt><trkpt lat="45.895984154643735" lon="12.322435398992239"><ele>59.0</ele><time>2026-04-04T11:58:17.999Z</time></trkpt><trkpt lat="45.89591463009807" lon="12.322254690985304"><ele>58.5</ele><time>2026-04-04T11:58:18.999Z</time></trkpt><trkpt lat="45.89584934972181" lon="12.322082358288437"><ele>58.0</ele><time>2026-04-04T11:58:19.999Z</time></trkpt><trkpt lat="45.89578442706161" lon="12.321915094928215"><ele>57.5</ele><time>2026-04-04T11:58:20.999Z</time></trkpt><trkpt lat="45.89572138298027" lon="12.32175373348523"><ele>57.0</ele><time>2026-04-04T11:58:21.999Z</time></trkpt><trkpt lat="45.89566876754978" lon="12.321618395473308"><ele>57.0</ele><time>2026-04-04T11:58:22.999Z</time></trkpt><trkpt lat="45.89561783505901" lon="12.32148154273156"><ele>57.0</ele><time>2026-04-04T11:58:23.999Z</time></trkpt><trkpt lat="45.89556645271375" lon="12.321355093765714"><ele>57.0</ele><time>2026-04-04T11:58:24.999Z</time></trkpt><trkpt lat="45.89550984806087" lon="12.321229785319067"><ele>57.0</ele><time>2026-04-04T11:58:25.999Z</time></trkpt><trkpt lat="45.895451476697765" lon="12.321092636550741"><ele>57.0</ele><time>2026-04-04T11:58:26.999Z</time></trkpt><trkpt lat="45.895392630907324" lon="12.320946936231083"><ele>57.25</ele><time>2026-04-04T11:58:27.999Z</time></trkpt><trkpt lat="45.8953277294244" lon="12.320794510717644"><ele>57.5</ele><time>2026-04-04T11:58:28.999Z</time></trkpt><trkpt lat="45.895257639559254" lon="12.320632761845058"><ele>57.75</ele><time>2026-04-04T11:58:29.999Z</time></trkpt><trkpt lat="45.895196484115175" lon="12.320442282488909"><ele>58.0</ele><time>2026-04-04T11:58:30.999Z</time></trkpt><trkpt lat="45.89511704046566" lon="12.320241862967595"><ele>58.33333333333333</ele><time>2026-04-04T11:58:31.999Z</time></trkpt><trkpt lat="45.895037810431724" lon="12.32004198225907"><ele>58.66666666666667</ele><time>2026-04-04T11:58:32.999Z</time></trkpt><trkpt lat="45.89496306952883" lon="12.319853799769218"><ele>59.0</ele><time>2026-04-04T11:58:33.999Z</time></trkpt><trkpt lat="45.894879155091" lon="12.319679843606604"><ele>59.75</ele><time>2026-04-04T11:58:34.999Z</time></trkpt><trkpt lat="45.8948108269141" lon="12.319501743950779"><ele>60.5</ele><time>2026-04-04T11:58:35.999Z</time></trkpt><trkpt lat="45.894748960751066" lon="12.319334230932357"><ele>61.25</ele><time>2026-04-04T11:58:36.999Z</time></trkpt><trkpt lat="45.894685374188406" lon="12.31916938660145"><ele>62.0</ele><time>2026-04-04T11:58:37.999Z</time></trkpt><trkpt lat="45.89462196097195" lon="12.319005752026044"><ele>62.5</ele><time>2026-04-04T11:58:38.999Z</time></trkpt><trkpt lat="45.89455954808622" lon="12.318845277515392"><ele>63.0</ele><time>2026-04-04T11:58:39.999Z</time></trkpt><trkpt lat="45.894496891596184" lon="12.31868227143464"><ele>63.5</ele><time>2026-04-04T11:58:40.999Z</time></trkpt><trkpt lat="45.89443557603214" lon="12.318519025876387"><ele>64.0</ele><time>2026-04-04T11:58:41.999Z</time></trkpt><trkpt lat="45.89437702759711" lon="12.31836490560726"><ele>64.0</ele><time>2026-04-04T11:58:42.999Z</time></trkpt><trkpt lat="45.89432045102311" lon="12.31821429195312"><ele>64.0</ele><time>2026-04-04T11:58:43.999Z</time></trkpt><trkpt lat="45.894264936792396" lon="12.318065399509923"><ele>64.0</ele><time>2026-04-04T11:58:44.999Z</time></trkpt><trkpt lat="45.89420760874152" lon="12.317921647390607"><ele>64.0</ele><time>2026-04-04T11:58:45.999Z</time></trkpt><trkpt lat="45.894153421589245" lon="12.317781267654748"><ele>64.0</ele><time>2026-04-04T11:58:46.999Z</time></trkpt><trkpt lat="45.894091379801445" lon="12.317638030016132"><ele>64.0</ele><time>2026-04-04T11:58:47.999Z</time></trkpt><trkpt lat="45.89402487025619" lon="12.317484159784089"><ele>64.0</ele><time>2026-04-04T11:58:48.999Z</time></trkpt><trkpt lat="45.89395676281794" lon="12.317321648599947"><ele>64.0</ele><time>2026-04-04T11:58:49.999Z</time></trkpt><trkpt lat="45.89388809138284" lon="12.317147252173934"><ele>64.0</ele><time>2026-04-04T11:58:50.999Z</time></trkpt><trkpt lat="45.89381802544376" lon="12.316973840383623"><ele>64.0</ele><time>2026-04-04T11:58:51.999Z</time></trkpt><trkpt lat="45.89375298106515" lon="12.316802529021821"><ele>64.0</ele><time>2026-04-04T11:58:52.999Z</time></trkpt><trkpt lat="45.89369024143751" lon="12.316639383098705"><ele>64.0</ele><time>2026-04-04T11:58:53.999Z</time></trkpt><trkpt lat="45.89362601211003" lon="12.316474580598438"><ele>64.0</ele><time>2026-04-04T11:58:54.999Z</time></trkpt><trkpt lat="45.89355940099847" lon="12.316306612399774"><ele>64.0</ele><time>2026-04-04T11:58:56Z</time></trkpt><trkpt lat="45.89348705223299" lon="12.316132610454037"><ele>64.0</ele><time>2026-04-04T11:58:57Z</time></trkpt><trkpt lat="45.89341460689319" lon="12.315956889425447"><ele>64.0</ele><time>2026-04-04T11:58:58Z</time></trkpt><trkpt lat="45.89334536157279" lon="12.315780365671937"><ele>63.5</ele><time>2026-04-04T11:58:59Z</time></trkpt><trkpt lat="45.893278275285695" lon="12.315613332853752"><ele>63.0</ele><time>2026-04-04T11:59:00Z</time></trkpt><trkpt lat="45.893215620268414" lon="12.315447612312992"><ele>62.5</ele><time>2026-04-04T11:59:01Z</time></trkpt><trkpt lat="45.89314954193272" lon="12.315286347354741"><ele>62.0</ele><time>2026-04-04T11:59:02Z</time></trkpt><trkpt lat="45.89308808485378" lon="12.315130224472519"><ele>62.0</ele><time>2026-04-04T11:59:03Z</time></trkpt><trkpt lat="45.89302540444913" lon="12.31497096631509"><ele>62.0</ele><time>2026-04-04T11:59:04Z</time></trkpt><trkpt lat="45.89296264722998" lon="12.314813121678258"><ele>62.0</ele><time>2026-04-04T11:59:05Z</time></trkpt><trkpt lat="45.89289935658601" lon="12.314650886248605"><ele>62.0</ele><time>2026-04-04T11:59:06Z</time></trkpt><trkpt lat="45.89283477632467" lon="12.314483559829611"><ele>62.25</ele><time>2026-04-04T11:59:07Z</time></trkpt><trkpt lat="45.892771742557265" lon="12.314317943849879"><ele>62.5</ele><time>2026-04-04T11:59:08Z</time></trkpt><trkpt lat="45.89270964019804" lon="12.314157151897772"><ele>62.75</ele><time>2026-04-04T11:59:09Z</time></trkpt><trkpt lat="45.89265964045504" lon="12.313997023939985"><ele>63.0</ele><time>2026-04-04T11:59:10Z</time></trkpt><trkpt lat="45.8926119566264" lon="12.313842221592926"><ele>62.666666666666664</ele><time>2026-04-04T11:59:11Z</time></trkpt><trkpt lat="45.892573925626245" lon="12.313694556626366"><ele>62.33333333333333</ele><time>2026-04-04T11:59:12Z</time></trkpt><trkpt lat="45.89254255540182" lon="12.31355908370461"><ele>62.0</ele><time>2026-04-04T11:59:13Z</time></trkpt><trkpt lat="45.89251787441602" lon="12.313441846572278"><ele>61.666666666666664</ele><time>2026-04-04T11:59:14Z</time></trkpt><trkpt lat="45.892494357353804" lon="12.31333542682244"><ele>61.33333333333333</ele><time>2026-04-04T11:59:15Z</time></trkpt><trkpt lat="45.892471973368515" lon="12.313233726670953"><ele>61.0</ele><time>2026-04-04T11:59:16Z</time></trkpt><trkpt lat="45.892453750520325" lon="12.313122900345377"><ele>61.49999999999999</ele><time>2026-04-04T11:59:17Z</time></trkpt><trkpt lat="45.892425350657945" lon="12.313012586927524"><ele>62.0</ele><time>2026-04-04T11:59:18Z</time></trkpt><trkpt lat="45.89239707617263" lon="12.312896730003509"><ele>62.5</ele><time>2026-04-04T11:59:19Z</time></trkpt><trkpt lat="45.89237996947341" lon="12.312773284584484"><ele>63.0</ele><time>2026-04-04T11:59:20Z</time></trkpt><trkpt lat="45.89236742336354" lon="12.312641665916447"><ele>63.49999999999999</ele><time>2026-04-04T11:59:21Z</time></trkpt><trkpt lat="45.89235705134578" lon="12.312500654170037"><ele>64.0</ele><time>2026-04-04T11:59:22Z</time></trkpt><trkpt lat="45.89235180024249" lon="12.312351058253151"><ele>64.0</ele><time>2026-04-04T11:59:23Z</time></trkpt><trkpt lat="45.89234286493361" lon="12.312194477914595"><ele>64.0</ele><time>2026-04-04T11:59:24Z</time></trkpt><trkpt lat="45.89233552466475" lon="12.312046696549842"><ele>64.0</ele><time>2026-04-04T11:59:25Z</time></trkpt><trkpt lat="45.892325646111274" lon="12.311903263006975"><ele>64.0</ele><time>2026-04-04T11:59:26Z</time></trkpt><trkpt lat="45.892313780734774" lon="12.311760943711816"><ele>64.0</ele><time>2026-04-04T11:59:27Z</time></trkpt><trkpt lat="45.89230020965021" lon="12.311619296125198"><ele>64.0</ele><time>2026-04-04T11:59:28Z</time></trkpt><trkpt lat="45.8922920606589" lon="12.3114692091774"><ele>64.0</ele><time>2026-04-04T11:59:29Z</time></trkpt><trkpt lat="45.89228444476207" lon="12.311320141612745"><ele>64.0</ele><time>2026-04-04T11:59:30Z</time></trkpt><trkpt lat="45.89227675714673" lon="12.311177653529036"><ele>64.0</ele><time>2026-04-04T11:59:31Z</time></trkpt><trkpt lat="45.892271367623636" lon="12.311039647600493"><ele>64.0</ele><time>2026-04-04T11:59:32Z</time></trkpt><trkpt lat="45.89226382169686" lon="12.310901884632928"><ele>64.0</ele><time>2026-04-04T11:59:33Z</time></trkpt><trkpt lat="45.892252129681765" lon="12.310766019774759"><ele>64.0</ele><time>2026-04-04T11:59:34Z</time></trkpt><trkpt lat="45.892260099992114" lon="12.310623226587202"><ele>64.0</ele><time>2026-04-04T11:59:35Z</time></trkpt><trkpt lat="45.89225327957535" lon="12.310485926099242"><ele>64.0</ele><time>2026-04-04T11:59:36Z</time></trkpt><trkpt lat="45.89224620379592" lon="12.310347379768272"><ele>64.0</ele><time>2026-04-04T11:59:37Z</time></trkpt><trkpt lat="45.89223891538686" lon="12.31020467131539"><ele>64.0</ele><time>2026-04-04T11:59:38Z</time></trkpt><trkpt lat="45.89223138282495" lon="12.31006672138193"><ele>64.0</ele><time>2026-04-04T11:59:39Z</time></trkpt><trkpt lat="45.89222444141043" lon="12.309926246545057"><ele>64.0</ele><time>2026-04-04T11:59:40Z</time></trkpt><trkpt lat="45.89221763053523" lon="12.309784888708016"><ele>64.0</ele><time>2026-04-04T11:59:41Z</time></trkpt><trkpt lat="45.89221070142342" lon="12.309641080189598"><ele>64.0</ele><time>2026-04-04T11:59:42Z</time></trkpt><trkpt lat="45.892189192516646" lon="12.30949583041007"><ele>64.2</ele><time>2026-04-04T11:59:43Z</time></trkpt><trkpt lat="45.892182737256704" lon="12.309349097502958"><ele>64.4</ele><time>2026-04-04T11:59:44Z</time></trkpt><trkpt lat="45.892176800959554" lon="12.30919619462769"><ele>64.6</ele><time>2026-04-04T11:59:45Z</time></trkpt><trkpt lat="45.89216630231343" lon="12.309036927538639"><ele>64.8</ele><time>2026-04-04T11:59:46Z</time></trkpt><trkpt lat="45.89215713799903" lon="12.3088709688995"><ele>65.0</ele><time>2026-04-04T11:59:47Z</time></trkpt><trkpt lat="45.892148167094206" lon="12.308699065055116"><ele>65.4</ele><time>2026-04-04T11:59:48Z</time></trkpt><trkpt lat="45.892139983935365" lon="12.308528994425034"><ele>65.8</ele><time>2026-04-04T11:59:49Z</time></trkpt><trkpt lat="45.892129138084876" lon="12.308369862349648"><ele>66.2</ele><time>2026-04-04T11:59:50Z</time></trkpt><trkpt lat="45.892117673085764" lon="12.308215820317464"><ele>66.6</ele><time>2026-04-04T11:59:51Z</time></trkpt><trkpt lat="45.892105455246025" lon="12.308065394386169"><ele>67.0</ele><time>2026-04-04T11:59:52Z</time></trkpt><trkpt lat="45.892089131481384" lon="12.307909548792672"><ele>68.5</ele><time>2026-04-04T11:59:53Z</time></trkpt><trkpt lat="45.89207256407855" lon="12.3077472320189"><ele>70.0</ele><time>2026-04-04T11:59:54Z</time></trkpt><trkpt lat="45.8920438689884" lon="12.307572865702014"><ele>71.5</ele><time>2026-04-04T11:59:55Z</time></trkpt><trkpt lat="45.89201563505463" lon="12.307406362585045"><ele>73.0</ele><time>2026-04-04T11:59:56Z</time></trkpt><trkpt lat="45.891991528707315" lon="12.307237912355404"><ele>74.8</ele><time>2026-04-04T11:59:57Z</time></trkpt><trkpt lat="45.891961607828655" lon="12.307079172403194"><ele>76.6</ele><time>2026-04-04T11:59:58Z</time></trkpt><trkpt lat="45.89193320295758" lon="12.306929995322212"><ele>78.39999999999999</ele><time>2026-04-04T11:59:59Z</time></trkpt><trkpt lat="45.89190461136635" lon="12.306790608432859"><ele>80.19999999999999</ele><time>2026-04-04T12:00:00Z</time></trkpt><trkpt lat="45.891869306532854" lon="12.30664039281293"><ele>82.0</ele><time>2026-04-04T12:00:01Z</time></trkpt><trkpt lat="45.89183010803727" lon="12.306498878550848"><ele>80.5</ele><time>2026-04-04T12:00:02Z</time></trkpt><trkpt lat="45.89179661500626" lon="12.306340361654147"><ele>79.0</ele><time>2026-04-04T12:00:03Z</time></trkpt><trkpt lat="45.89175856630608" lon="12.306176238817029"><ele>77.5</ele><time>2026-04-04T12:00:04Z</time></trkpt><trkpt lat="45.89172208124973" lon="12.306015951606257"><ele>76.0</ele><time>2026-04-04T12:00:05Z</time></trkpt><trkpt lat="45.89168125023812" lon="12.305863347394984"><ele>74.6</ele><time>2026-04-04T12:00:06Z</time></trkpt><trkpt lat="45.89163004930435" lon="12.305717030414392"><ele>73.19999999999999</ele><time>2026-04-04T12:00:07Z</time></trkpt><trkpt lat="45.891573324236205" lon="12.305574587674872"><ele>71.80000000000001</ele><time>2026-04-04T12:00:08Z</time></trkpt><trkpt lat="45.89151677254717" lon="12.305436193971"><ele>70.4</ele><time>2026-04-04T12:00:09Z</time></trkpt><trkpt lat="45.89146546145585" lon="12.305305113016397"><ele>69.0</ele><time>2026-04-04T12:00:10Z</time></trkpt><trkpt lat="45.89142654053329" lon="12.305188461190433"><ele>68.16666666666667</ele><time>2026-04-04T12:00:11Z</time></trkpt><trkpt lat="45.891399324549845" lon="12.30508697692683"><ele>67.33333333333333</ele><time>2026-04-04T12:00:12Z</time></trkpt><trkpt lat="45.891352666091045" lon="12.304934765401768"><ele>66.5</ele><time>2026-04-04T12:00:13.999Z</time></trkpt><trkpt lat="45.89133809876531" lon="12.304826440279516"><ele>65.66666666666666</ele><time>2026-04-04T12:00:14.999Z</time></trkpt><trkpt lat="45.891281748476814" lon="12.30472789496734"><ele>64.83333333333333</ele><time>2026-04-04T12:00:15.999Z</time></trkpt><trkpt lat="45.89121839153616" lon="12.304649657487497"><ele>64.0</ele><time>2026-04-04T12:00:16.999Z</time></trkpt><trkpt lat="45.89116586124167" lon="12.304562087206984"><ele>63.800000000000004</ele><time>2026-04-04T12:00:17.999Z</time></trkpt><trkpt lat="45.8911046067387" lon="12.304449659143161"><ele>63.60000000000001</ele><time>2026-04-04T12:00:18.999Z</time></trkpt><trkpt lat="45.89104090112015" lon="12.304325138762316"><ele>63.4</ele><time>2026-04-04T12:00:19.999Z</time></trkpt><trkpt lat="45.89097323631578" lon="12.304188411486917"><ele>63.2</ele><time>2026-04-04T12:00:20.999Z</time></trkpt><trkpt lat="45.89091011300225" lon="12.304056243563764"><ele>63.0</ele><time>2026-04-04T12:00:21.999Z</time></trkpt><trkpt lat="45.89085668682753" lon="12.303935491433236"><ele>62.833333333333336</ele><time>2026-04-04T12:00:22.999Z</time></trkpt><trkpt lat="45.89080886476526" lon="12.303824772252689"><ele>62.66666666666667</ele><time>2026-04-04T12:00:23.999Z</time></trkpt><trkpt lat="45.890766300380015" lon="12.303731272247175"><ele>62.5</ele><time>2026-04-04T12:00:24.999Z</time></trkpt><trkpt lat="45.89073014555299" lon="12.303652245006008"><ele>62.333333333333336</ele><time>2026-04-04T12:00:25.999Z</time></trkpt><trkpt lat="45.89068206002823" lon="12.303550993589695"><ele>62.16666666666667</ele><time>2026-04-04T12:00:27.999Z</time></trkpt><trkpt lat="45.89063955875731" lon="12.303427804916256"><ele>62.0</ele><time>2026-04-04T12:00:31.999Z</time></trkpt><trkpt lat="45.890561227973215" lon="12.303246985817573"><ele>62.0</ele><time>2026-04-04T12:00:33.999Z</time></trkpt><trkpt lat="45.89052157921166" lon="12.303138541896148"><ele>62.0</ele><time>2026-04-04T12:00:34.999Z</time></trkpt><trkpt lat="45.89047113915436" lon="12.30300619594092"><ele>62.0</ele><time>2026-04-04T12:00:35.999Z</time></trkpt><trkpt lat="45.890410471990876" lon="12.302846673467638"><ele>62.0</ele><time>2026-04-04T12:00:36.999Z</time></trkpt><trkpt lat="45.89034995227962" lon="12.302692373123739"><ele>62.0</ele><time>2026-04-04T12:00:37.999Z</time></trkpt><trkpt lat="45.89029758724873" lon="12.302530996054694"><ele>62.75</ele><time>2026-04-04T12:00:38.999Z</time></trkpt><trkpt lat="45.89023018883702" lon="12.302385176942357"><ele>63.5</ele><time>2026-04-04T12:00:39.999Z</time></trkpt><trkpt lat="45.89017003280078" lon="12.302245316992249"><ele>64.25</ele><time>2026-04-04T12:00:40.999Z</time></trkpt><trkpt lat="45.8901153878229" lon="12.302113944253097"><ele>65.0</ele><time>2026-04-04T12:00:41.999Z</time></trkpt><trkpt lat="45.89005684312098" lon="12.301978971666218"><ele>65.0</ele><time>2026-04-04T12:00:42.999Z</time></trkpt><trkpt lat="45.8899866276885" lon="12.301841813403751"><ele>65.0</ele><time>2026-04-04T12:00:43.999Z</time></trkpt><trkpt lat="45.88992779428765" lon="12.301707410667802"><ele>65.0</ele><time>2026-04-04T12:00:44.999Z</time></trkpt><trkpt lat="45.88987823236742" lon="12.301576054776108"><ele>65.0</ele><time>2026-04-04T12:00:45.999Z</time></trkpt><trkpt lat="45.88978717659145" lon="12.301473582843924"><ele>65.0</ele><time>2026-04-04T12:00:46.999Z</time></trkpt><trkpt lat="45.88971668151531" lon="12.301346560565392"><ele>64.8</ele><time>2026-04-04T12:00:47.999Z</time></trkpt><trkpt lat="45.889642111827094" lon="12.301242858835503"><ele>64.6</ele><time>2026-04-04T12:00:48.999Z</time></trkpt><trkpt lat="45.88957071518068" lon="12.301142126647488"><ele>64.4</ele><time>2026-04-04T12:00:49.999Z</time></trkpt><trkpt lat="45.88951283906546" lon="12.301038524827831"><ele>64.2</ele><time>2026-04-04T12:00:50.999Z</time></trkpt><trkpt lat="45.88944720551965" lon="12.300958423873105"><ele>64.0</ele><time>2026-04-04T12:00:51.999Z</time></trkpt><trkpt lat="45.88939240862777" lon="12.30088957805985"><ele>64.0</ele><time>2026-04-04T12:00:52.999Z</time></trkpt><trkpt lat="45.889344389887626" lon="12.30082874495443"><ele>64.0</ele><time>2026-04-04T12:00:53.999Z</time></trkpt><trkpt lat="45.88928522602291" lon="12.300745618696437"><ele>64.0</ele><time>2026-04-04T12:00:55.999Z</time></trkpt><trkpt lat="45.88932337879918" lon="12.300640521044894"><ele>64.0</ele><time>2026-04-04T12:00:56.999Z</time></trkpt><trkpt lat="45.88937818732366" lon="12.300494408509095"><ele>64.0</ele><time>2026-04-04T12:00:58.999Z</time></trkpt><trkpt lat="45.88949228560622" lon="12.300465679932907"><ele>64.60000000000001</ele><time>2026-04-04T12:00:59.999Z</time></trkpt><trkpt lat="45.88957951992201" lon="12.300396254126042"><ele>65.2</ele><time>2026-04-04T12:01:00.999Z</time></trkpt><trkpt lat="45.889676196165354" lon="12.300317629256751"><ele>65.80000000000001</ele><time>2026-04-04T12:01:02Z</time></trkpt><trkpt lat="45.889770949950766" lon="12.300246775003714"><ele>66.4</ele><time>2026-04-04T12:01:03Z</time></trkpt><trkpt lat="45.889866445156976" lon="12.300191324652214"><ele>67.0</ele><time>2026-04-04T12:01:04Z</time></trkpt><trkpt lat="45.88996141695658" lon="12.300138575464949"><ele>67.0</ele><time>2026-04-04T12:01:05Z</time></trkpt><trkpt lat="45.89005748287489" lon="12.300078845105801"><ele>67.0</ele><time>2026-04-04T12:01:06Z</time></trkpt><trkpt lat="45.89014389113592" lon="12.30000733559083"><ele>67.0</ele><time>2026-04-04T12:01:07Z</time></trkpt><trkpt lat="45.890237743490275" lon="12.299927352075251"><ele>67.0</ele><time>2026-04-04T12:01:08Z</time></trkpt><trkpt lat="45.89033458670105" lon="12.29983875945149"><ele>67.0</ele><time>2026-04-04T12:01:09Z</time></trkpt><trkpt lat="45.890430063886285" lon="12.299755705813418"><ele>66.8</ele><time>2026-04-04T12:01:10Z</time></trkpt><trkpt lat="45.89052747792107" lon="12.29966993468527"><ele>66.6</ele><time>2026-04-04T12:01:11Z</time></trkpt><trkpt lat="45.89062536553027" lon="12.299588032610872"><ele>66.39999999999999</ele><time>2026-04-04T12:01:12Z</time></trkpt><trkpt lat="45.890721236476104" lon="12.299508843028198"><ele>66.2</ele><time>2026-04-04T12:01:13Z</time></trkpt><trkpt lat="45.89081176226245" lon="12.299432171206144"><ele>66.0</ele><time>2026-04-04T12:01:14Z</time></trkpt><trkpt lat="45.89089411626627" lon="12.29936175895827"><ele>65.66666666666667</ele><time>2026-04-04T12:01:15Z</time></trkpt><trkpt lat="45.89096562208965" lon="12.299300433958557"><ele>65.33333333333333</ele><time>2026-04-04T12:01:16Z</time></trkpt><trkpt lat="45.89102674179478" lon="12.299235380116484"><ele>65.0</ele><time>2026-04-04T12:01:17Z</time></trkpt><trkpt lat="45.891090412404324" lon="12.299177194003255"><ele>64.66666666666666</ele><time>2026-04-04T12:01:18Z</time></trkpt><trkpt lat="45.89115204275165" lon="12.2991151068683"><ele>64.33333333333333</ele><time>2026-04-04T12:01:19Z</time></trkpt><trkpt lat="45.89121684199006" lon="12.299051273529146"><ele>64.0</ele><time>2026-04-04T12:01:20Z</time></trkpt><trkpt lat="45.89129327710056" lon="12.29898747791692"><ele>64.0</ele><time>2026-04-04T12:01:21Z</time></trkpt><trkpt lat="45.89138260549799" lon="12.29893329530708"><ele>64.0</ele><time>2026-04-04T12:01:22Z</time></trkpt><trkpt lat="45.89147510837452" lon="12.298857482277688"><ele>64.0</ele><time>2026-04-04T12:01:23Z</time></trkpt><trkpt lat="45.89157277271029" lon="12.298779931856087"><ele>64.0</ele><time>2026-04-04T12:01:24Z</time></trkpt><trkpt lat="45.891656800978616" lon="12.298696420623518"><ele>64.0</ele><time>2026-04-04T12:01:25Z</time></trkpt><trkpt lat="45.89173632059232" lon="12.298631808563742"><ele>63.49999999999999</ele><time>2026-04-04T12:01:26Z</time></trkpt><trkpt lat="45.8918131508551" lon="12.29857253328201"><ele>63.0</ele><time>2026-04-04T12:01:27Z</time></trkpt><trkpt lat="45.891887267569714" lon="12.298515184013576"><ele>62.5</ele><time>2026-04-04T12:01:28Z</time></trkpt><trkpt lat="45.89196522508217" lon="12.298479738153103"><ele>62.0</ele><time>2026-04-04T12:01:29Z</time></trkpt><trkpt lat="45.892035339493894" lon="12.298416837507007"><ele>61.49999999999999</ele><time>2026-04-04T12:01:30Z</time></trkpt><trkpt lat="45.89211269559355" lon="12.298351788503613"><ele>61.0</ele><time>2026-04-04T12:01:31Z</time></trkpt><trkpt lat="45.89218931269524" lon="12.298290913301857"><ele>60.99999999999999</ele><time>2026-04-04T12:01:32Z</time></trkpt><trkpt lat="45.89226139508476" lon="12.298235290043129"><ele>61.0</ele><time>2026-04-04T12:01:33Z</time></trkpt><trkpt lat="45.89232599703269" lon="12.298187376982597"><ele>61.0</ele><time>2026-04-04T12:01:34Z</time></trkpt><trkpt lat="45.89241047300281" lon="12.298125511488955"><ele>61.0</ele><time>2026-04-04T12:01:36Z</time></trkpt><trkpt lat="45.89247319938469" lon="12.298073888228139"><ele>60.99999999999999</ele><time>2026-04-04T12:01:38Z</time></trkpt><trkpt lat="45.892544097865354" lon="12.298019017808164"><ele>61.0</ele><time>2026-04-04T12:01:40Z</time></trkpt><trkpt lat="45.89262569246466" lon="12.297969204389407"><ele>61.8</ele><time>2026-04-04T12:01:42Z</time></trkpt><trkpt lat="45.89272541489133" lon="12.297902119037275"><ele>62.599999999999994</ele><time>2026-04-04T12:01:44Z</time></trkpt><trkpt lat="45.89280796962841" lon="12.297842065814839"><ele>63.4</ele><time>2026-04-04T12:01:46Z</time></trkpt><trkpt lat="45.89278895047842" lon="12.297696608964182"><ele>64.2</ele><time>2026-04-04T12:01:48Z</time></trkpt><trkpt lat="45.892743166166724" lon="12.297621220614952"><ele>65.0</ele><time>2026-04-04T12:01:49Z</time></trkpt><trkpt lat="45.89269529523832" lon="12.297523467928873"><ele>65.0</ele><time>2026-04-04T12:01:50Z</time></trkpt><trkpt lat="45.892646527103025" lon="12.2974009955001"><ele>65.0</ele><time>2026-04-04T12:01:51Z</time></trkpt><trkpt lat="45.89260591999335" lon="12.297281188974127"><ele>65.0</ele><time>2026-04-04T12:01:52Z</time></trkpt><trkpt lat="45.8925690343843" lon="12.297158158150383"><ele>65.0</ele><time>2026-04-04T12:01:53Z</time></trkpt><trkpt lat="45.892526137319955" lon="12.297049804241864"><ele>65.0</ele><time>2026-04-04T12:01:54Z</time></trkpt><trkpt lat="45.892464903997066" lon="12.29696186320511"><ele>65.33333333333334</ele><time>2026-04-04T12:01:55Z</time></trkpt><trkpt lat="45.8923856417788" lon="12.296900078218156"><ele>65.66666666666667</ele><time>2026-04-04T12:01:56Z</time></trkpt><trkpt lat="45.89229550007616" lon="12.296855660704722"><ele>66.0</ele><time>2026-04-04T12:01:57Z</time></trkpt><trkpt lat="45.89221973450852" lon="12.296814811176583"><ele>66.33333333333333</ele><time>2026-04-04T12:01:58Z</time></trkpt><trkpt lat="45.892158500122456" lon="12.296753209363818"><ele>66.66666666666666</ele><time>2026-04-04T12:01:59Z</time></trkpt><trkpt lat="45.89211285605048" lon="12.296666655509265"><ele>67.0</ele><time>2026-04-04T12:02:00Z</time></trkpt><trkpt lat="45.89208311225869" lon="12.296563073932282"><ele>67.0</ele><time>2026-04-04T12:02:01Z</time></trkpt><trkpt lat="45.8920726001668" lon="12.296447614542624"><ele>67.0</ele><time>2026-04-04T12:02:02Z</time></trkpt><trkpt lat="45.89208603989039" lon="12.296327891715686"><ele>67.0</ele><time>2026-04-04T12:02:03Z</time></trkpt><trkpt lat="45.89212235150776" lon="12.296206193345858"><ele>67.0</ele><time>2026-04-04T12:02:04Z</time></trkpt><trkpt lat="45.89219436509114" lon="12.29610671364891"><ele>67.0</ele><time>2026-04-04T12:02:05Z</time></trkpt><trkpt lat="45.892255338500924" lon="12.29597245493922"><ele>67.66666666666666</ele><time>2026-04-04T12:02:06Z</time></trkpt><trkpt lat="45.89233186952108" lon="12.295867941166374"><ele>68.33333333333333</ele><time>2026-04-04T12:02:07Z</time></trkpt><trkpt lat="45.892394956733476" lon="12.295770624554185"><ele>69.0</ele><time>2026-04-04T12:02:08Z</time></trkpt><trkpt lat="45.89244911330078" lon="12.295683338749303"><ele>69.66666666666667</ele><time>2026-04-04T12:02:09Z</time></trkpt><trkpt lat="45.892501419390776" lon="12.295600335492548"><ele>70.33333333333334</ele><time>2026-04-04T12:02:10Z</time></trkpt><trkpt lat="45.892561447359014" lon="12.295505711691835"><ele>71.0</ele><time>2026-04-04T12:02:10.999Z</time></trkpt><trkpt lat="45.89263003195572" lon="12.295404698991707"><ele>71.0</ele><time>2026-04-04T12:02:11.999Z</time></trkpt><trkpt lat="45.892688895681786" lon="12.295310214867024"><ele>71.0</ele><time>2026-04-04T12:02:12.999Z</time></trkpt><trkpt lat="45.89272613135271" lon="12.295222707293842"><ele>71.0</ele><time>2026-04-04T12:02:13.999Z</time></trkpt><trkpt lat="45.89272919125224" lon="12.29504447016632"><ele>71.0</ele><time>2026-04-04T12:02:15.999Z</time></trkpt><trkpt lat="45.892701567411734" lon="12.294951649715575"><ele>71.0</ele><time>2026-04-04T12:02:16.999Z</time></trkpt><trkpt lat="45.892649835941086" lon="12.294871017389848"><ele>71.0</ele><time>2026-04-04T12:02:17.999Z</time></trkpt><trkpt lat="45.89258139261517" lon="12.2948182721587"><ele>72.66666666666667</ele><time>2026-04-04T12:02:18.999Z</time></trkpt><trkpt lat="45.89250644764411" lon="12.29480531819987"><ele>74.33333333333334</ele><time>2026-04-04T12:02:19.999Z</time></trkpt><trkpt lat="45.892431438616" lon="12.294826148575716"><ele>76.0</ele><time>2026-04-04T12:02:20.999Z</time></trkpt><trkpt lat="45.89235763398496" lon="12.294873198244632"><ele>77.66666666666667</ele><time>2026-04-04T12:02:21.999Z</time></trkpt><trkpt lat="45.89228588596025" lon="12.294941355360828"><ele>79.33333333333333</ele><time>2026-04-04T12:02:22.999Z</time></trkpt><trkpt lat="45.89220974432044" lon="12.29502282326324"><ele>81.0</ele><time>2026-04-04T12:02:23.999Z</time></trkpt><trkpt lat="45.892135430613166" lon="12.295093892648055"><ele>81.0</ele><time>2026-04-04T12:02:24.999Z</time></trkpt><trkpt lat="45.892066454414255" lon="12.295131904781455"><ele>81.0</ele><time>2026-04-04T12:02:25.999Z</time></trkpt><trkpt lat="45.89199212137401" lon="12.295148197554665"><ele>81.0</ele><time>2026-04-04T12:02:26.999Z</time></trkpt><trkpt lat="45.89190701193621" lon="12.2951435870925"><ele>81.0</ele><time>2026-04-04T12:02:27.999Z</time></trkpt><trkpt lat="45.89180581546838" lon="12.295135044110362"><ele>81.0</ele><time>2026-04-04T12:02:28.999Z</time></trkpt><trkpt lat="45.89170791720079" lon="12.295124585685933"><ele>81.0</ele><time>2026-04-04T12:02:29.999Z</time></trkpt><trkpt lat="45.89162215441073" lon="12.2951265476092"><ele>81.28571428571429</ele><time>2026-04-04T12:02:30.999Z</time></trkpt><trkpt lat="45.89154510714884" lon="12.295147945200151"><ele>81.57142857142857</ele><time>2026-04-04T12:02:31.999Z</time></trkpt><trkpt lat="45.89147937352658" lon="12.295189853388083"><ele>81.85714285714286</ele><time>2026-04-04T12:02:32.999Z</time></trkpt><trkpt lat="45.89142158229187" lon="12.29524862503097"><ele>82.14285714285714</ele><time>2026-04-04T12:02:33.999Z</time></trkpt><trkpt lat="45.891374111188696" lon="12.29532697644655"><ele>82.42857142857143</ele><time>2026-04-04T12:02:34.999Z</time></trkpt><trkpt lat="45.89134120673646" lon="12.295421943461525"><ele>82.71428571428571</ele><time>2026-04-04T12:02:35.999Z</time></trkpt><trkpt lat="45.89131267883115" lon="12.295532620171333"><ele>83.0</ele><time>2026-04-04T12:02:36.999Z</time></trkpt><trkpt lat="45.891290968306436" lon="12.29565347454511"><ele>83.0</ele><time>2026-04-04T12:02:37.999Z</time></trkpt><trkpt lat="45.89127032080227" lon="12.295770708704243"><ele>83.0</ele><time>2026-04-04T12:02:38.999Z</time></trkpt><trkpt lat="45.891249953953434" lon="12.29586834205397"><ele>83.0</ele><time>2026-04-04T12:02:39.999Z</time></trkpt><trkpt lat="45.89117663088311" lon="12.296001017087987"><ele>83.0</ele><time>2026-04-04T12:02:41.999Z</time></trkpt><trkpt lat="45.891061646872345" lon="12.296021990406537"><ele>83.0</ele><time>2026-04-04T12:02:43.999Z</time></trkpt><trkpt lat="45.890983207492866" lon="12.295934741466416"><ele>83.0</ele><time>2026-04-04T12:02:45.999Z</time></trkpt><trkpt lat="45.89098106785586" lon="12.295753982082573"><ele>83.0</ele><time>2026-04-04T12:02:47.999Z</time></trkpt><trkpt lat="45.89100834266641" lon="12.295638911679607"><ele>83.0</ele><time>2026-04-04T12:02:48.999Z</time></trkpt><trkpt lat="45.891055795176335" lon="12.295509424292424"><ele>83.0</ele><time>2026-04-04T12:02:49.999Z</time></trkpt><trkpt lat="45.89110961966473" lon="12.29534406371106"><ele>83.0</ele><time>2026-04-04T12:02:50.999Z</time></trkpt><trkpt lat="45.89116162850331" lon="12.295173534119382"><ele>84.75</ele><time>2026-04-04T12:02:51.999Z</time></trkpt><trkpt lat="45.89119857177796" lon="12.295003461657092"><ele>86.5</ele><time>2026-04-04T12:02:52.999Z</time></trkpt><trkpt lat="45.89123039976781" lon="12.294816223331638"><ele>88.25</ele><time>2026-04-04T12:02:53.999Z</time></trkpt><trkpt lat="45.8912659332829" lon="12.294623586440073"><ele>90.0</ele><time>2026-04-04T12:02:54.999Z</time></trkpt><trkpt lat="45.8913024852938" lon="12.2944290183958"><ele>93.75</ele><time>2026-04-04T12:02:55.999Z</time></trkpt><trkpt lat="45.89134313867906" lon="12.294232880570371"><ele>97.5</ele><time>2026-04-04T12:02:56.999Z</time></trkpt><trkpt lat="45.89138610918515" lon="12.294033483219811"><ele>101.25</ele><time>2026-04-04T12:02:57.999Z</time></trkpt><trkpt lat="45.89143166584841" lon="12.29383849742488"><ele>105.0</ele><time>2026-04-04T12:02:58.999Z</time></trkpt><trkpt lat="45.89147078528973" lon="12.293653849292344"><ele>108.2</ele><time>2026-04-04T12:02:59.999Z</time></trkpt><trkpt lat="45.89150968912837" lon="12.293490104571047"><ele>111.4</ele><time>2026-04-04T12:03:00.999Z</time></trkpt><trkpt lat="45.89154602047925" lon="12.293346994885328"><ele>114.6</ele><time>2026-04-04T12:03:01.999Z</time></trkpt><trkpt lat="45.891577662317594" lon="12.293219232607552"><ele>117.8</ele><time>2026-04-04T12:03:02.999Z</time></trkpt><trkpt lat="45.89160509887345" lon="12.293115494173724"><ele>121.0</ele><time>2026-04-04T12:03:03.999Z</time></trkpt><trkpt lat="45.89163401747314" lon="12.293018036799099"><ele>120.6</ele><time>2026-04-04T12:03:04.999Z</time></trkpt><trkpt lat="45.89166072163185" lon="12.292913598896668"><ele>120.19999999999999</ele><time>2026-04-04T12:03:05.999Z</time></trkpt><trkpt lat="45.89169873127167" lon="12.29279716816562"><ele>119.80000000000001</ele><time>2026-04-04T12:03:06.999Z</time></trkpt><trkpt lat="45.89173098577958" lon="12.292671047517604"><ele>119.4</ele><time>2026-04-04T12:03:08Z</time></trkpt><trkpt lat="45.89175792924399" lon="12.292530295984218"><ele>119.0</ele><time>2026-04-04T12:03:09Z</time></trkpt><trkpt lat="45.89178658291816" lon="12.292383997083105"><ele>120.2</ele><time>2026-04-04T12:03:10Z</time></trkpt><trkpt lat="45.891812939695455" lon="12.292236047334438"><ele>121.4</ele><time>2026-04-04T12:03:11Z</time></trkpt><trkpt lat="45.89183487082974" lon="12.29209216676887"><ele>122.6</ele><time>2026-04-04T12:03:12Z</time></trkpt><trkpt lat="45.891858667703204" lon="12.29195519684001"><ele>123.8</ele><time>2026-04-04T12:03:13Z</time></trkpt><trkpt lat="45.8918857951067" lon="12.291810088014763"><ele>125.0</ele><time>2026-04-04T12:03:14Z</time></trkpt><trkpt lat="45.891897651566644" lon="12.29168526409405"><ele>125.0</ele><time>2026-04-04T12:03:15Z</time></trkpt><trkpt lat="45.8919030439023" lon="12.291579586510878"><ele>125.0</ele><time>2026-04-04T12:03:16Z</time></trkpt><trkpt lat="45.891888595386334" lon="12.291424762773602"><ele>125.0</ele><time>2026-04-04T12:03:18Z</time></trkpt><trkpt lat="45.89183617108249" lon="12.291332851346223"><ele>125.0</ele><time>2026-04-04T12:03:20Z</time></trkpt><trkpt lat="45.89172793735142" lon="12.291303244768569"><ele>125.0</ele><time>2026-04-04T12:03:22Z</time></trkpt><trkpt lat="45.89164603626146" lon="12.291310771108828"><ele>125.2</ele><time>2026-04-04T12:03:23Z</time></trkpt><trkpt lat="45.89154637762293" lon="12.291289864478534"><ele>125.4</ele><time>2026-04-04T12:03:24Z</time></trkpt><trkpt lat="45.89143821724782" lon="12.291295398789998"><ele>125.6</ele><time>2026-04-04T12:03:25Z</time></trkpt><trkpt lat="45.89133583184111" lon="12.29132084060207"><ele>125.8</ele><time>2026-04-04T12:03:26Z</time></trkpt><trkpt lat="45.89123718567575" lon="12.291334495049878"><ele>126.0</ele><time>2026-04-04T12:03:27Z</time></trkpt><trkpt lat="45.89114499994249" lon="12.291359116977254"><ele>126.0</ele><time>2026-04-04T12:03:28Z</time></trkpt><trkpt lat="45.891064145439586" lon="12.291380186901891"><ele>126.0</ele><time>2026-04-04T12:03:29Z</time></trkpt><trkpt lat="45.8909890363766" lon="12.291424380185779"><ele>126.0</ele><time>2026-04-04T12:03:30Z</time></trkpt><trkpt lat="45.89091915236148" lon="12.291486270544649"><ele>126.0</ele><time>2026-04-04T12:03:31Z</time></trkpt><trkpt lat="45.89086072551082" lon="12.291564318898951"><ele>126.0</ele><time>2026-04-04T12:03:32Z</time></trkpt><trkpt lat="45.890809145978146" lon="12.291652212325834"><ele>126.0</ele><time>2026-04-04T12:03:33Z</time></trkpt><trkpt lat="45.89076581351741" lon="12.291757308326249"><ele>126.66666666666667</ele><time>2026-04-04T12:03:34Z</time></trkpt><trkpt lat="45.8907462192498" lon="12.291864872758861"><ele>127.33333333333334</ele><time>2026-04-04T12:03:35Z</time></trkpt><trkpt lat="45.89074014009306" lon="12.291983755998318"><ele>128.0</ele><time>2026-04-04T12:03:36Z</time></trkpt><trkpt lat="45.89074638585073" lon="12.292107064380469"><ele>128.66666666666669</ele><time>2026-04-04T12:03:37Z</time></trkpt><trkpt lat="45.89076643847248" lon="12.292243139775366"><ele>129.33333333333334</ele><time>2026-04-04T12:03:38Z</time></trkpt><trkpt lat="45.89078209353181" lon="12.29237498653351"><ele>130.0</ele><time>2026-04-04T12:03:39Z</time></trkpt><trkpt lat="45.8907928335856" lon="12.292495563959983"><ele>131.33333333333334</ele><time>2026-04-04T12:03:40Z</time></trkpt><trkpt lat="45.890807207920055" lon="12.292608107717271"><ele>132.66666666666669</ele><time>2026-04-04T12:03:41Z</time></trkpt><trkpt lat="45.89079866864549" lon="12.2927156484271"><ele>134.0</ele><time>2026-04-04T12:03:42Z</time></trkpt><trkpt lat="45.890772232738264" lon="12.292817688358179"><ele>135.33333333333334</ele><time>2026-04-04T12:03:43Z</time></trkpt><trkpt lat="45.89073155089885" lon="12.292912151133"><ele>136.66666666666666</ele><time>2026-04-04T12:03:44Z</time></trkpt><trkpt lat="45.89067662278133" lon="12.29298292483034"><ele>138.0</ele><time>2026-04-04T12:03:45Z</time></trkpt><trkpt lat="45.890610327563756" lon="12.29303559108602"><ele>138.0</ele><time>2026-04-04T12:03:46Z</time></trkpt><trkpt lat="45.8905253475446" lon="12.2930707117293"><ele>138.0</ele><time>2026-04-04T12:03:47Z</time></trkpt><trkpt lat="45.89044051297923" lon="12.293051474121278"><ele>138.0</ele><time>2026-04-04T12:03:48Z</time></trkpt><trkpt lat="45.890343675253206" lon="12.293053762723666"><ele>138.0</ele><time>2026-04-04T12:03:49Z</time></trkpt><trkpt lat="45.890236489677" lon="12.293052351039291"><ele>138.0</ele><time>2026-04-04T12:03:50Z</time></trkpt><trkpt lat="45.8901259665775" lon="12.293055721302844"><ele>139.0</ele><time>2026-04-04T12:03:51Z</time></trkpt><trkpt lat="45.89002924657082" lon="12.293048122032038"><ele>140.0</ele><time>2026-04-04T12:03:52Z</time></trkpt><trkpt lat="45.88994856296736" lon="12.293044027286692"><ele>141.0</ele><time>2026-04-04T12:03:53Z</time></trkpt><trkpt lat="45.88984563297969" lon="12.293037455210017"><ele>142.0</ele><time>2026-04-04T12:03:55Z</time></trkpt><trkpt lat="45.889767179683474" lon="12.293072507788674"><ele>143.0</ele><time>2026-04-04T12:03:58Z</time></trkpt><trkpt lat="45.889698995451205" lon="12.293161042052606"><ele>143.0</ele><time>2026-04-04T12:04:00Z</time></trkpt><trkpt lat="45.88964396137998" lon="12.293331902315375"><ele>143.0</ele><time>2026-04-04T12:04:02Z</time></trkpt><trkpt lat="45.88963621198082" lon="12.293442181041835"><ele>143.0</ele><time>2026-04-04T12:04:03Z</time></trkpt><trkpt lat="45.88963176435169" lon="12.293559261584257"><ele>143.0</ele><time>2026-04-04T12:04:04Z</time></trkpt><trkpt lat="45.889616448229546" lon="12.293660728908083"><ele>143.0</ele><time>2026-04-04T12:04:05Z</time></trkpt><trkpt lat="45.88956612221166" lon="12.29378406113123"><ele>143.0</ele><time>2026-04-04T12:04:07Z</time></trkpt><trkpt lat="45.889463079197796" lon="12.293848203572345"><ele>143.0</ele><time>2026-04-04T12:04:09Z</time></trkpt><trkpt lat="45.889334626118455" lon="12.293879282906413"><ele>143.0</ele><time>2026-04-04T12:04:11Z</time></trkpt><trkpt lat="45.88925653960053" lon="12.293918048722576"><ele>143.0</ele><time>2026-04-04T12:04:12Z</time></trkpt><trkpt lat="45.88916014881618" lon="12.293996273540692"><ele>143.0</ele><time>2026-04-04T12:04:14Z</time></trkpt><trkpt lat="45.889115821870334" lon="12.294127090724697"><ele>143.33333333333331</ele><time>2026-04-04T12:04:16Z</time></trkpt><trkpt lat="45.88913163725573" lon="12.294301141018593"><ele>143.66666666666666</ele><time>2026-04-04T12:04:18Z</time></trkpt><trkpt lat="45.88914450032709" lon="12.294401459456191"><ele>144.0</ele><time>2026-04-04T12:04:19Z</time></trkpt><trkpt lat="45.88915688344294" lon="12.29450095808136"><ele>144.33333333333334</ele><time>2026-04-04T12:04:20Z</time></trkpt><trkpt lat="45.889167897453035" lon="12.294600548577899"><ele>144.66666666666669</ele><time>2026-04-04T12:04:21Z</time></trkpt><trkpt lat="45.889179714076775" lon="12.294694930333081"><ele>145.0</ele><time>2026-04-04T12:04:22Z</time></trkpt><trkpt lat="45.88919076716611" lon="12.294785143813563"><ele>144.0</ele><time>2026-04-04T12:04:22.999Z</time></trkpt><trkpt lat="45.88917755408065" lon="12.294949340510914"><ele>143.0</ele><time>2026-04-04T12:04:24.999Z</time></trkpt><trkpt lat="45.88922099291622" lon="12.295115154431896"><ele>142.0</ele><time>2026-04-04T12:04:26.999Z</time></trkpt><trkpt lat="45.8892275962331" lon="12.295284993203653"><ele>141.0</ele><time>2026-04-04T12:04:28.999Z</time></trkpt><trkpt lat="45.88928433161139" lon="12.295413893141191"><ele>139.83333333333334</ele><time>2026-04-04T12:04:30.999Z</time></trkpt><trkpt lat="45.889359125360755" lon="12.295488727819597"><ele>138.66666666666666</ele><time>2026-04-04T12:04:32.999Z</time></trkpt><trkpt lat="45.88944585342567" lon="12.295483694945572"><ele>137.5</ele><time>2026-04-04T12:04:34.999Z</time></trkpt><trkpt lat="45.8895134239928" lon="12.295463960599731"><ele>136.33333333333331</ele><time>2026-04-04T12:04:37.999Z</time></trkpt><trkpt lat="45.889539367005206" lon="12.295356095487255"><ele>135.16666666666666</ele><time>2026-04-04T12:04:41.999Z</time></trkpt><trkpt lat="45.889538060722906" lon="12.295253477554384"><ele>134.0</ele><time>2026-04-04T12:04:44.999Z</time></trkpt><trkpt lat="45.889524238532715" lon="12.295127785280886"><ele>134.0</ele><time>2026-04-04T12:04:48.999Z</time></trkpt><trkpt lat="45.889527201349885" lon="12.295010577287027"><ele>134.0</ele><time>2026-04-04T12:04:51.999Z</time></trkpt><trkpt lat="45.88946013249124" lon="12.295009454276014"><ele>134.0</ele><time>2026-04-04T12:04:54.999Z</time></trkpt><trkpt lat="45.88946326848237" lon="12.29511371567528"><ele>134.0</ele><time>2026-04-04T12:04:59.999Z</time></trkpt></trkseg><trkseg><trkpt lat="45.971499655453286" lon="12.681273648005563"><ele>32.0</ele><time>2026-04-04T16:57:24.999Z</time></trkpt><trkpt lat="45.971514854495254" lon="12.681364439190409"><ele>32.0</ele><time>2026-04-04T16:58:12.998Z</time></trkpt></trkseg></trk></gpx>